[[{"header":{"parameterUnit":"m.s-1","parameterCategory":1,"la1":30.6,"la2":29.2853,"lo1":-89.7004,"lo2":-87.6739,"dy":0.0162,"dx":0.0183,"nx":112,"ny":82,"refTime":"2023-04-07T18:00:00:Z","depth":0,"parameterNumber":2,"parameterNumberName":"U-component_of_WINDS"},"data":[0.0,0.0,0.0,0.0,0.0,0.0,0.0,0.0,0.0,0.0,0.0,0.0,0.0,0.0,0.0,0.0,0.0,0.0,0.0,0.0,0.0,0.0,0.0,0.0,0.0,0.0,0.0,0.0,0.0,0.0,0.0,0.0,0.0,0.0,0.0,0.0,0.0,0.0,0.0,0.0,0.0,0.0,0.0,0.0,0.0,0.0,0.0,0.0,0.0,0.0,0.0,0.0,0.0,0.0,0.0,0.0,0.0,0.0,0.0,0.0,0.0,0.0,0.0,0.0,0.0,0.0,0.0,0.0,0.0,0.0,0.0,0.0,0.0,0.0,0.0,0.0,0.0,0.0,0.0,0.0,0.0,0.0,0.0,0.0,0.0,0.0,0.0,0.0,0.0,0.0,0.0,2.1109,2.1109,2.1109,2.1109,2.1109,2.1109,2.1109,0.0,0.0,0.0,0.0,0.0,0.0,0.0,0.0,0.0,0.0,0.0,0.0,0.0,0.0,0.0,0.0,0.0,0.0,0.0,0.0,0.0,0.0,0.0,0.0,0.0,0.0,0.0,0.0,0.0,0.0,0.0,0.0,0.0,0.0,0.0,0.0,0.0,0.0,0.0,0.0,0.0,0.0,0.0,0.0,0.0,0.0,0.0,0.0,0.0,0.0,0.0,0.0,0.0,0.0,0.0,0.0,0.0,0.0,0.0,0.0,0.0,0.0,0.0,0.0,0.0,0.0,0.0,0.0,0.0,0.0,0.0,0.0,0.0,0.0,0.0,0.0,0.0,0.0,0.0,0.0,0.0,0.0,0.0,0.0,0.0,0.0,0.0,0.0,0.0,0.0,0.0,0.0,0.0,0.0,0.0,0.0,0.0,0.0,0.0,0.0,0.0,0.0,0.0,0.0,2.1109,2.1109,2.1109,2.1109,2.1109,2.1109,2.1109,2.1109,0.0,0.0,0.0,0.0,0.0,0.0,0.0,0.0,0.0,0.0,0.0,0.0,0.0,0.0,0.0,0.0,0.0,0.0,0.0,0.0,0.0,0.0,0.0,0.0,0.0,0.0,0.0,0.0,0.0,0.0,0.0,0.0,0.0,0.0,0.0,0.0,0.0,0.0,0.0,0.0,0.0,0.0,0.0,0.0,0.0,0.0,0.0,0.0,0.0,0.0,0.0,0.0,0.0,0.0,0.0,0.0,0.0,0.0,0.0,0.0,0.0,0.0,0.0,0.0,0.0,0.0,0.0,0.0,0.0,0.0,0.0,0.0,0.0,0.0,0.0,0.0,0.0,0.0,0.0,0.0,0.0,0.0,0.0,0.0,0.0,0.0,0.0,0.0,0.0,0.0,0.0,0.0,0.0,0.0,0.0,0.0,0.0,0.0,0.0,0.0,0.0,0.0,0.0,2.1109,2.1109,2.1109,2.1109,2.1109,2.1109,2.1109,2.1109,2.1109,2.1109,0.0,0.0,0.0,0.0,0.0,0.0,0.0,0.0,0.0,0.0,0.0,0.0,0.0,0.0,0.0,0.0,0.0,0.0,0.0,0.0,0.0,0.0,0.0,0.0,0.0,0.0,0.0,0.0,0.0,0.0,0.0,0.0,0.0,0.0,0.0,0.0,0.0,0.0,0.0,0.0,0.0,0.0,0.0,0.0,0.0,0.0,0.0,0.0,0.0,0.0,0.0,0.0,0.0,0.0,0.0,0.0,0.0,0.0,0.0,0.0,0.0,0.0,0.0,0.0,0.0,0.0,0.0,0.0,0.0,0.0,0.0,0.0,0.0,0.0,0.0,0.0,0.0,0.0,0.0,0.0,0.0,0.0,0.0,0.0,0.0,0.0,0.0,0.0,0.0,0.0,0.0,0.0,0.0,0.0,0.0,0.0,0.0,0.0,0.0,0.0,0.0,0.0,2.1109,2.1136,2.1203,2.1216,2.1243,2.1309,2.1323,2.1323,2.1323,2.1323,0.0,0.0,0.0,0.0,0.0,0.0,0.0,0.0,0.0,0.0,0.0,0.0,0.0,0.0,0.0,0.0,0.0,0.0,0.0,0.0,0.0,0.0,0.0,0.0,0.0,0.0,0.0,0.0,0.0,0.0,0.0,0.0,0.0,0.0,0.0,0.0,0.0,0.0,0.0,0.0,0.0,0.0,0.0,0.0,0.0,0.0,0.0,0.0,0.0,0.0,0.0,0.0,0.0,0.0,0.0,0.0,0.0,0.0,0.0,0.0,0.0,0.0,0.0,0.0,0.0,0.0,0.0,0.0,0.0,0.0,0.0,0.0,0.0,0.0,0.0,0.0,0.0,0.0,0.0,0.0,0.0,0.0,0.0,0.0,0.0,0.0,0.0,0.0,0.0,0.0,0.0,0.0,0.0,0.0,0.0,0.0,0.0,0.0,0.0,0.0,0.0,0.0,2.1109,2.1216,2.1529,2.1555,2.1662,2.193,2.1924,2.1924,2.1924,2.1924,0.0,0.0,0.0,0.0,0.0,0.0,0.0,0.0,0.0,0.0,0.0,0.0,0.0,0.0,0.0,0.0,0.0,0.0,0.0,0.0,0.0,0.0,0.0,0.0,0.0,0.0,0.0,0.0,0.0,0.0,0.0,0.0,0.0,0.0,0.0,0.0,0.0,0.0,0.0,0.0,0.0,0.0,0.0,0.0,0.0,0.0,0.0,0.0,0.0,0.0,0.0,0.0,0.0,0.0,0.0,0.0,0.0,0.0,0.0,0.0,0.0,0.0,0.0,0.0,0.0,0.0,0.0,0.0,0.0,0.0,0.0,0.0,0.0,0.0,0.0,0.0,0.0,0.0,0.0,0.0,0.0,0.0,0.0,0.0,0.0,0.0,0.0,0.0,0.0,0.0,0.0,0.0,0.0,0.0,0.0,0.0,0.0,0.0,0.0,0.0,0.0,0.0,2.155,2.1697,0.0,2.185,2.1903,2.1977,2.1991,2.1991,2.1991,0.0,0.0,0.0,0.0,0.0,0.0,0.0,0.0,0.0,0.0,0.0,0.0,0.0,0.0,0.0,0.0,0.0,0.0,0.0,0.0,0.0,0.0,0.0,0.0,0.0,0.0,0.0,0.0,0.0,0.0,0.0,0.0,0.0,0.0,0.0,0.0,0.0,0.0,0.0,0.0,0.0,0.0,0.0,0.0,0.0,0.0,0.0,0.0,0.0,0.0,0.0,0.0,0.0,0.0,0.0,0.0,0.0,0.0,0.0,0.0,0.0,0.0,0.0,0.0,0.0,0.0,0.0,0.0,0.0,0.0,0.0,0.0,0.0,0.0,0.0,0.0,0.0,0.0,0.0,0.0,0.0,0.0,0.0,0.0,0.0,0.0,0.0,0.0,0.0,0.0,0.0,0.0,0.0,0.0,0.0,0.0,0.0,0.0,0.0,0.0,0.0,0.0,2.1729,2.189,2.2017,0.0,2.2124,2.2164,2.2291,2.2291,2.2291,2.2291,0.0,0.0,0.0,0.0,0.0,0.0,0.0,0.0,0.0,0.0,0.0,0.0,0.0,0.0,0.0,0.0,0.0,0.0,0.0,0.0,0.0,0.0,0.0,0.0,0.0,0.0,0.0,0.0,0.0,0.0,0.0,0.0,0.0,0.0,0.0,0.0,0.0,0.0,0.0,0.0,0.0,0.0,0.0,0.0,0.0,0.0,0.0,0.0,0.0,0.0,0.0,0.0,0.0,0.0,0.0,0.0,0.0,0.0,0.0,0.0,0.0,0.0,0.0,0.0,0.0,0.0,0.0,0.0,0.0,0.0,0.0,0.0,0.0,0.0,0.0,0.0,0.0,0.0,0.0,0.0,0.0,0.0,0.0,0.0,0.0,0.0,0.0,0.0,0.0,0.0,0.0,0.0,0.0,0.0,0.0,0.0,0.0,0.0,0.0,0.0,0.0,0.0,2.1991,2.1991,2.2111,2.2392,2.2398,2.2552,2.288,2.2907,2.2907,0.0,0.0,0.0,0.0,0.0,0.0,0.0,0.0,0.0,0.0,0.0,0.0,0.0,0.0,0.0,0.0,0.0,0.0,0.0,0.0,0.0,0.0,0.0,0.0,0.0,0.0,0.0,0.0,0.0,0.0,0.0,0.0,0.0,0.0,0.0,0.0,0.0,0.0,0.0,0.0,0.0,0.0,0.0,0.0,0.0,0.0,0.0,0.0,0.0,0.0,0.0,0.0,0.0,0.0,0.0,0.0,0.0,0.0,0.0,0.0,0.0,0.0,0.0,0.0,0.0,0.0,0.0,0.0,0.0,0.0,0.0,0.0,0.0,0.0,0.0,0.0,0.0,0.0,0.0,0.0,0.0,0.0,0.0,0.0,0.0,0.0,0.0,0.0,0.0,0.0,0.0,0.0,0.0,0.0,0.0,0.0,0.0,0.0,0.0,0.0,0.0,0.0,0.0,2.2298,2.2672,2.2966,2.3012,2.3247,2.3442,2.3536,2.3536,2.3536,2.3536,0.0,0.0,0.0,0.0,0.0,0.0,0.0,0.0,0.0,0.0,0.0,0.0,0.0,0.0,0.0,0.0,0.0,0.0,0.0,0.0,0.0,0.0,0.0,0.0,0.0,0.0,0.0,0.0,0.0,0.0,0.0,0.0,0.0,0.0,0.0,0.0,0.0,0.0,0.0,0.0,0.0,0.0,0.0,0.0,0.0,0.0,0.0,0.0,0.0,0.0,0.0,0.0,0.0,0.0,0.0,0.0,0.0,0.0,0.0,0.0,0.0,0.0,0.0,0.0,0.0,0.0,0.0,0.0,0.0,0.0,0.0,0.0,0.0,0.0,0.0,0.0,0.0,0.0,0.0,0.0,0.0,0.0,0.0,0.0,0.0,0.0,0.0,0.0,0.0,0.0,0.0,0.0,0.0,0.0,0.0,0.0,0.0,0.0,0.0,0.0,0.0,0.0,2.2939,2.3273,2.35,2.35,2.3661,2.3803,2.3803,2.3803,2.3803,2.3803,0.0,0.0,0.0,0.0,0.0,0.0,0.0,0.0,0.0,0.0,0.0,0.0,0.0,0.0,0.0,0.0,0.0,0.0,0.0,0.0,0.0,0.0,0.0,0.0,0.0,0.0,0.0,0.0,0.0,0.0,0.0,0.0,0.0,0.0,0.0,0.0,0.0,0.0,0.0,0.0,0.0,0.0,0.0,0.0,0.0,0.0,0.0,0.0,0.0,0.0,0.0,0.0,0.0,0.0,0.0,0.0,0.0,0.0,0.0,0.0,0.0,0.0,0.0,0.0,0.0,0.0,0.0,0.0,0.0,0.0,0.0,0.0,0.0,0.0,0.0,0.0,0.0,0.0,0.0,0.0,0.0,0.0,0.0,0.0,0.0,0.0,0.0,0.0,0.0,0.0,0.0,0.0,0.0,0.0,0.0,0.0,0.0,0.0,0.0,0.0,0.0,0.0,2.3777,2.383,2.3843,2.3843,2.387,2.3897,2.3924,2.3924,2.3937,2.3964,0.0,0.0,0.0,0.0,0.0,0.0,0.0,0.0,0.0,0.0,0.0,0.0,0.0,0.0,0.0,0.0,0.0,0.0,0.0,0.0,0.0,0.0,0.0,0.0,0.0,0.0,0.0,0.0,0.0,0.0,0.0,0.0,0.0,0.0,0.0,0.0,0.0,0.0,0.0,0.0,0.0,0.0,0.0,0.0,0.0,0.0,0.0,0.0,0.0,0.0,0.0,0.0,0.0,0.0,0.0,0.0,0.0,0.0,0.0,0.0,2.1277,0.0,0.0,0.0,0.0,0.0,0.0,0.0,0.0,0.0,0.0,0.0,0.0,0.0,0.0,0.0,0.0,0.0,0.0,0.0,0.0,0.0,0.0,0.0,0.0,0.0,0.0,0.0,0.0,0.0,0.0,0.0,0.0,0.0,0.0,0.0,0.0,0.0,0.0,0.0,0.0,0.0,2.3803,2.3968,2.4115,2.4115,2.4315,2.4543,2.4783,2.4834,2.4903,2.513,0.0,0.0,0.0,0.0,0.0,0.0,0.0,0.0,0.0,0.0,0.0,0.0,0.0,0.0,0.0,0.0,0.0,0.0,0.0,0.0,0.0,0.0,0.0,0.0,0.0,0.0,0.0,0.0,0.0,0.0,0.0,0.0,0.0,0.0,0.0,0.0,0.0,0.0,0.0,0.0,0.0,0.0,0.0,0.0,0.0,0.0,0.0,0.0,0.0,0.0,0.0,0.0,0.0,0.0,0.0,0.0,0.0,0.0,0.0,0.0,0.0,2.1586,0.0,0.0,0.0,0.0,0.0,0.0,0.0,0.0,0.0,0.0,0.0,0.0,0.0,0.0,0.0,0.0,0.0,0.0,0.0,0.0,0.0,0.0,0.0,0.0,0.0,0.0,0.0,0.0,0.0,0.0,0.0,0.0,0.0,0.0,0.0,0.0,0.0,0.0,0.0,0.0,2.4419,2.4649,2.4836,2.4836,2.497,2.5117,2.5277,2.5291,2.5344,2.5504,2.5518,0.0,0.0,0.0,0.0,0.0,0.0,0.0,0.0,0.0,0.0,0.0,0.0,0.0,0.0,0.0,0.0,0.0,0.0,0.0,0.0,0.0,0.0,0.0,0.0,0.0,0.0,0.0,0.0,0.0,0.0,0.0,0.0,0.0,0.0,0.0,0.0,0.0,0.0,0.0,0.0,0.0,0.0,0.0,0.0,0.0,0.0,0.0,0.0,0.0,0.0,0.0,0.0,0.0,2.167,2.167,2.167,2.1955,2.2093,2.2075,2.179,2.1583,2.1485,0.0,0.0,0.0,0.0,0.0,0.0,0.0,0.0,0.0,0.0,0.0,0.0,0.0,0.0,0.0,0.0,0.0,0.0,0.0,0.0,0.0,0.0,0.0,0.0,0.0,2.3117,2.3202,0.0,0.0,0.0,0.0,0.0,0.0,0.0,0.0,0.0,0.0,0.0,0.0,2.5117,2.5371,2.5518,2.5518,2.5518,2.5531,2.5585,2.5585,2.5611,2.5665,2.5665,2.5665,0.0,0.0,0.0,0.0,0.0,0.0,0.0,0.0,0.0,0.0,0.0,0.0,0.0,0.0,0.0,0.0,0.0,0.0,0.0,0.0,0.0,0.0,0.0,0.0,0.0,0.0,0.0,0.0,0.0,0.0,0.0,0.0,2.0144,2.0498,0.0,0.0,0.0,0.0,0.0,0.0,0.0,0.0,0.0,0.0,0.0,0.0,0.0,2.1588,2.1869,2.185,2.1863,2.1936,2.1936,2.1936,2.1936,2.2002,2.2015,2.2023,2.1975,0.0,2.2326,2.2399,0.0,0.0,0.0,0.0,0.0,0.0,0.0,0.0,0.0,0.0,0.0,0.0,0.0,0.0,0.0,0.0,0.0,0.0,0.0,0.0,0.0,0.0,1.9508,2.0043,2.0445,2.1166,0.0,2.2276,2.2123,2.3799,0.0,0.0,0.0,0.0,0.0,0.0,0.0,0.0,2.5451,2.5491,2.5518,2.5518,2.5518,2.5611,2.5917,2.5931,2.6038,2.6253,2.6266,2.6266,2.6266,2.6065,0.0,0.0,0.0,0.0,0.0,0.0,0.0,0.0,0.0,0.0,0.0,0.0,0.0,0.0,0.0,0.0,0.0,0.0,0.0,0.0,0.0,0.0,0.0,0.0,0.0,0.0,0.0,0.0,0.0,2.0117,2.025,2.0414,2.0277,2.0197,0.0,0.0,0.0,0.0,0.0,0.0,0.0,0.0,0.0,2.1823,2.1823,2.189,2.1991,2.1991,2.1991,2.1991,2.1991,2.1991,2.1991,2.1991,2.2071,2.2245,2.2405,2.268,2.2903,2.2424,2.2208,2.2208,0.0,0.0,0.0,0.0,2.1965,2.1965,2.1965,2.1965,0.0,0.0,0.0,0.0,0.0,0.0,0.0,0.0,0.0,0.0,0.0,0.0,0.0,1.99,2.0167,2.0511,2.129,2.038,2.0195,0.0,2.3001,2.2846,2.3706,0.0,0.0,0.0,0.0,0.0,2.4632,2.5544,2.6319,2.648,2.6493,2.6547,2.672,2.6734,2.6787,2.6921,2.6921,2.6921,2.6921,2.68,2.6734,0.0,0.0,0.0,0.0,0.0,0.0,0.0,0.0,0.0,0.0,0.0,0.0,0.0,0.0,0.0,0.0,0.0,0.0,0.0,0.0,0.0,0.0,0.0,0.0,0.0,0.0,0.0,0.0,2.0424,2.0477,2.0637,2.0517,2.049,0.0,0.0,0.0,0.0,0.0,0.0,2.1703,2.1903,2.2017,2.2098,2.2211,2.2245,2.2325,2.2405,2.2479,2.2479,2.2479,2.2479,2.2479,2.2479,2.2565,2.2779,2.3027,2.3233,2.3394,2.2712,2.2479,2.2479,2.2479,2.2479,2.2472,2.2583,2.2595,2.2595,2.2595,2.2595,2.2601,2.2419,0.0,2.1785,2.1904,0.0,0.0,0.0,0.0,1.976,1.9371,1.9125,1.9082,1.9301,1.9364,1.9484,1.9923,1.9094,1.9055,0.0,2.2096,2.1985,2.2505,0.0,0.0,0.0,0.0,2.4709,2.4065,2.5284,2.6487,2.72,2.7309,2.7309,2.7309,2.7309,2.7309,2.7309,2.7309,2.7309,2.7309,2.7309,2.7309,2.7309,0.0,0.0,0.0,0.0,0.0,0.0,0.0,0.0,0.0,0.0,0.0,0.0,0.0,0.0,0.0,0.0,0.0,0.0,0.0,0.0,0.0,0.0,0.0,0.0,0.0,0.0,0.0,0.0,0.0,2.183,2.1403,0.0,0.0,0.0,0.0,2.193,2.1951,2.1964,2.1964,2.1977,2.2111,2.2358,2.2706,2.3,2.3225,2.3541,2.371,2.371,2.371,2.371,2.371,2.371,2.3723,2.3736,2.375,2.3763,2.3777,2.3736,2.371,2.371,2.371,2.371,2.3639,2.3297,2.3167,2.3167,2.3167,2.3167,2.3096,2.2727,2.1545,2.027,2.0165,1.9837,0.0,0.0,1.903,1.8592,1.813,1.7578,1.7105,1.6899,1.681,1.7239,1.8908,1.9203,1.9538,0.0,1.9836,1.9447,2.1481,0.0,2.1857,2.1857,2.1951,2.2627,2.4252,2.4564,2.533,2.7091,2.7309,2.7309,2.7309,2.7309,2.7309,2.7309,2.7309,2.7309,2.7309,2.7309,2.7309,2.7309,2.7309,0.0,0.0,0.0,0.0,0.0,0.0,0.0,0.0,0.0,0.0,0.0,0.0,0.0,0.0,0.0,0.0,0.0,0.0,0.0,0.0,0.0,0.0,0.0,0.0,0.0,0.0,0.0,0.0,2.1937,2.1804,0.0,2.1964,2.193,2.1903,2.1977,2.2164,2.2352,2.2572,2.2739,2.2979,2.3287,2.3567,2.3781,2.3888,2.4182,2.4329,2.4329,2.4329,2.4329,2.4329,2.4329,2.4329,2.4342,2.4529,2.4646,2.466,2.481,2.4449,2.3803,2.3803,2.3803,2.3768,2.3625,2.335,2.3024,2.3024,2.2592,2.1981,2.1778,2.1456,2.1011,2.0134,2.0167,2.0205,1.8869,1.8765,1.8855,1.7983,1.7485,1.7138,1.6957,1.6734,1.6789,1.7383,1.7544,1.7663,1.8195,1.8676,1.9214,1.9987,2.0143,2.0143,2.0143,2.1097,2.1693,2.1378,2.2316,2.3339,2.4186,2.5348,2.6075,2.6075,2.719,2.7871,2.7871,2.7871,2.7871,2.7871,2.7871,2.7871,2.7871,2.7871,2.7871,0.0,0.0,0.0,0.0,0.0,0.0,0.0,0.0,0.0,0.0,0.0,0.0,0.0,0.0,0.0,0.0,0.0,0.0,0.0,0.0,0.0,0.0,0.0,0.0,0.0,0.0,2.1836,2.2098,2.2044,2.2111,2.2405,2.2372,2.2398,2.2612,2.2766,2.3006,2.3335,2.3514,2.3754,2.4048,2.4342,2.4502,2.4502,2.4783,2.4893,2.4893,2.4893,2.4893,2.4893,2.4893,2.4818,2.4719,2.4955,2.4959,2.4821,2.5005,2.4449,2.3538,2.4136,2.4283,2.4173,2.4173,2.3617,2.2843,2.2583,2.1867,2.1056,2.083,2.0725,2.0504,1.9486,1.9655,1.9914,1.8501,1.8647,1.9013,1.8245,1.7818,1.7537,1.7355,1.7102,1.6852,1.6852,1.6901,1.6974,1.7052,1.7776,1.8423,1.8486,1.8504,1.8504,1.8504,1.9467,2.0111,1.9742,2.0696,2.1722,2.2525,2.3695,2.4477,2.4477,2.6193,2.6969,2.6376,2.6927,2.6969,2.6321,2.6927,2.7279,2.7279,2.7883,2.8179,2.8179,0.0,0.0,0.0,0.0,0.0,0.0,0.0,0.0,0.0,0.0,0.0,0.0,0.0,0.0,0.0,0.0,0.0,0.0,0.0,0.0,0.0,0.0,0.0,2.2037,2.2004,2.2124,2.2418,2.2205,2.2392,2.3238,2.3086,2.3188,2.379,2.383,2.3928,2.4209,2.4235,2.4369,2.4613,2.4957,2.5104,2.5104,2.536,2.5506,2.5506,2.5506,2.5506,2.5506,2.5506,2.5263,2.488,2.488,2.4611,2.4175,2.4175,2.3635,2.3056,2.4739,2.516,2.4815,2.4815,2.397,2.2722,2.193,2.1123,2.0391,1.9938,1.9281,1.8641,1.8167,1.8229,1.8421,1.8421,1.8714,1.8938,1.879,1.8475,1.8181,1.7954,1.766,1.7396,1.7396,1.7526,1.7595,1.7595,1.7182,1.689,1.7096,1.7128,1.7128,1.7128,1.7128,0.0,1.9588,1.9849,2.0491,2.2255,2.2514,2.2514,2.2514,2.4243,2.4543,2.2729,2.4329,2.45,2.2686,2.4372,2.5367,2.5409,2.7135,2.8079,2.8121,0.0,0.0,0.0,0.0,0.0,0.0,0.0,0.0,0.0,0.0,0.0,0.0,0.0,0.0,0.0,0.0,0.0,0.0,0.0,0.0,0.0,2.2672,2.2806,2.2365,2.2485,2.2739,2.3012,2.3193,2.3496,2.3915,2.3888,2.3995,2.4332,2.4396,2.4529,2.4823,2.4836,2.4858,2.4809,2.5443,2.5603,2.5242,2.557,2.5714,2.5714,2.5361,2.5216,2.5216,2.5216,2.5137,2.5019,2.4363,2.4034,2.3876,2.3242,2.291,2.2895,2.3405,2.3186,2.2567,2.2567,2.2061,2.1259,2.0276,1.9927,1.9773,1.9365,1.9195,1.9123,1.8998,1.8995,1.9042,1.9042,1.9117,1.9193,1.9146,1.8794,1.8418,1.8365,1.7939,1.7575,1.7575,1.7562,1.7595,1.7595,1.7481,1.7392,1.7441,1.7449,1.7449,1.7449,1.7449,0.0,1.8158,1.8248,1.8427,1.891,2.0184,2.1018,2.1018,2.2742,2.3578,0.0,2.3534,2.3578,2.305,2.3534,2.4456,2.5877,2.5036,2.5255,0.0,0.0,0.0,0.0,0.0,0.0,0.0,0.0,0.0,0.0,0.0,0.0,0.0,0.0,0.0,0.0,0.0,0.0,0.0,0.0,0.0,0.0,2.3287,2.3434,2.3193,2.3207,2.3388,2.3661,2.3848,2.4115,2.4529,2.4569,2.469,2.4946,2.4973,2.5055,2.5196,2.5171,2.5111,2.4985,2.5387,2.557,2.541,2.5565,2.572,2.5823,2.5554,2.5433,2.5433,2.5029,2.4774,0.0,2.3667,2.3167,2.2964,2.2445,2.2113,0.0,0.0,0.0,0.0,0.0,2.102,2.0589,1.9624,1.9378,1.9442,1.9192,1.9193,1.9297,1.9297,1.9354,1.942,1.942,1.9552,1.9666,1.9581,1.9168,1.8761,1.8707,1.8285,1.7884,1.7965,1.8038,1.8048,1.8048,0.0,0.0,1.8048,1.7862,1.7708,1.7708,1.7819,1.7867,1.7867,1.7867,1.7867,1.7867,1.8812,1.9488,1.9488,2.1161,0.0,0.0,0.0,2.2237,2.2237,2.2237,0.0,0.0,0.0,2.3785,0.0,0.0,0.0,0.0,2.7779,2.8524,0.0,0.0,0.0,0.0,0.0,0.0,0.0,0.0,0.0,0.0,0.0,0.0,0.0,0.0,0.0,0.0,2.3857,2.3955,2.4209,2.4052,2.4012,2.4275,2.4292,2.4532,2.5117,2.5133,2.5266,2.5585,2.5573,2.5487,2.5348,0.0,0.0,0.0,0.0,2.5266,2.5466,2.5466,2.5564,2.5706,2.5677,2.5607,2.5508,2.4668,2.4086,2.3712,2.2741,2.2166,2.183,2.1705,2.1221,2.0673,2.1904,2.2298,2.1996,2.0876,2.0467,2.0341,1.9569,0.0,0.0,1.9392,1.942,1.9439,1.9439,1.9562,1.9703,1.9703,1.9968,2.0169,1.999,1.9614,1.9211,1.9121,1.8731,1.8343,1.8553,1.8662,1.8704,1.8704,1.8769,1.8785,1.8785,1.8355,1.8005,1.8005,1.8144,1.828,1.828,1.828,1.828,1.828,0.0,0.0,1.828,1.9718,1.9951,1.8373,1.9765,2.0649,2.0649,2.0649,2.1471,2.3182,2.299,2.2941,2.3047,2.3047,2.3062,2.3307,2.6741,2.8387,0.0,0.0,0.0,0.0,0.0,0.0,0.0,0.0,0.0,0.0,0.0,0.0,0.0,0.0,0.0,2.379,2.4168,2.4452,2.4506,2.4605,2.4765,2.4893,2.4816,2.5055,2.5758,2.5462,2.5556,2.6199,2.5937,2.5727,2.5701,2.5537,2.5289,2.4935,2.5473,2.5612,2.5346,2.5346,2.507,2.4531,0.0,0.0,2.3124,2.2953,2.2824,2.2707,2.1849,2.1419,2.129,2.0567,2.0284,2.0249,2.0076,1.9965,1.9878,1.9635,1.955,1.9569,1.9519,1.9656,1.9826,1.9987,2.0157,2.0254,2.0254,2.0283,0.0,2.032,2.0377,2.0424,2.0386,2.015,1.9925,1.9879,1.9436,1.9017,1.905,1.8992,1.8931,1.8931,1.9053,1.9159,1.9159,1.8834,1.8574,1.8574,1.8598,1.8623,1.8623,1.8623,1.8623,1.8623,1.8623,1.8623,1.8623,1.8901,1.8996,1.8615,1.8949,1.914,1.914,1.914,2.0057,2.198,2.044,2.0375,2.2006,2.1959,2.1932,2.2055,2.3732,2.4587,0.0,0.0,0.0,0.0,0.0,0.0,0.0,0.0,0.0,0.0,0.0,2.3385,2.3679,0.0,2.4249,2.4409,2.4597,2.4778,2.4923,2.4854,2.4894,2.5187,2.4945,2.4985,2.5479,2.5347,2.5424,2.5908,2.532,2.4941,2.4864,2.4306,2.3804,2.3404,2.3727,2.3913,2.3971,2.3971,2.3869,2.377,2.3553,2.3272,2.2899,2.2417,2.2197,2.2153,2.1229,2.0842,2.0842,2.0365,2.0245,2.0311,2.0,1.9921,1.9921,1.9921,1.9921,1.9887,2.0034,2.0138,2.0207,2.0301,2.0415,2.0499,2.0499,2.0499,2.0518,2.0622,2.0771,2.0875,2.0979,2.0788,2.0591,2.0691,2.0136,1.9649,1.9742,1.9593,1.9386,1.9386,1.9459,1.9574,1.9574,1.9378,1.9224,1.9134,1.9199,1.9256,1.9256,1.9256,1.9256,1.9256,1.9256,1.9256,1.9256,1.9256,1.9256,1.9256,1.9256,1.9256,1.9256,1.9256,1.97,2.0561,1.96,1.9558,2.0527,2.0469,2.0522,2.0601,2.1167,2.2427,0.0,0.0,0.0,0.0,0.0,0.0,0.0,2.3121,2.3193,2.3447,2.3581,2.3808,2.4289,2.4536,2.4741,2.5017,2.494,2.4946,2.5166,2.4892,2.4721,2.4798,2.4733,2.4691,2.4769,2.4686,2.4678,2.4775,2.4013,2.3481,2.3359,2.2752,2.222,2.1926,2.2064,2.2342,2.2718,2.2729,2.2855,2.3104,2.3104,2.3057,2.2917,2.2161,2.182,2.1825,2.1099,2.0735,2.0735,2.0735,2.0735,2.0735,2.0735,2.0735,2.0716,2.0556,2.0499,2.0499,2.0537,2.0584,2.0622,2.066,2.0707,2.0735,2.0735,2.0735,2.0773,2.0933,2.1149,2.1375,2.1536,2.1366,2.116,2.1265,2.0685,2.0187,2.0283,2.0048,1.9841,1.9841,1.9873,1.989,1.989,1.989,1.9817,1.9597,1.9695,1.9792,1.9792,1.9792,1.9792,1.9792,1.9792,1.9792,1.9792,1.9792,1.9792,1.9792,1.9792,1.9792,1.9792,1.9792,1.9719,1.9573,1.9565,1.95,1.9411,1.9411,1.9435,1.9565,1.9605,2.1118,2.2338,2.2592,2.296,2.3207,2.3265,2.338,0.0,2.3861,2.4062,2.4102,2.4516,2.4903,2.5007,2.4921,2.489,2.4916,2.4817,2.4725,2.4763,2.4637,2.4169,2.3173,2.3937,2.4301,2.3643,2.3272,2.2803,2.2253,2.1723,2.1442,2.1431,2.1757,2.1954,2.1911,2.2703,2.3168,2.3222,2.3222,2.2904,2.2343,2.2343,2.2099,2.1694,2.16,2.1658,2.1792,2.1697,2.165,2.165,2.165,2.165,2.165,2.165,2.165,2.1565,2.0773,2.0499,2.0518,2.0697,2.0932,2.113,2.1356,2.1499,2.165,2.165,2.165,2.166,2.1678,2.1707,2.1726,2.1754,2.1725,2.1648,2.1371,2.0978,2.0632,2.0333,2.0198,2.0087,2.0087,2.0158,2.0263,2.0263,2.0263,2.015,1.9808,1.9776,1.9792,1.9792,1.9792,1.9792,1.9792,1.9792,1.9792,1.9792,1.9792,1.9792,1.9792,1.9792,1.9792,1.9792,1.9792,1.9776,1.976,1.976,1.9752,1.9727,1.9727,1.9743,1.976,1.993,2.0145,2.3087,2.3104,2.3183,2.3609,2.3727,2.379,2.4176,2.4282,2.4407,2.4679,2.4849,2.4989,2.4989,2.5073,2.5062,2.483,2.4029,2.3409,2.3409,2.259,2.1818,2.1341,2.1806,2.2036,2.1751,2.1554,2.14,2.1294,2.0705,2.0406,2.0586,2.0364,2.0217,2.0217,2.061,2.1045,2.1615,2.1615,2.1745,2.1946,2.1946,2.1856,2.166,2.166,2.1707,2.1792,2.1792,2.1792,2.1792,2.1792,2.1792,2.1792,2.1792,2.1792,2.1754,2.1395,2.1272,2.1282,2.1367,2.1452,2.1546,2.1631,2.1716,2.1792,2.1792,2.1792,2.182,2.1934,2.1962,2.199,2.2113,2.2141,2.2043,2.1719,2.1366,2.1062,2.0655,2.0396,2.0214,2.0214,2.0271,2.032,2.032,2.032,2.0271,2.0117,2.0101,2.0101,2.0101,2.0101,2.0101,2.0101,2.0101,2.0101,2.0101,2.0101,2.0101,2.0101,2.0101,2.0101,2.0101,2.0101,2.0101,2.0101,2.0101,2.0101,2.0101,2.0101,2.0101,2.0101,2.0182,2.0174,2.3474,2.3523,2.3632,2.394,2.406,2.4236,2.4645,2.4534,2.4465,2.4971,2.4928,2.4855,2.4855,2.4647,2.4445,2.413,2.2825,2.1867,2.1867,2.0971,2.0184,1.9869,1.9991,1.9978,1.9704,1.9945,2.0046,1.9957,1.9469,1.93,1.9445,1.9157,1.898,1.898,1.9212,1.9681,2.0339,2.0339,2.068,2.1353,2.1496,2.1629,2.1685,2.1886,2.1952,2.1952,2.1952,2.1952,2.1952,2.1952,2.1952,2.1952,2.1952,2.1952,2.1952,2.1952,2.1886,2.1792,2.1792,2.183,2.1877,2.1877,2.1915,2.1952,2.1952,2.1952,2.199,2.2132,2.217,2.2208,2.2349,2.2387,2.2315,2.184,2.1602,2.1264,2.0746,2.049,2.032,2.032,2.032,2.032,2.032,2.032,2.032,2.032,2.032,2.032,2.032,2.032,2.032,2.032,2.032,2.032,2.032,2.032,2.032,2.032,2.032,2.032,2.032,2.032,2.032,2.032,2.032,2.032,2.032,2.0369,2.0393,2.0393,2.0442,2.0466,2.325,2.3773,2.4462,2.4068,2.4216,2.4524,2.4988,2.4632,2.4329,2.4802,2.4791,2.4711,2.4711,2.3544,2.2602,2.2562,2.1263,2.0271,2.0271,2.038,2.0095,1.8977,1.9015,1.869,0.0,1.847,1.8699,1.7578,1.7616,1.7669,1.7677,1.848,1.8913,1.8913,1.9733,2.0171,2.0228,2.0228,2.0237,2.0246,2.0771,2.111,2.1369,2.2039,2.2368,2.2368,2.2368,2.2368,2.2368,2.2368,2.2368,2.2368,2.2368,2.2368,2.2368,2.2368,2.2123,2.1792,2.1792,2.1915,2.2085,2.2085,2.2217,2.2368,2.2368,2.2368,2.2368,2.2378,2.2378,2.2387,2.2387,2.2387,2.2245,2.1552,2.1397,2.1197,2.049,2.0312,2.032,2.032,2.032,2.032,2.032,2.032,2.032,2.032,2.032,2.032,2.032,2.032,2.032,2.032,2.032,2.032,2.032,2.032,2.032,2.032,2.032,2.032,2.032,2.032,2.032,2.032,2.032,2.032,2.032,2.0499,2.0588,2.0596,2.0812,2.0893,2.3017,2.3198,2.3415,2.3442,2.3656,2.3972,2.4405,2.4277,2.4207,2.4674,2.442,2.4184,2.4502,2.3208,2.2091,2.2091,2.0334,1.8957,1.8957,1.8533,1.8113,1.7704,1.7939,0.0,0.0,0.0,0.0,1.7551,1.7827,1.7997,1.7997,1.8488,1.8779,1.8779,1.9038,1.9451,1.9947,1.9956,2.0161,2.0583,2.1159,2.1439,2.1512,2.2114,2.2191,2.1848,2.1848,2.1848,2.1848,2.1848,2.2093,2.2387,2.2387,2.2387,2.2387,2.2387,2.2302,2.2189,2.2189,2.2236,2.2293,2.2293,2.233,2.2387,2.2387,2.2387,2.2387,2.2387,2.2387,2.2387,2.2387,2.2387,2.2315,2.185,2.156,2.1273,2.0762,2.0447,2.0353,2.0483,2.0507,2.0539,2.0653,2.0677,2.0677,2.0677,2.0572,2.0507,2.0507,2.0604,2.0677,2.0677,2.0677,2.0677,2.0677,2.0677,2.0677,2.0677,2.0677,2.0677,2.0677,2.0677,2.0677,2.0677,2.0677,2.0677,2.0677,2.0787,2.082,2.082,2.0877,2.091,2.2694,2.2781,2.2979,2.3099,2.333,2.3681,2.4263,2.4138,2.4022,2.4338,2.3958,2.3676,2.3892,2.2358,2.1109,2.1153,1.925,1.778,1.785,1.7506,1.7234,1.7246,1.7514,1.7716,0.0,0.0,0.0,1.7835,1.8103,1.8353,1.8371,1.8655,1.8818,1.8818,1.8883,1.9158,1.9616,1.9616,1.9919,2.053,2.0875,2.1121,2.1317,2.1652,2.1652,2.1317,2.1505,2.1603,2.1603,2.1799,2.2093,2.2387,2.2387,2.2387,2.2387,2.2387,2.2387,2.2387,2.2387,2.2387,2.2387,2.2387,2.2387,2.2387,2.2387,2.2387,2.2387,2.2387,2.2387,2.2387,2.2387,2.2444,2.2409,2.2076,2.1768,2.1456,2.1087,2.0751,2.0547,2.0669,2.0686,2.0779,2.0885,2.091,2.091,2.091,2.0815,2.0759,2.0694,2.0836,2.091,2.091,2.091,2.091,2.091,2.091,2.091,2.091,2.091,2.091,2.091,2.091,2.091,2.091,2.091,2.091,2.091,2.0975,2.0954,2.0954,2.1072,2.1097,2.2231,2.2593,2.3123,2.2995,2.3144,2.3584,2.4397,2.4135,2.372,2.368,2.3371,2.3011,2.2864,2.0982,1.9563,1.9851,1.8161,1.6858,1.7088,1.7283,1.7461,1.7587,1.7781,1.8014,1.8223,1.8402,0.0,1.8225,0.0,1.8605,1.8728,1.8907,1.8996,1.8996,1.9216,1.9306,1.9306,1.9306,1.9503,1.9939,1.9997,2.0301,2.0794,2.0803,2.0803,2.0785,2.1326,2.1523,2.1554,2.2044,2.2289,2.2338,2.2338,2.2299,2.2357,2.2357,2.2366,2.2376,2.2425,2.2406,2.2387,2.2387,2.2387,2.2348,2.2357,2.2357,2.2357,2.2366,2.2376,2.2376,2.2376,2.2527,2.2575,2.226,2.2054,2.1821,2.1487,2.1151,2.091,2.0918,2.0926,2.0934,2.0934,2.0926,2.0926,2.0934,2.1019,2.1067,2.0942,2.0926,2.0934,2.0934,2.0934,2.0934,2.0934,2.0934,2.0934,2.0934,2.0934,2.0934,2.0934,2.0934,2.0934,2.0934,2.0934,2.0934,2.0934,2.1059,2.114,2.114,2.1295,2.1384,2.2177,2.2434,2.2831,2.2509,2.26,2.2865,2.3065,2.3032,2.2717,2.2061,2.1679,2.1532,2.1687,1.9759,1.8445,1.9532,1.7957,1.6755,1.7071,1.738,1.7595,1.7781,1.8127,1.8377,1.8426,1.855,1.8688,0.0,1.8818,1.8866,1.8915,1.9086,1.924,1.924,1.9281,1.9306,1.9306,1.9306,1.9355,1.9454,1.9991,2.0307,2.0457,2.0994,2.0927,2.0457,2.0548,2.057,2.0432,2.0579,2.0875,2.1219,2.1219,2.1308,2.1492,2.1889,2.213,2.23,2.27,2.2652,2.2387,2.2387,2.2142,2.1836,2.1992,2.2038,2.1967,2.1713,2.1958,2.215,2.1749,2.1995,2.2292,2.2246,2.2054,2.1882,2.1778,2.1316,2.095,2.1027,2.1157,2.1246,2.1246,2.114,2.11,2.123,2.1181,2.1108,2.1067,2.1173,2.1246,2.1246,2.1246,2.1246,2.1246,2.1246,2.1246,2.1246,2.1246,2.1246,2.1246,2.1246,2.1246,2.1246,2.1246,2.1246,2.1246,2.1295,2.1319,2.1319,2.136,2.1384,2.2125,2.2169,2.2094,2.1598,2.1611,2.179,2.1992,2.2032,2.1864,2.1272,2.1319,2.128,2.058,1.9263,1.8499,1.8927,1.7759,1.6933,1.7246,1.7538,1.7859,1.8119,1.8377,1.8565,1.8719,1.8777,1.8915,1.9143,1.9029,1.9021,1.9151,1.9249,1.9306,1.9306,1.9306,1.9306,1.9306,1.9306,1.9306,1.9306,1.966,1.9858,1.9858,2.0308,2.025,1.9858,0.0,2.014,2.0164,2.0412,2.0703,2.108,2.108,2.1151,2.1247,2.1598,2.1912,2.2255,2.2558,2.2509,2.2364,2.2612,2.2463,2.2243,2.2363,2.2391,2.2318,2.2177,2.2305,2.2457,2.2154,2.2379,2.2697,2.2697,2.2406,2.2205,2.2387,2.1733,2.1116,2.1222,2.1254,2.1295,2.136,2.1238,2.1181,2.136,2.1295,2.1238,2.1238,2.1319,2.1384,2.1384,2.1384,2.1384,2.1384,2.1384,2.1384,2.1384,2.1384,2.1384,2.1384,2.1384,2.1384,2.1384,2.1384,2.1425,2.1514,2.1514,2.1555,2.162,2.162,2.162,2.2144,2.1856,2.1377,2.0686,2.0525,2.0647,2.1011,2.1154,2.1077,2.0714,2.1375,2.1418,1.9422,1.9067,1.8854,1.824,1.754,1.7234,1.7546,1.7757,1.8054,1.8459,1.8524,1.867,1.8948,1.9004,1.9086,1.9297,1.9159,1.9135,1.9297,1.9306,1.9306,1.9306,1.9306,1.9306,1.9306,1.9306,1.9306,1.9306,1.933,1.9346,1.9346,1.9371,1.9379,1.9379,0.0,0.0,2.0267,2.0759,2.1055,2.1203,2.1203,2.1212,2.1238,2.1289,2.1661,2.2084,2.2135,2.2185,2.2278,2.2828,2.291,2.2819,2.2847,2.2856,2.2806,2.2682,2.2692,2.2742,2.2641,2.2882,2.3114,2.3114,2.2866,2.2681,2.2995,2.2223,2.1477,2.1384,2.1254,2.1205,2.136,2.1238,2.1197,2.1384,2.1408,2.1408,2.1449,2.1425,2.1425,2.1425,2.1449,2.1449,2.1449,2.1449,2.1449,2.1449,2.1449,2.1449,2.1449,2.1449,2.1449,2.1449,2.1449,2.153,2.1701,2.1701,2.179,2.188,2.188,2.188,2.1902,2.178,2.1545,2.0404,2.0089,2.013,2.0211,2.0344,2.024,1.9413,1.9955,2.0017,1.8244,1.7867,1.7828,1.792,1.7464,1.7234,1.7546,1.7757,1.8054,1.8459,1.859,1.8761,1.8964,1.9167,1.9273,0.0,1.9281,1.9273,1.9306,1.9306,1.9306,1.9306,1.9306,1.9306,1.9306,1.9306,1.9306,1.9314,1.9402,1.9467,1.9475,1.963,1.9695,1.9695,0.0,0.0,1.9895,1.9997,2.0064,2.0089,2.0089,2.0187,2.0379,2.0832,2.1131,2.1414,2.188,2.2035,2.2137,2.277,2.2406,2.1685,2.1905,2.1907,2.178,2.101,2.1104,2.1414,2.0897,2.1492,2.2243,2.2243,2.2605,2.3004,2.3073,2.2449,2.1812,2.1453,2.136,2.1343,2.1384,2.1238,2.1238,2.161,2.149,2.149,2.1806,2.1701,2.1675,2.1675,2.1741,2.1831,2.1831,2.1831,2.1831,2.1831,2.1831,2.1831,2.1831,2.1831,2.1831,2.1831,2.1831,2.1847,2.1896,2.1896,2.1856,2.188,2.188,2.188,2.2782,2.2184,2.1397,2.0536,1.9795,1.9458,2.0027,1.9881,1.9573,1.9292,2.004,2.0037,1.7621,1.7673,1.7904,1.74,1.714,1.714,1.7525,1.776,1.8065,1.8526,1.8753,1.8931,1.9159,1.9257,1.9306,1.9306,1.9306,1.9306,1.9306,1.9306,1.9306,1.9306,1.9306,1.9306,1.9306,1.9306,1.9306,1.9306,1.9395,1.9427,1.9516,1.9605,1.9695,1.9792,1.9792,0.0,1.9973,1.9981,1.9987,2.0068,2.0068,2.0117,2.025,2.0509,2.087,2.1258,2.1518,2.1561,2.1691,2.2271,2.2114,2.1722,2.1818,2.1845,2.1759,2.1336,2.1414,2.157,2.1258,2.1821,2.2392,2.2392,2.2879,2.3201,2.2672,2.2377,2.2085,2.1491,2.1319,2.1319,2.1545,2.1384,2.1384,2.1741,2.1725,2.1741,2.1856,2.1936,2.1896,2.1806,2.1839,2.188,2.188,2.188,2.188,2.188,2.188,2.188,2.188,2.188,2.188,2.188,2.188,2.1977,2.2066,2.2066,2.2123,2.2212,2.2212,2.2212,2.3648,2.2717,2.1438,2.0769,1.9713,1.906,2.0015,1.9712,1.9294,1.9543,2.0532,2.0492,1.751,1.7802,1.8125,1.7,1.6944,1.7195,1.7549,1.785,1.8192,1.8672,1.8874,1.9102,1.9289,1.9306,1.9306,1.9306,1.9306,1.9306,1.9306,1.9306,1.9306,1.9306,1.9306,1.9306,1.9306,1.9306,1.933,1.9363,1.9363,1.9402,1.9573,1.9573,1.967,1.9849,1.9849,0.0,0.0,2.0117,2.0198,2.032,2.032,2.032,2.032,2.0424,2.0789,2.1206,2.1206,2.1206,2.1258,2.1561,2.1717,2.1821,2.1821,2.1821,2.1821,2.1665,2.1622,2.1622,2.1622,2.2132,2.2703,2.291,2.3272,2.3326,2.2296,2.2287,2.2304,2.1595,2.1343,2.1343,2.166,2.1595,2.162,2.1936,2.1945,2.2001,2.2042,2.2172,2.2188,2.2066,2.2042,2.2042,2.2042,2.2042,2.2042,2.2042,2.2042,2.2042,2.2042,2.2042,2.2042,2.2042,2.2042,2.2107,2.2253,2.2253,2.2375,2.253,2.253,2.253,2.3728,2.3159,2.2194,2.089,1.9907,1.9388,1.9906,2.0012,1.9975,1.9897,2.0807,2.08,1.7957,1.7863,1.794,1.6974,1.721,1.7549,1.7595,1.8073,1.8494,1.8656,1.8874,1.9102,1.9289,1.9306,1.9306,1.9306,1.9306,1.9306,1.9306,1.9306,1.9306,1.9306,1.9306,1.9306,1.9306,1.9306,1.9337,1.9492,1.9492,1.9581,1.976,1.976,1.9865,2.0095,0.0,0.0,0.0,2.0296,2.0304,2.032,2.032,2.032,2.0372,2.0945,2.1154,2.1206,2.1206,2.1206,2.1101,2.0633,2.0841,2.1258,2.1258,2.1258,2.1154,2.0633,2.0476,2.0476,2.0476,2.1249,2.234,2.3272,2.3583,2.3393,2.2601,2.2459,2.2348,2.1798,2.1675,2.1684,2.1871,2.1896,2.1953,2.2147,2.2172,2.2237,2.2407,2.2481,2.2448,2.2424,2.2424,2.2424,2.2424,2.2424,2.2424,2.2424,2.2424,2.2424,2.2424,2.2424,2.2424,2.2424,2.2424,2.2424,2.2448,2.2448,2.2506,2.253,2.253,2.253,2.4415,2.3612,2.2527,2.2234,2.0931,1.9998,2.1111,2.09,2.0403,2.0118,2.094,2.0956,1.8547,1.8165,1.8044,1.7478,1.7319,1.7351,1.7566,1.8016,1.8424,1.868,1.8972,1.9224,1.9306,1.9306,1.9306,1.9306,1.9306,0.0,1.9306,1.9306,1.9306,1.9306,1.9306,1.9306,1.9306,1.9362,1.9443,1.9516,1.9622,1.9776,1.9955,1.9998,2.0044,2.0214,0.0,0.0,0.0,2.032,2.032,2.032,2.032,2.032,2.0372,2.0997,2.0997,2.0737,2.1049,2.0945,2.0633,2.0372,2.0476,2.0737,2.1101,2.0945,2.0685,2.0789,2.0581,2.032,2.032,2.1154,2.2288,2.3324,2.3739,2.3632,2.2867,2.2766,2.2659,2.1956,2.1831,2.1871,2.2066,2.2082,2.2147,2.2342,2.2359,2.2383,2.2464,2.253,2.253,2.253,2.253,2.253,2.253,2.253,2.253,2.253,2.253,2.253,2.253,2.253,2.253,2.253,2.253,2.253,2.253,2.253,2.253,2.253,2.257,2.2618,2.4851,2.4052,2.301,2.3159,2.179,2.0659,2.1766,2.1532,2.0917,2.0233,2.1078,2.119,1.8916,1.8348,1.807,1.7657,1.7383,1.733,1.7566,1.8041,1.843,1.8688,1.9045,1.9306,1.9306,1.9306,1.9306,1.9306,1.9306,0.0,1.9306,1.9306,1.9306,1.9306,1.9306,1.9306,1.9306,1.9427,1.954,1.9597,1.9784,1.9963,2.0141,2.0185,2.0198,2.032,0.0,0.0,0.0,2.032,2.032,2.032,2.032,2.032,2.0372,2.0997,2.0945,2.0633,2.1049,2.0945,2.0529,2.0372,2.032,2.0424,2.0997,2.0789,2.0372,2.0789,2.0633,2.0372,2.0737,2.1448,2.2377,2.3469,2.3899,2.3846,2.3071,2.2985,2.2892,2.2145,2.1961,2.2066,2.2237,2.2277,2.2318,2.2506,2.253,2.253,2.253,2.253,2.2506,2.244,2.2383,2.2383,2.2383,2.2383,2.2383,2.2383,2.2448,2.253,2.253,2.253,2.2546,2.2553,2.2553,2.2578,2.2676,2.2676,2.2676,2.2635,2.274,2.2805,2.4851,2.4452,2.368,2.3291,2.2223,2.1295,2.1316,2.1683,2.1589,2.0172,2.123,2.1617,1.8994,1.8348,1.7975,1.7211,1.7368,1.7595,1.7595,1.8218,1.868,1.868,1.9045,1.9306,1.9306,1.9306,1.9306,1.9306,1.9306,0.0,1.9306,1.9306,1.9306,1.9306,1.9306,1.9306,1.9306,1.9427,1.9605,1.9792,1.9979,2.015,2.032,2.032,2.032,0.0,0.0,0.0,0.0,2.032,2.032,2.032,2.032,2.032,2.0372,2.0997,2.1206,2.1206,2.1206,2.1206,2.1101,2.0476,2.032,2.0424,2.0997,2.0789,2.032,2.032,2.032,2.0581,2.1665,2.2126,2.2591,2.3694,2.4169,2.4105,2.3266,2.3073,2.2909,2.2301,2.2188,2.2253,2.2481,2.253,2.253,2.253,2.253,2.253,2.253,2.253,2.2407,2.2212,2.2188,2.2188,2.2188,2.2188,2.2188,2.2188,2.2359,2.253,2.253,2.253,2.2553,2.2724,2.2724,2.2805,2.3,2.3,2.3,2.3,2.3,2.3,2.4132,2.38,2.3291,2.2889,2.2032,2.1511,2.2296,2.1956,2.1421,2.1113,2.1371,2.1081,1.9326,1.868,1.8226,1.7674,1.7591,1.7595,1.7595,1.7929,1.8135,1.8135,1.8491,1.891,1.9256,1.9306,1.9306,1.9306,1.9306,0.0,1.9306,1.9306,1.9306,1.9306,1.9306,1.9363,1.9427,1.9613,1.9792,2.003,2.0158,2.0263,2.032,2.032,0.0,0.0,0.0,0.0,0.0,2.032,2.032,2.032,2.032,2.032,2.0424,2.1414,2.1258,2.0685,2.1466,2.1258,2.0529,2.0372,2.032,2.032,2.0529,2.0424,2.032,2.032,2.032,2.0605,2.1891,2.2231,2.2627,2.3924,2.4378,2.4275,2.3479,2.3397,2.3272,2.2539,2.2383,2.2407,2.2464,2.253,2.253,2.253,2.253,2.253,2.253,2.2359,2.2253,2.2188,2.1977,2.1936,2.2172,2.2188,2.2188,2.2188,2.2253,2.2342,2.2464,2.253,2.2618,2.2911,2.2911,2.2935,2.3,2.3,2.3065,2.323,2.323,2.3236,2.38,2.3532,2.313,2.2889,2.2394,2.2141,2.2817,2.2408,2.1853,2.1439,2.1312,2.0825,1.9248,1.8689,1.8296,1.7639,1.7591,1.7574,1.7411,1.7687,1.7942,1.8122,1.8374,1.8704,1.9256,1.9306,1.9306,1.9306,1.9306,0.0,1.9306,1.9306,1.9306,1.9306,1.9306,1.9337,1.9508,1.9695,1.9882,2.012,2.0239,2.032,2.032,2.032,0.0,0.0,0.0,0.0,0.0,2.032,2.032,2.032,2.032,2.032,2.0372,2.1101,2.0893,2.0424,2.1101,2.0893,2.032,2.032,2.032,2.032,2.032,2.032,2.032,2.032,2.0369,2.066,2.167,2.2072,2.253,2.3766,2.422,2.4209,2.3628,2.3582,2.3454,2.2678,2.253,2.253,2.253,2.253,2.253,2.253,2.253,2.2448,2.2383,2.2253,2.2147,2.2001,2.1846,2.1805,2.1977,2.2001,2.2017,2.2082,2.2212,2.2383,2.2553,2.2635,2.2805,2.3081,2.3106,2.313,2.3187,2.3187,2.3252,2.3358,2.3358,2.3422,0.0,2.3492,2.3199,2.3159,2.3075,2.2974,2.2974,2.2988,0.0,2.1342,2.1173,2.0718,1.8864,1.8506,1.8191,1.7244,1.7368,1.7478,1.7149,1.7529,1.8035,1.8468,1.8507,1.8704,1.9256,1.9306,1.9306,1.9306,0.0,0.0,1.9306,1.9306,1.9306,1.9306,1.9306,1.9345,1.9532,1.9711,1.9898,2.0136,2.0247,2.032,2.032,2.032,0.0,0.0,0.0,0.0,0.0,2.032,2.032,2.032,2.032,2.032,2.032,2.0372,2.032,2.032,2.0372,2.032,2.032,2.032,2.032,2.032,2.032,2.032,2.032,2.032,2.045,2.0702,2.13,2.172,2.227,2.3467,2.3873,2.3955,2.3796,2.3764,2.3493,2.2719,2.2563,2.2506,2.253,2.253,2.253,2.253,2.253,2.2407,2.2212,2.2188,2.2042,2.1701,2.1716,2.1716,2.1716,2.174,2.1749,2.1912,2.2277,2.2553,2.2666,2.2895,2.3081,2.3336,2.3336,2.3358,2.3528,2.3528,2.3528,2.3528,2.3528,2.3528,2.3411,0.0,2.313,2.2809,2.2872,2.3096,0.0,2.3196,2.2798,2.2118,2.1521,2.0531,1.8837,1.8391,1.8035,1.7219,1.7368,1.7478,1.7149,1.7345,1.7776,1.8434,1.8507,1.8704,1.9256,1.9306,1.9306,1.9306,0.0,1.9306,1.9306,1.9306,1.9306,1.9306,1.9306,1.946,1.9719,1.9949,2.0076,2.0263,2.0304,2.032,2.032,2.032,0.0,0.0,0.0,0.0,2.032,2.032,2.032,2.032,2.032,2.032,2.0372,2.0841,2.0685,2.0372,2.0841,2.0685,2.032,2.032,2.032,2.032,2.032,2.032,2.032,2.032,2.045,2.0787,2.1442,2.1813,2.2349,2.3629,2.3974,2.4019,2.4163,2.418,2.3946,2.3098,2.2954,2.2874,2.2563,2.253,2.253,2.253,2.253,2.2407,2.2212,2.2082,2.1912,2.174,2.1716,2.1716,2.1716,2.179,2.1896,2.188,2.2277,2.2553,2.2666,2.2895,2.3146,2.3463,2.3463,2.3487,2.3528,2.3528,2.3528,2.3528,2.3528,2.3528,2.3496,2.3319,2.3171,2.2929,2.3075,2.3382,2.379,2.3571,2.3137,2.2416,2.1691,2.059,1.8846,1.8427,1.8113,1.7342,1.7309,1.7356,1.7255,1.7332,1.7674,1.8434,1.8507,1.8704,1.9256,1.9306,1.9306,1.9306,0.0,1.9306,1.9306,1.9306,1.9306,1.9306,1.9337,1.9508,1.9784,1.9933,2.006,2.032,2.032,2.032,2.032,2.032,0.0,0.0,0.0,0.0,2.032,2.032,2.032,2.032,2.032,2.032,2.032,2.0685,2.0581,2.0372,2.0685,2.0581,2.032,2.032,2.032,2.032,2.032,2.032,2.032,2.032,2.0507,2.0841,2.1251,2.1529,2.2025,2.3283,2.3574,2.3737,2.421,2.432,2.405,2.3249,2.3098,2.2986,2.2547,2.253,2.253,2.253,2.2407,2.2277,2.2107,2.1912,2.1766,2.174,2.1716,2.1701,2.179,2.1953,2.2082,2.2172,2.2424,2.27,2.296,2.3146,2.3341,2.3528,2.3528,2.3528,2.3528,2.3528,2.3528,2.3528,2.3528,2.3528,2.3728,2.3636,2.3419,2.3331,2.3422,2.3634,2.3913,2.3737,2.3221,2.2288,2.1561,2.0572,1.8812,1.8401,1.8146,1.7489,1.725,1.7242,1.7535,1.755,1.7822,1.8533,1.8605,1.8803,1.9256,1.9306,1.9306,1.9306,0.0,1.9306,1.9306,1.9306,1.9306,1.9306,1.9402,1.9565,1.9743,1.9808,1.9979,2.0279,2.0304,2.032,2.032,2.032,2.032,0.0,0.0,0.0,2.032,2.032,2.032,2.032,2.032,2.032,2.032,2.032,2.032,2.032,2.032,2.032,2.032,2.032,2.032,2.032,2.032,2.032,2.032,2.032,2.058,2.091,2.091,2.117,2.165,2.2754,2.3018,2.3299,2.4073,2.433,2.4153,2.3327,2.3178,2.3027,2.2604,2.253,2.253,2.253,2.2318,2.2131,2.1953,2.1806,2.174,2.1716,2.1756,2.1806,2.1953,2.2131,2.2318,2.2546,2.2659,2.2935,2.3336,2.3447,2.3528,2.3528,2.3528,2.3528,2.3528,2.3528,2.3528,2.3528,2.3528,2.3528,2.3728,2.4211,2.4494,2.386,2.3511,2.3308,2.3142,2.2852,2.232,2.1342,2.0615,1.986,1.8714,1.8035,1.76,1.742,1.7353,1.7624,1.8368,1.826,1.8368,1.9092,1.9157,1.9207,1.9306,1.9306,1.9306,0.0,0.0,1.9306,1.9306,1.9306,1.9306,1.9306,1.9338,1.9378,1.9549,1.9865,2.0104,2.0109,2.0247,2.032,2.032,2.032,2.032,0.0,0.0,2.032,2.032,2.032,2.032,2.032,2.032,2.032,2.032,2.032,2.032,2.032,2.032,2.032,2.032,2.032,2.032,2.032,2.032,2.032,2.032,2.032,2.058,2.091,2.091,2.117,2.1557,2.2261,2.2754,2.3246,2.3883,2.4438,2.4559,2.3746,2.3601,2.3384,2.2645,2.253,2.253,2.253,2.2318,2.2131,2.1953,2.1856,2.1831,2.174,2.1936,2.2131,2.2147,2.2318,2.2546,2.2675,2.2846,2.3122,2.3463,2.3512,2.3528,2.3528,2.3528,2.3528,2.3528,2.3528,2.3528,2.3528,2.3528,2.3528,2.3692,2.4057,2.4154,2.348,2.3271,2.2973,2.1866,2.16,2.1374,2.0649,2.0199,1.9675,1.8698,1.8052,1.7584,1.7275,1.7588,1.7962,1.8367,1.8471,1.8656,1.9224,1.9306,1.9306,1.9306,1.9306,1.9306,0.0,0.0,0.0,1.9306,1.9306,1.9306,1.9306,1.9306,1.9346,1.9378,1.9735,1.9963,2.012,2.0239,2.032,2.032,2.032,2.032,2.032,0.0,2.032,2.032,2.032,2.032,2.032,2.032,2.032,2.032,2.032,2.032,2.032,2.032,2.032,2.032,2.032,2.032,2.032,2.032,2.032,2.032,2.032,2.058,2.091,2.091,2.117,2.1557,2.2143,2.2699,2.3246,2.3892,2.4446,2.4686,2.3878,2.3678,2.3454,2.2645,2.253,2.2481,2.2342,2.2172,2.2017,2.1936,2.1847,2.1831,2.1936,2.2082,2.2237,2.2342,2.2424,2.2578,2.2846,2.3041,2.3252,2.3512,2.3528,2.3528,2.3528,2.3528,2.3528,2.3528,2.3528,2.3528,2.3528,2.3528,2.3528,2.3655,2.3929,2.3864,2.308,2.2864,2.243,2.0866,2.042,2.0233,1.9956,1.9497,1.901,1.8462,1.8022,1.7639,1.7276,1.7792,1.8262,1.8326,1.856,1.8899,1.9273,1.9306,1.9306,1.9306,1.9306,1.9306,0.0,0.0,0.0,1.9306,1.9306,1.9306,1.9306,1.9346,1.9346,1.9306,1.9705,1.9906,2.0003,2.0214,2.032,2.032,2.032,2.032,2.032,2.032,2.032,2.032,2.032,2.032,2.032,2.032,2.032,2.032,2.032,2.032,2.032,2.032,2.032,2.032,2.032,2.032,2.032,2.032,2.032,2.032,2.032,2.0547,2.0853,2.0893,2.117,2.1502,2.1996,2.2526,2.3073,2.3683,2.4283,2.4512,2.3928,2.3746,2.3493,2.276,2.2547,2.2407,2.2212,2.2042,2.188,2.188,2.1806,2.1855,2.2147,2.2237,2.2318,2.2506,2.253,2.2594,2.2911,2.3189,2.3341,2.3468,2.3528,2.3528,2.3528,2.3528,2.3528,2.3528,2.3528,2.3528,2.3528,2.3528,2.3528,2.3655,2.4303,2.4499,2.3126,2.2236,2.1531,2.0752,1.9481,1.8592,1.8925,1.7923,1.7213,1.7745,1.7745,1.7616,1.7566,1.8095,1.8509,1.8664,1.8874,1.9037,1.9281,1.9306,1.9306,1.9306,1.9306,0.0,0.0,0.0,0.0,1.9306,1.9306,1.9306,1.9306,1.941,1.9419,1.9314,1.9835,1.9963,1.9817,2.0158,2.032,2.032,2.032,2.032,2.032,2.032,2.032,2.032,2.032,2.032,2.032,2.032,2.032,2.032,2.032,2.032,2.032,2.032,2.032,2.032,2.032,2.032,2.032,2.032,2.032,2.032,2.032,2.0466,2.0653,2.0869,2.117,2.1384,2.1439,2.1932,2.2526,2.3073,2.3628,2.4083,2.4238,2.3946,2.3562,2.3138,2.276,2.2407,2.2212,2.2042,2.188,2.188,2.1912,2.1977,2.2172,2.24,2.2506,2.253,2.253,2.2553,2.2724,2.3065,2.3341,2.3468,2.3528,2.3528,2.3528,2.3528,2.3528,2.3528,2.3528,2.3528,2.3528,2.3528,2.3528,2.3655,2.3508,2.3167,2.2921,2.1609,2.031,2.0145,1.8791,1.7773,1.8335,1.7578,1.6933,1.7455,1.744,1.7445,1.7719,1.8176,1.8565,1.8696,1.8874,1.9053,1.9289,1.9306,1.9306,1.9306,1.9306,0.0,0.0,0.0,0.0,1.9306,1.9306,1.9306,1.9306,1.9371,1.9378,1.9419,1.9735,1.9914,1.9963,2.0206,2.032,2.032,2.032,2.032,2.032,2.032,2.032,2.032,2.032,2.032,2.032,2.032,2.032,2.032,2.032,2.032,2.032,2.032,2.032,2.032,2.032,2.032,2.032,2.032,2.032,2.032,2.032,2.045,2.0637,2.0861,2.1035,2.1254,2.136,2.1878,2.2371,2.2581,2.3364,2.3965,2.3769,2.3714,2.3562,2.3178,2.2653,2.2237,2.2066,2.1977,2.188,2.188,2.2017,2.2172,2.24,2.2424,2.253,2.253,2.253,2.2529,2.27,2.296,2.3171,2.3358,2.3463,2.3528,2.3528,2.3528,2.3528,2.3528,2.3528,2.3528,2.3528,2.3528,2.3528,2.3297,2.2884,2.2341,2.2449,2.1176,1.9869,1.9776,1.8448,1.7399,1.7819,1.7413,1.7024,1.7189,1.7349,1.754,1.787,1.8265,1.8582,1.8712,1.8923,1.9167,1.9297,1.9306,1.9306,1.9306,0.0,0.0,0.0,0.0,0.0,0.0,1.9306,1.9306,0.0,1.9363,1.937,1.9435,1.9727,1.9914,2.003,2.0206,2.032,2.032,2.032,2.032,2.032,2.032,2.032,2.032,2.032,2.032,2.032,2.032,2.032,2.032,2.032,2.032,2.032,2.032,2.032,2.032,2.032,2.032,2.032,2.032,2.032,2.032,2.032,2.0409,2.0547,2.0726,2.0954,2.1173,2.1343,2.1705,2.205,2.2261,2.3073,2.3673,2.3588,2.3774,2.3746,2.3384,2.2795,2.2301,2.1961,2.188,2.188,2.188,2.2082,2.2253,2.2506,2.253,2.253,2.253,2.253,2.2571,2.2635,2.2805,2.3,2.323,2.3341,2.3447,2.3447,2.3504,2.3528,2.3528,2.3528,2.3528,2.3528,2.3528,2.3528,2.247,2.2608,2.2423,2.1698,2.1049,2.0415,1.9726,1.8426,1.7345,1.7214,1.7312,1.7311,1.699,1.7437,1.7916,1.7916,1.8371,1.868,1.868,1.9037,1.9306,1.9306,1.9306,1.9306,1.9306,0.0,0.0,0.0,0.0,0.0,0.0,1.9306,1.9306,0.0,1.9419,1.9427,1.9314,1.9843,2.0022,1.9792,2.015,2.032,2.032,2.032,2.032,2.032,2.032,2.032,2.032,2.032,2.032,2.032,2.032,2.032,2.032,2.032,2.032,2.032,2.032,2.032,2.032,2.032,2.032,2.032,2.032,2.032,2.032,2.032,2.032,2.0361,2.0547,2.0856,2.1165,2.1343,2.1384,2.1557,2.2143,2.2699,2.3246,2.3892,2.4174,2.4162,2.3746,2.3221,2.2594,2.1993,2.188,2.188,2.1936,2.2082,2.2253,2.2506,2.253,2.253,2.253,2.253,2.253,2.253,2.2618,2.2805,2.3,2.3171,2.3312,2.3312,2.3422,2.3528,2.3528,2.3528,2.3528,2.3528,2.3528,2.3528,2.3297,2.2439,2.147,2.1738,2.0109,1.8472,1.8471,1.7677,1.6891,1.6799,1.6928,1.714,1.736,1.7478,1.7685,1.8056,1.8452,1.868,1.868,1.9037,1.9306,1.9306,1.9306,1.9306,1.9306,0.0,0.0,0.0,0.0,0.0,0.0,1.9306,0.0,0.0,1.9354,1.937,1.9435,1.9727,1.9906,1.9987,2.0214,2.032,2.032,2.032,2.032,2.032,2.032,2.032,2.032,2.032,2.032,2.032,2.032,2.032,2.032,2.032,2.032,2.032,2.032,2.032,2.032,2.032,2.032,2.032,2.032,2.032,2.032,2.032,2.032,2.0361,2.0547,2.0767,2.0978,2.1157,2.1295,2.1439,2.165,2.2143,2.2699,2.3246,2.3506,2.3654,2.369,2.3053,2.2486,2.2179,2.1961,2.2017,2.2277,2.2359,2.2407,2.2464,2.253,2.253,2.253,2.253,2.253,2.253,2.2571,2.2618,2.2805,2.2976,2.3189,2.3312,2.3317,2.3406,2.3528,2.3528,2.3528,2.3528,2.3528,2.3528,2.2248,2.1321,2.0262,2.0211,1.897,1.7678,1.7386,1.6991,1.6668,1.6667,1.6936,1.724,1.7549,1.7656,1.7803,1.8129,1.8485,1.868,1.868,1.9037,1.9306,1.9306,1.9306,1.9306,1.9306,0.0,0.0,0.0,0.0,0.0,0.0,1.9306,0.0,0.0,1.9306,1.9354,1.941,1.9662,1.9841,1.9963,2.0206,2.032,2.032,2.032,2.032,2.032,2.032,2.032,2.032,2.032,2.032,2.032,2.032,2.032,2.032,2.032,2.032,2.032,2.032,2.032,2.032,2.032,2.032,2.032,2.032,2.032,2.032,2.032,2.032,2.0344,2.0458,2.0621,2.0815,2.1067,2.1254,2.1384,2.1384,2.1878,2.2489,2.3018,2.3398,2.3714,2.3919,2.3491,2.2954,2.2494,2.222,2.2147,2.2481,2.253,2.253,2.253,2.253,2.253,2.253,2.253,2.253,2.253,2.253,2.2571,2.2618,2.2789,2.2935,2.3041,2.3165,2.3236,2.3422,2.3422,2.3463,2.3528,2.3528,2.3528,2.025,1.9764,1.9038,1.7939,1.7725,1.7572,1.6576,1.6462,1.6633,1.6793,1.7238,1.7603,1.7619,1.794,1.8223,1.8223,1.8485,1.868,1.868,1.9037,1.9306,1.9306,1.9306,1.9306,0.0,0.0,0.0,0.0,0.0,0.0,0.0,1.9306,0.0,1.9306,1.9306,1.9306,1.9306,1.9613,1.9792,0.0,2.015,2.032,2.032,2.032,2.032,2.032,2.032,2.032,2.032,2.032,2.032,2.032,2.032,2.032,2.032,2.032,2.032,2.032,2.032,2.032,2.032,2.032,2.032,2.032,2.032,2.032,2.032,2.032,2.032,2.032,2.032,2.0458,2.0677,2.1002,2.1222,2.136,2.1384,2.1823,2.2371,2.3018,2.351,2.4019,2.4238,2.4147,2.3717,2.2945,2.2495,2.2277,2.2506,2.253,2.253,2.253,2.253,2.253,2.253,2.253,2.253,2.253,2.253,2.253,2.253,2.2618,2.27,2.2724,2.2895,2.3065,2.3295,2.3295,2.3317,2.3427,2.3427,2.3427,2.153,2.0404,1.9082,1.8138,1.7176,1.646,1.653,1.6552,1.6674,1.699,1.7319,1.7643,1.7827,1.803,1.8223,1.8223,1.8485,1.868,1.868,1.9037,1.9306,1.9306,1.9306,1.9306,0.0,0.0,0.0,0.0,0.0,0.0,1.9306,1.9306,0.0,1.9306,1.9306,1.9306,1.9306,1.9613,1.9792,0.0,2.015,2.032,2.032,2.032,2.032,2.032,2.032,2.032,2.032,2.032,2.032,2.032,2.032,2.032,2.032,2.032,2.032,2.032,2.032,2.032,2.032,2.032,2.032,2.032,2.032,2.032,2.032,2.032,2.032,2.032,2.032,2.0458,2.0612,2.0694,2.0954,2.1222,2.136,2.1502,2.1878,2.29,2.3191,2.3527,2.4182,2.4147,2.3717,2.2945,2.2603,2.2424,2.2464,2.253,2.253,2.253,2.253,2.253,2.253,2.253,2.253,2.253,2.253,2.253,2.253,2.2513,2.2594,2.2724,2.2765,2.287,2.3065,2.3065,2.3081,2.3106,2.3106,2.3106,2.0948,1.9835,1.8705,1.7355,1.6534,1.6096,1.6503,1.6584,1.6706,1.7153,1.7408,1.7651,1.7838,1.8062,1.8223,1.8223,1.8412,1.8623,1.8712,1.8956,1.9208,1.9297,1.9306,0.0,0.0,0.0,0.0,0.0,0.0,1.9306,1.9306,1.9306,1.9306,1.9306,1.9306,1.9306,1.9306,1.9613,1.9792,1.9792,2.015,2.032,2.032,2.032,2.032,2.032,2.032,2.032,2.032,2.032,2.032,2.032,2.032,2.032,2.032,2.032,2.032,2.032,2.032,2.032,2.032,2.032,2.032,2.032,2.032,2.032,2.032,2.032,2.032,2.032,2.032,2.0393,2.0483,2.0572,2.0872,2.1148,2.1238,2.1319,2.176,2.2872,2.3073,2.3445,2.4421,2.433,2.3926,2.3298,2.2959,2.2719,2.2506,2.253,2.253,2.253,2.253,2.253,2.253,2.253,2.253,2.253,2.253,2.253,2.253,2.253,2.2513,2.2594,2.2594,2.2683,2.287,2.287,2.2911,2.3,2.3,2.3,2.019,1.9184,1.8164,1.641,1.6007,1.6096,1.6503,1.6584,1.673,1.7274,1.7526,1.7651,1.7838,1.8062,1.8223,1.8223,1.8377,1.8565,1.8696,1.8874,1.9053,1.9289,1.9306,0.0,0.0,0.0,0.0,0.0,0.0,1.9306,1.9306,1.9306,1.9306,1.9306,1.9306,1.9306,1.9306,1.9581,1.976,1.9792,2.015,2.032,2.032,2.032,2.032,2.032,2.032,2.032,2.032,2.032,2.032,2.032,2.032,2.032,2.032,2.032,2.032,2.032,2.032,2.032,2.032,2.032,2.032,2.032,2.032,2.032,2.032,2.032,2.032,2.032,2.032,2.032,2.0361,2.0515,2.0799,2.1051,2.1116,2.1254,2.176,2.2872,2.3246,2.3746,2.4719,2.4559,2.4153,2.3746,2.3384,2.2946,2.2563,2.253,2.253,2.253,2.253,2.253,2.253,2.253,2.253,2.253,2.253,2.253,2.253,2.253,2.253,2.253,2.253,2.2529,2.2675,2.2675,2.2765,2.2911,2.2911,2.2911,2.1728,1.9866,1.7764,1.6328,1.6007,1.6096,1.6503,1.6584,1.673,1.7274,1.7526,1.7651,1.7838,1.8062,1.8223,1.8223,1.8377,1.8565,1.8696,1.8874,1.9053,1.9289,1.9306,0.0,0.0,0.0,0.0,0.0,1.9306,1.9306,1.9306,1.9306,1.9306,1.9306,1.9306,1.9306,1.9306,1.9451,1.963,1.9792,2.015,2.032,2.032,2.032,2.032,2.032,2.032,2.032,2.032,2.032,2.032,2.032,2.032,2.032,2.032,2.032,2.032,2.032,2.032,2.032,2.032,2.032,2.032,2.032,2.032,2.032,2.032,2.032,2.032,2.032,2.032,2.032,2.0328,2.0353,2.0515,2.0751,2.1059,2.1254,2.176,2.2872,2.3947,2.4719,2.4882,2.4559,2.4153,2.3746,2.3384,2.2946,2.2563,2.253,2.253,2.253,2.253,2.253,2.253,2.253,2.253,2.253,2.253,2.253,2.253,2.253,2.253,2.253,2.253,2.2489,2.2513,2.2513,2.2571,2.2587,2.2587,2.2587,2.1243,1.9572,1.7951,1.6369,1.6007,1.6072,1.6365,1.6503,1.6682,1.7015,1.7335,1.7651,1.7838,1.8062,1.8223,1.8223,1.8288,1.8395,1.8688,1.8793,1.8939,1.9273,1.9306,0.0,0.0,0.0,0.0,0.0,1.9306,1.9306,1.9306,1.9306,1.9306,1.9306,1.9306,1.9306,1.9306,1.9427,1.9654,1.999,2.0198,2.032,2.032,2.032,2.032,2.032,2.032,2.032,2.032,2.032,2.032,2.032,2.032,2.032,2.032,2.032,2.032,2.032,2.032,2.032,2.032,2.032,2.032,2.032,2.032,2.032,2.032,2.032,2.032,2.032,2.032,2.032,2.032,2.032,2.0466,2.0637,2.0799,2.1051,2.1598,2.2846,2.4065,2.4882,2.4882,2.4749,2.4422,2.3802,2.3532,2.3234,2.2604,2.253,2.253,2.253,2.253,2.253,2.253,2.253,2.253,2.253,2.253,2.253,2.253,2.253,2.253,2.253,2.253,2.253,2.253,2.253,2.253,2.253,2.253,2.253,2.1105,1.9855,1.8762,1.694,1.6394,1.6245,1.6207,1.6394,1.6633,1.6768,1.7198,1.7587,1.7765,1.803,1.8223,1.8223,1.8223,1.829,1.8615,1.8696,1.8842,1.92,0.0,0.0,0.0,0.0,0.0,0.0,1.9306,1.9306,1.9306,1.9306,1.9306,1.9306,1.9306,1.9306,1.9306,1.9475,1.9719,2.0038,2.0214,2.032,2.032,2.032,2.032,2.032,2.032,2.032,2.032,2.032,2.032,2.032,2.032,2.032,2.032,2.032,2.032,2.032,2.032,2.032,2.032,2.032,2.032,2.032,2.032,2.032,2.032,2.032,2.032,2.032,2.032,2.032,2.032,2.032,2.0426,2.0564,2.0702,2.1152,2.1879,2.2883,2.4065,2.4882,2.4882,2.4882,2.4686,2.3946,2.3746,2.3454,2.276,2.2547,2.253,2.253,2.253,2.253,2.253,2.253,2.253,2.253,2.253,2.253,2.253,2.253,2.253,2.253,2.253,2.253,2.253,2.253,2.253,2.253,2.253,2.253,2.2452,2.1495,2.0311,1.8385,1.7423,1.676,1.6095,1.627,1.6633,1.6768,1.7145,1.7453,1.7578,1.794,1.8223,1.8223,1.8223,1.8288,1.8483,1.8615,1.8793,1.8972,0.0,0.0,0.0,0.0,0.0,0.0,1.9306,1.9306,1.9306,1.9306,1.9306,1.9306,1.9306,1.9306,1.9306,1.9605,1.9784,1.9808,2.0158,2.032,2.032,2.032,2.032,2.032,2.032,2.032,2.032,2.032,2.032,2.032,2.032,2.032,2.032,2.032,2.032,2.032,2.032,2.032,2.032,2.032,2.032,2.032,2.032,2.032,2.032,2.032,2.032,2.032,2.032,2.032,2.032,2.032,2.0328,2.0474,2.0932,2.1982,2.2854,2.3084,2.4065,2.4882,2.4882,2.4882,2.4749,2.4357,2.3946,2.3532,2.3098,2.276,2.253,2.253,2.253,2.253,2.253,2.253,2.253,2.253,2.253,2.253,2.253,2.253,2.253,2.253,2.253,2.253,2.253,2.253,2.253,2.253,2.253,2.253,2.2841,2.2171,2.1271,1.939,1.8042,1.7095,1.6708,1.6368,1.6252,1.6623,1.6966,1.7299,1.7546,1.7797,1.8046,1.816,1.8223,1.8288,1.8475,1.8606,1.8785,1.8964,0.0,0.0,0.0,0.0,0.0,0.0,0.0,1.9306,1.9306,1.9306,1.9306,1.9306,1.9306,1.9306,1.9306,1.9492,1.967,1.9792,2.0044,2.0214,2.032,2.032,2.032,2.032,2.032,2.032,2.032,2.032,2.032,2.032,2.032,2.032,2.032,2.032,2.032,2.032,2.032,2.032,2.032,2.032,2.032,2.032,2.032,2.032,2.032,2.032,2.032,2.032,2.032,2.032,2.032,2.032,2.032,2.0401,2.0718,2.1875,2.2971,2.3084,2.4065,2.4882,2.4882,2.4882,2.4686,2.4021,2.3802,2.3454,2.2801,2.2604,2.2349,2.1887,2.225,2.2349,2.1887,2.2225,2.253,2.253,2.253,2.253,2.253,2.253,2.253,2.253,2.253,2.253,2.253,2.253,2.253,2.253,2.253,2.253,2.3631,2.309,2.2305,2.0702,1.9259,1.8115,1.7357,1.6739,1.6422,1.6615,1.686,1.7092,1.7494,1.766,1.79,1.8182,1.8223,1.8263,1.8385,1.8517,1.8696,1.8874,0.0,0.0,0.0,0.0,0.0,0.0,0.0,0.0,1.9306,1.9306,1.9306,1.9306,1.9306,1.9306,1.9306,1.9427,1.9573,1.9703,1.9946,2.0125,2.0239,2.0296,2.032,2.032,2.032,2.032,2.032,2.032,2.032,2.032,2.032,2.032,2.032,2.032,2.032,2.032,2.032,2.032,2.032,2.032,2.032,2.032,2.032,2.032,2.032,2.032,2.032,2.032,2.032,2.032,2.032,2.032,2.032,2.0369,2.0556,2.1571,2.2596,2.295,2.3856,2.4664,2.4882,2.4882,2.4722,2.4162,2.3878,2.3493,2.2954,2.2678,2.225,2.1549,2.1887,2.2003,2.1549,2.1887,2.2283,2.2464,2.253,2.253,2.253,2.253,2.253,2.253,2.253,2.253,2.253,2.253,2.253,2.253,2.253,2.253,0.0,0.0,0.0,2.2342,2.1206,1.9847,1.7992,1.7468,1.7273,1.6898,1.6809,1.6958,1.7315,1.7518,1.7754,1.8111,1.8214,1.8223,1.8223,1.8385,1.8565,1.8696,0.0,0.0,0.0,0.0,0.0,0.0,1.9306,1.9306,1.9306,1.9306,1.9306,1.9306,1.9306,1.9306,1.9306,1.9419,1.9508,1.9516,1.9873,2.0112,2.0128,2.0239,2.0312,2.032,2.032,2.032,2.032,2.032,2.032,2.032,2.032,2.032,2.032,2.032,2.032,2.032,2.032,2.032,2.032,2.032,2.032,2.032,2.032,2.032,2.032,2.032,2.032,2.032,2.032,2.032,2.032,2.032,2.032,2.0369,2.0547,2.1143,2.1914,2.2766,2.3494,2.4165,2.4773,2.4882,2.4882,2.4891,2.4191,2.3678,2.3678,2.2986,2.225,2.1549,2.1483,2.1483,2.1426,2.1483,2.1764,2.2407,2.2464,2.253,2.253,2.253,2.253,2.253,2.253,2.253,2.253,2.253,2.253,2.253,2.253,2.253,2.5138,0.0,0.0,0.0,0.0,0.0,1.9833,1.8986,1.8196,1.7349,1.7227,1.7264,1.7189,1.7339,1.7575,1.7932,1.8095,1.8223,1.8223,1.8385,1.8516,1.8573,0.0,0.0,0.0,0.0,0.0,0.0,1.9306,1.9306,1.9306,1.9306,1.9306,1.9306,1.9306,1.9306,1.9306,1.9354,1.9386,1.9516,1.9613,1.9808,2.012,2.0117,2.0206,2.032,2.032,2.032,2.032,2.032,2.032,2.032,2.032,2.032,2.032,2.032,2.032,2.032,2.032,2.032,2.032,2.032,2.032,2.032,2.032,2.032,2.032,2.032,2.032,2.032,2.032,2.032,2.032,2.032,2.032,2.0336,2.0385,2.0645,2.1291,2.2632,2.3386,2.4009,2.4745,2.4882,2.482,2.4495,2.4021,2.3601,2.3288,2.2833,2.2068,2.0963,2.1245,2.1144,2.0262,2.1021,2.1607,2.1764,2.225,2.253,2.253,2.253,2.253,2.253,2.253,2.253,2.253,2.253,2.253,2.253,2.253,2.253,0.0,2.5112,2.4731,2.4415,0.0,0.0,2.0819,1.9947,1.9081,1.7691,1.7459,1.7526,1.754,1.7651,1.7811,1.8199,1.8313,1.8319,1.8206,1.8312,1.841,1.8491,0.0,0.0,0.0,1.92,1.9306,1.9306,1.9306,1.9306,1.9306,1.9306,1.9306,1.9306,1.9306,1.9306,1.9306,1.9306,1.9363,1.941,1.9475,1.9662,2.0006,2.0079,2.0158,2.032,2.032,2.032,2.032,2.032,2.032,2.032,2.032,2.032,2.032,2.032,2.032,2.032,2.032,2.032,2.032,2.032,2.032,2.032,2.032,2.032,2.032,2.032,2.032,2.032,2.032,2.032,2.032,2.032,2.032,2.032,2.032,2.0401,2.0827,2.2077,2.2696,2.3215,2.3928,2.4336,2.4438,2.4229,2.4043,2.3878,2.3639,2.3274,2.2555,2.1367,2.1547,2.1283,2.0146,2.0963,2.1483,2.1483,2.2126,2.253,2.253,2.253,2.253,2.253,2.253,2.253,2.253,2.253,2.253,2.253,2.253,2.253,0.0,0.0,0.0,0.0,2.4446,0.0,2.1488,2.0829,2.0176,1.8225,1.7854,1.7897,1.8173,1.8164,1.8298,1.8778,1.8688,1.8513,1.8305,1.8206,1.828,1.8451,0.0,0.0,1.8939,1.9167,1.9289,1.9306,1.9306,1.9306,1.9306,1.9306,1.9306,1.9306,1.9306,1.9306,1.9306,1.9306,1.9306,1.9314,1.941,1.9589,1.9792,2.0014,2.0141,2.032,2.032,2.032,2.032,2.032,2.032,2.032,2.032,2.032,2.032,2.032,2.032,2.032,2.032,2.032,2.032,2.032,2.032,2.032,2.032,2.032,2.032,2.032,2.032,2.032,2.032,2.032,2.032,2.032,2.032,2.032,2.032,2.032,2.0526,2.1216,2.1748,2.221,2.2874,2.3575,2.4083,2.4083,2.4174,2.432,2.432,2.3946,2.3289,2.2229,2.2074,2.1682,2.0702,2.1129,2.1483,2.1483,2.2126,2.253,2.253,2.253,2.253,2.253,2.253,2.253,2.253,2.253,2.253,2.253,2.253,2.253,0.0,0.0,0.0,0.0,0.0,0.0,2.3621,2.3374,2.2686,2.0271,1.9895,1.9606,1.8414,1.8322,1.854,1.898,1.8873,1.8718,1.8559,1.8365,1.8184,0.0,0.0,0.0,1.8761,1.8931,1.9143,1.9297,1.9306,1.9306,1.9306,1.9306,1.9306,1.9306,1.9306,1.9306,1.9306,1.9306,1.9306,1.9306,1.9346,1.9475,1.9792,1.9825,2.002,2.032,2.032,2.032,2.032,2.032,2.032,2.032,2.032,2.032,2.032,2.032,2.032,2.032,2.032,2.032,2.032,2.032,2.032,2.032,2.032,2.032,2.032,2.032,2.032,2.032,2.032,2.032,2.032,2.032,2.032,2.032,2.032,2.032,2.0328,2.0526,2.1443,2.2495,2.3178,2.3958,2.4484,2.4484,2.4366,2.432,2.432,2.3946,2.3289,2.2229,2.2074,2.1682,2.0702,2.1129,2.1483,2.1483,2.2126,2.253,2.253,2.253,2.253,2.253,2.253,2.253,2.253,2.253,2.253,2.253,2.253,2.253,0.0,0.0,0.0,2.5198,0.0,0.0,0.0,2.3923,2.3512,2.1426,2.0786,2.039,1.9714,1.9198,1.8971,1.9443,1.9293,1.9133,1.9068,1.8883,1.8694,0.0,0.0,0.0,1.9297,1.9465,1.9554,1.9494,1.9405,1.9306,1.9306,1.9306,1.9306,1.9306,1.9306,1.9306,1.9306,1.9306,1.9306,1.9306,1.9306,1.9394,1.9654,1.9743,1.9938,2.0198,2.0288,2.032,2.032,2.032,2.032,2.032,2.032,2.032,2.032,2.032,2.032,2.032,2.032,2.032,2.032,2.032,2.032,2.0372,2.0685,2.0737,2.0737,2.0737,2.0529,2.032,2.032,2.032,2.032,2.032,2.032,2.032,2.032,2.032,2.032,2.032,2.1073,2.1829,2.1966,2.3107,2.3884,2.3617,2.4006,2.4335,2.4446,2.4275,2.3906,2.3298,2.3016,2.2464,2.1443,2.1725,2.1887,2.1541,2.2126,2.253,2.253,2.253,2.253,2.253,2.253,2.253,2.253,2.253,2.253,2.253,2.253,2.253,0.0,0.0,0.0,0.0,0.0,2.5276,0.0,0.0,0.0,2.247,2.1548,2.1015,2.1059,2.0091,0.0,0.0,0.0,0.0,0.0,1.9563,0.0,0.0,0.0,0.0,1.9908,2.0119,2.008,1.9742,1.9544,1.9404,1.9306,1.9306,1.9306,1.9306,1.9306,1.9306,1.9306,1.9306,1.9306,1.9306,1.9306,1.9345,1.9516,1.9703,1.989,2.0128,2.0247,2.032,2.032,2.032,2.032,2.032,2.032,2.032,2.032,2.032,2.032,2.032,2.032,2.032,2.032,2.032,2.0372,2.0581,2.1049,2.1206,2.1206,2.1049,2.0685,2.032,2.032,2.032,2.032,2.032,2.032,2.032,2.032,2.032,2.032,2.032,2.0789,2.11,2.0778,2.2116,2.3088,2.277,2.3443,2.4112,2.4504,2.4362,2.4233,2.4211,2.3763,2.3125,2.2285,2.24,2.2283,2.173,2.2184,2.253,2.253,2.253,2.253,2.253,2.253,2.253,2.253,2.253,2.253,2.253,2.253,2.253,0.0,0.0,0.0,0.0,2.5953,0.0,0.0,0.0,2.5495,2.4104,0.0,0.0,0.0,0.0,0.0,0.0,0.0,0.0,1.9541,2.0029,0.0,0.0,0.0,0.0,0.0,2.025,2.0276,1.975,1.983,1.975,1.9306,1.9306,1.9306,1.9306,1.9306,1.9306,1.9306,1.9306,1.9306,1.9306,1.9306,1.9345,1.9516,1.9703,1.989,2.0128,2.0247,2.032,2.032,2.032,2.032,2.032,2.032,2.032,2.032,2.032,2.032,2.032,2.032,2.032,2.032,2.032,2.0685,2.1101,2.1206,2.1206,2.1101,2.0529,2.0372,2.032,2.032,2.032,2.032,2.032,2.032,2.032,2.032,2.032,2.032,2.032,2.0789,2.1214,2.1127,2.1864,2.2574,2.2995,2.2875,2.3151,2.419,2.3445,2.3054,2.371,2.3077,2.2658,2.274,2.2555,2.2464,2.2407,2.2464,2.253,2.253,2.253,2.253,2.253,2.253,2.253,2.253,2.253,2.253,2.253,2.253,2.253,0.0,0.0,0.0,0.0,0.0,0.0,0.0,0.0,2.6358,0.0,0.0,0.0,0.0,0.0,0.0,0.0,1.9977,0.0,0.0,0.0,0.0,0.0,0.0,0.0,0.0,0.0,0.0,0.0,2.0225,2.0271,2.0185,2.0185,2.0038,1.9701,1.9701,1.9602,1.9306,1.9306,1.9306,1.9306,1.9306,1.9495,1.9767,1.9805,2.0036,2.0382,2.0354,2.032,2.032,2.032,2.032,2.032,2.032,2.032,2.032,2.032,2.032,2.0372,2.0685,2.0841,2.0893,2.1206,2.1665,2.2132,2.2132,2.1925,2.1622,2.1353,2.0789,2.032,2.032,2.032,2.032,2.032,2.032,2.032,2.032,2.032,2.032,2.032,2.0476,2.0685,2.0685,2.1474,2.2108,2.2004,2.2118,2.2477,2.3068,2.2716,2.2575,2.3037,2.2913,2.2735,2.2506,2.2712,2.2719,2.2359,2.2465,2.253,2.253,2.253,2.253,2.253,2.253,2.253,2.253,2.253,2.253,2.253,2.253,2.253,2.6302,0.0,0.0,0.0,0.0,0.0,0.0,0.0,0.0,0.0,0.0,0.0,0.0,0.0,0.0,0.0,0.0,0.0,0.0,0.0,0.0,0.0,0.0,0.0,0.0,0.0,0.0,0.0,0.0,2.0721,2.0817,2.0826,2.053,2.0038,1.9988,1.9791,1.9306,1.9306,1.9306,1.9306,1.9306,1.9503,1.9808,1.9773,1.9995,2.0367,2.0321,2.032,2.032,2.032,2.032,2.032,2.032,2.0424,2.0529,2.0529,2.0529,2.0633,2.1206,2.1414,2.1518,2.2029,2.2495,2.2806,2.2806,2.2547,2.2132,2.1873,2.1206,2.0529,2.032,2.032,2.032,2.032,2.032,2.032,2.032,2.032,2.032,2.032,2.032,2.032,2.032,2.0997,2.1466,2.1258,2.1414,2.1717,2.2179,2.1934,2.1934,2.2381,2.2632,2.2621,2.2248,2.2701,2.2764,2.2253,2.2318,2.2424,2.253,2.253,2.253,2.253,2.253,2.253,2.253,2.253,2.253,2.253,2.253,2.253,0.0,0.0,0.0,2.6765,0.0,0.0,0.0,0.0,2.6541,0.0,0.0,0.0,0.0,0.0,0.0,0.0,0.0,0.0,0.0,0.0,0.0,0.0,0.0,0.0,0.0,0.0,0.0,0.0,0.0,0.0,2.0817,2.0826,2.053,2.0038,1.9988,1.9791,1.9306,1.9306,1.9306,1.9306,1.9306,1.9306,1.9322,1.963,1.9792,1.9859,2.0166,2.032,2.032,2.032,2.032,2.032,2.032,2.0685,2.1154,2.1154,2.1154,2.1258,2.1769,2.1977,2.208,2.2599,2.2806,2.2806,2.2806,2.2806,2.2547,2.1518,2.1206,2.1049,2.0424,2.032,2.032,2.032,2.032,2.032,2.032,2.032,2.032,2.032,2.032,2.032,2.032,2.032,2.0529,2.1101,2.0737,2.0737,2.1882,2.1058,2.0797,2.1899,2.2042,2.2053,2.1999,2.2523,2.263,2.2229,2.2188,2.2277,2.2464,2.253,2.253,2.253,2.253,2.253,2.253,2.253,2.253,2.253,2.253,2.253,0.0,0.0,2.2963,2.5564,0.0,0.0,0.0,0.0,0.0,0.0,0.0,0.0,0.0,0.0,0.0,0.0,0.0,0.0,0.0,0.0,0.0,0.0,0.0,0.0,0.0,0.0,0.0,0.0,2.0867,0.0,0.0,2.1443,2.1403,2.1071,2.0727,2.0284,1.975,1.9454,1.9454,1.975,1.9454,1.9651,2.0301,1.9924,1.9987,2.0316,2.0321,2.032,2.032,2.0737,2.0893,2.0945,2.131,2.157,2.1674,2.131,2.1414,2.183,2.234,2.2755,2.3065,2.3272,2.3324,2.3324,2.3324,2.3065,2.2651,2.1925,2.1466,2.1049,2.0476,2.032,2.032,2.032,2.032,2.032,2.032,2.032,2.032,2.032,2.032,2.032,2.032,2.032,2.0372,2.0581,2.0424,2.0424,2.0841,2.0529,2.0526,2.1016,2.1884,2.2124,2.1441,2.1837,2.2063,2.2001,2.2131,2.2212,2.2277,2.2407,2.253,2.253,2.253,2.253,2.253,2.253,2.253,2.253,2.253,2.253,2.2646,2.1864,0.0,2.4233,2.3882,0.0,2.6436,0.0,0.0,0.0,0.0,0.0,0.0,0.0,0.0,0.0,0.0,0.0,0.0,0.0,0.0,0.0,0.0,0.0,0.0,0.0,0.0,2.0565,2.0751,0.0,0.0,0.0,2.1677,2.1425,2.1205,2.0727,1.9988,1.9898,1.9898,1.9988,1.9898,2.0087,2.049,2.0225,2.019,2.0316,2.0321,2.032,2.0372,2.0945,2.1206,2.1258,2.1769,2.2132,2.2236,2.1882,2.2132,2.2599,2.2962,2.3324,2.3583,2.3583,2.3583,2.3583,2.3583,2.3376,2.2938,2.2353,2.1821,2.1335,2.0684,2.0418,2.032,2.032,2.032,2.032,2.032,2.032,2.032,2.032,2.0476,2.0633,2.0633,2.0633,2.0529,2.032,2.032,2.0372,2.0581,2.0424,2.055,2.1152,2.2018,2.2394,2.1849,2.1653,2.1636,2.1831,2.2001,2.2131,2.2188,2.2359,2.2529,2.2659,2.2529,2.2529,2.2659,2.2529,2.253,2.253,2.253,2.253]},{"header":{"parameterUnit":"m.s-1","parameterCategory":1,"la1":30.6,"la2":29.2853,"lo1":-89.7004,"lo2":-87.6739,"dy":0.0162,"dx":0.0183,"nx":112,"ny":82,"refTime":"2023-04-07T18:00:00:Z","depth":0,"parameterNumber":3,"parameterNumberName":"V-component_of_WINDS"},"data":[0.0,0.0,0.0,0.0,0.0,0.0,0.0,0.0,0.0,0.0,0.0,0.0,0.0,0.0,0.0,0.0,0.0,0.0,0.0,0.0,0.0,0.0,0.0,0.0,0.0,0.0,0.0,0.0,0.0,0.0,0.0,0.0,0.0,0.0,0.0,0.0,0.0,0.0,0.0,0.0,0.0,0.0,0.0,0.0,0.0,0.0,0.0,0.0,0.0,0.0,0.0,0.0,0.0,0.0,0.0,0.0,0.0,0.0,0.0,0.0,0.0,0.0,0.0,0.0,0.0,0.0,0.0,0.0,0.0,0.0,0.0,0.0,0.0,0.0,0.0,0.0,0.0,0.0,0.0,0.0,0.0,0.0,0.0,0.0,0.0,0.0,0.0,0.0,0.0,0.0,0.0,5.7997,5.7997,5.7997,5.7997,5.7997,5.7997,5.7997,0.0,0.0,0.0,0.0,0.0,0.0,0.0,0.0,0.0,0.0,0.0,0.0,0.0,0.0,0.0,0.0,0.0,0.0,0.0,0.0,0.0,0.0,0.0,0.0,0.0,0.0,0.0,0.0,0.0,0.0,0.0,0.0,0.0,0.0,0.0,0.0,0.0,0.0,0.0,0.0,0.0,0.0,0.0,0.0,0.0,0.0,0.0,0.0,0.0,0.0,0.0,0.0,0.0,0.0,0.0,0.0,0.0,0.0,0.0,0.0,0.0,0.0,0.0,0.0,0.0,0.0,0.0,0.0,0.0,0.0,0.0,0.0,0.0,0.0,0.0,0.0,0.0,0.0,0.0,0.0,0.0,0.0,0.0,0.0,0.0,0.0,0.0,0.0,0.0,0.0,0.0,0.0,0.0,0.0,0.0,0.0,0.0,0.0,0.0,0.0,0.0,0.0,0.0,0.0,5.7997,5.7997,5.7997,5.7997,5.7997,5.7997,5.7997,5.7997,0.0,0.0,0.0,0.0,0.0,0.0,0.0,0.0,0.0,0.0,0.0,0.0,0.0,0.0,0.0,0.0,0.0,0.0,0.0,0.0,0.0,0.0,0.0,0.0,0.0,0.0,0.0,0.0,0.0,0.0,0.0,0.0,0.0,0.0,0.0,0.0,0.0,0.0,0.0,0.0,0.0,0.0,0.0,0.0,0.0,0.0,0.0,0.0,0.0,0.0,0.0,0.0,0.0,0.0,0.0,0.0,0.0,0.0,0.0,0.0,0.0,0.0,0.0,0.0,0.0,0.0,0.0,0.0,0.0,0.0,0.0,0.0,0.0,0.0,0.0,0.0,0.0,0.0,0.0,0.0,0.0,0.0,0.0,0.0,0.0,0.0,0.0,0.0,0.0,0.0,0.0,0.0,0.0,0.0,0.0,0.0,0.0,0.0,0.0,0.0,0.0,0.0,0.0,5.7997,5.7997,5.7997,5.7997,5.7997,5.7997,5.7997,5.7997,5.7997,5.7997,0.0,0.0,0.0,0.0,0.0,0.0,0.0,0.0,0.0,0.0,0.0,0.0,0.0,0.0,0.0,0.0,0.0,0.0,0.0,0.0,0.0,0.0,0.0,0.0,0.0,0.0,0.0,0.0,0.0,0.0,0.0,0.0,0.0,0.0,0.0,0.0,0.0,0.0,0.0,0.0,0.0,0.0,0.0,0.0,0.0,0.0,0.0,0.0,0.0,0.0,0.0,0.0,0.0,0.0,0.0,0.0,0.0,0.0,0.0,0.0,0.0,0.0,0.0,0.0,0.0,0.0,0.0,0.0,0.0,0.0,0.0,0.0,0.0,0.0,0.0,0.0,0.0,0.0,0.0,0.0,0.0,0.0,0.0,0.0,0.0,0.0,0.0,0.0,0.0,0.0,0.0,0.0,0.0,0.0,0.0,0.0,0.0,0.0,0.0,0.0,0.0,0.0,5.7997,5.807,5.8253,5.829,5.8364,5.8547,5.8584,5.8584,5.8584,5.8584,0.0,0.0,0.0,0.0,0.0,0.0,0.0,0.0,0.0,0.0,0.0,0.0,0.0,0.0,0.0,0.0,0.0,0.0,0.0,0.0,0.0,0.0,0.0,0.0,0.0,0.0,0.0,0.0,0.0,0.0,0.0,0.0,0.0,0.0,0.0,0.0,0.0,0.0,0.0,0.0,0.0,0.0,0.0,0.0,0.0,0.0,0.0,0.0,0.0,0.0,0.0,0.0,0.0,0.0,0.0,0.0,0.0,0.0,0.0,0.0,0.0,0.0,0.0,0.0,0.0,0.0,0.0,0.0,0.0,0.0,0.0,0.0,0.0,0.0,0.0,0.0,0.0,0.0,0.0,0.0,0.0,0.0,0.0,0.0,0.0,0.0,0.0,0.0,0.0,0.0,0.0,0.0,0.0,0.0,0.0,0.0,0.0,0.0,0.0,0.0,0.0,0.0,5.7997,5.829,5.9049,5.9123,5.9416,6.015,6.0236,6.0236,6.0236,6.0236,0.0,0.0,0.0,0.0,0.0,0.0,0.0,0.0,0.0,0.0,0.0,0.0,0.0,0.0,0.0,0.0,0.0,0.0,0.0,0.0,0.0,0.0,0.0,0.0,0.0,0.0,0.0,0.0,0.0,0.0,0.0,0.0,0.0,0.0,0.0,0.0,0.0,0.0,0.0,0.0,0.0,0.0,0.0,0.0,0.0,0.0,0.0,0.0,0.0,0.0,0.0,0.0,0.0,0.0,0.0,0.0,0.0,0.0,0.0,0.0,0.0,0.0,0.0,0.0,0.0,0.0,0.0,0.0,0.0,0.0,0.0,0.0,0.0,0.0,0.0,0.0,0.0,0.0,0.0,0.0,0.0,0.0,0.0,0.0,0.0,0.0,0.0,0.0,0.0,0.0,0.0,0.0,0.0,0.0,0.0,0.0,0.0,0.0,0.0,0.0,0.0,0.0,5.9208,5.9612,0.0,5.993,6.0077,6.0382,6.0419,6.0419,6.0419,0.0,0.0,0.0,0.0,0.0,0.0,0.0,0.0,0.0,0.0,0.0,0.0,0.0,0.0,0.0,0.0,0.0,0.0,0.0,0.0,0.0,0.0,0.0,0.0,0.0,0.0,0.0,0.0,0.0,0.0,0.0,0.0,0.0,0.0,0.0,0.0,0.0,0.0,0.0,0.0,0.0,0.0,0.0,0.0,0.0,0.0,0.0,0.0,0.0,0.0,0.0,0.0,0.0,0.0,0.0,0.0,0.0,0.0,0.0,0.0,0.0,0.0,0.0,0.0,0.0,0.0,0.0,0.0,0.0,0.0,0.0,0.0,0.0,0.0,0.0,0.0,0.0,0.0,0.0,0.0,0.0,0.0,0.0,0.0,0.0,0.0,0.0,0.0,0.0,0.0,0.0,0.0,0.0,0.0,0.0,0.0,0.0,0.0,0.0,0.0,0.0,0.0,5.96,6.004,6.0493,0.0,6.0786,6.0896,6.1141,6.1141,6.1141,6.1141,0.0,0.0,0.0,0.0,0.0,0.0,0.0,0.0,0.0,0.0,0.0,0.0,0.0,0.0,0.0,0.0,0.0,0.0,0.0,0.0,0.0,0.0,0.0,0.0,0.0,0.0,0.0,0.0,0.0,0.0,0.0,0.0,0.0,0.0,0.0,0.0,0.0,0.0,0.0,0.0,0.0,0.0,0.0,0.0,0.0,0.0,0.0,0.0,0.0,0.0,0.0,0.0,0.0,0.0,0.0,0.0,0.0,0.0,0.0,0.0,0.0,0.0,0.0,0.0,0.0,0.0,0.0,0.0,0.0,0.0,0.0,0.0,0.0,0.0,0.0,0.0,0.0,0.0,0.0,0.0,0.0,0.0,0.0,0.0,0.0,0.0,0.0,0.0,0.0,0.0,0.0,0.0,0.0,0.0,0.0,0.0,0.0,0.0,0.0,0.0,0.0,0.0,6.0419,6.0419,6.075,6.152,6.1643,6.1961,6.2756,6.2829,6.2829,0.0,0.0,0.0,0.0,0.0,0.0,0.0,0.0,0.0,0.0,0.0,0.0,0.0,0.0,0.0,0.0,0.0,0.0,0.0,0.0,0.0,0.0,0.0,0.0,0.0,0.0,0.0,0.0,0.0,0.0,0.0,0.0,0.0,0.0,0.0,0.0,0.0,0.0,0.0,0.0,0.0,0.0,0.0,0.0,0.0,0.0,0.0,0.0,0.0,0.0,0.0,0.0,0.0,0.0,0.0,0.0,0.0,0.0,0.0,0.0,0.0,0.0,0.0,0.0,0.0,0.0,0.0,0.0,0.0,0.0,0.0,0.0,0.0,0.0,0.0,0.0,0.0,0.0,0.0,0.0,0.0,0.0,0.0,0.0,0.0,0.0,0.0,0.0,0.0,0.0,0.0,0.0,0.0,0.0,0.0,0.0,0.0,0.0,0.0,0.0,0.0,0.0,0.0,6.1263,6.2291,6.3099,6.3332,6.387,6.4297,6.4554,6.4554,6.4554,6.4554,0.0,0.0,0.0,0.0,0.0,0.0,0.0,0.0,0.0,0.0,0.0,0.0,0.0,0.0,0.0,0.0,0.0,0.0,0.0,0.0,0.0,0.0,0.0,0.0,0.0,0.0,0.0,0.0,0.0,0.0,0.0,0.0,0.0,0.0,0.0,0.0,0.0,0.0,0.0,0.0,0.0,0.0,0.0,0.0,0.0,0.0,0.0,0.0,0.0,0.0,0.0,0.0,0.0,0.0,0.0,0.0,0.0,0.0,0.0,0.0,0.0,0.0,0.0,0.0,0.0,0.0,0.0,0.0,0.0,0.0,0.0,0.0,0.0,0.0,0.0,0.0,0.0,0.0,0.0,0.0,0.0,0.0,0.0,0.0,0.0,0.0,0.0,0.0,0.0,0.0,0.0,0.0,0.0,0.0,0.0,0.0,0.0,0.0,0.0,0.0,0.0,0.0,6.3025,6.3943,6.4567,6.4567,6.5007,6.5288,6.5288,6.5288,6.5288,6.5288,0.0,0.0,0.0,0.0,0.0,0.0,0.0,0.0,0.0,0.0,0.0,0.0,0.0,0.0,0.0,0.0,0.0,0.0,0.0,0.0,0.0,0.0,0.0,0.0,0.0,0.0,0.0,0.0,0.0,0.0,0.0,0.0,0.0,0.0,0.0,0.0,0.0,0.0,0.0,0.0,0.0,0.0,0.0,0.0,0.0,0.0,0.0,0.0,0.0,0.0,0.0,0.0,0.0,0.0,0.0,0.0,0.0,0.0,0.0,0.0,0.0,0.0,0.0,0.0,0.0,0.0,0.0,0.0,0.0,0.0,0.0,0.0,0.0,0.0,0.0,0.0,0.0,0.0,0.0,0.0,0.0,0.0,0.0,0.0,0.0,0.0,0.0,0.0,0.0,0.0,0.0,0.0,0.0,0.0,0.0,0.0,0.0,0.0,0.0,0.0,0.0,0.0,6.5215,6.5362,6.5398,6.5398,6.5472,6.5545,6.5618,6.5618,6.5655,6.5729,0.0,0.0,0.0,0.0,0.0,0.0,0.0,0.0,0.0,0.0,0.0,0.0,0.0,0.0,0.0,0.0,0.0,0.0,0.0,0.0,0.0,0.0,0.0,0.0,0.0,0.0,0.0,0.0,0.0,0.0,0.0,0.0,0.0,0.0,0.0,0.0,0.0,0.0,0.0,0.0,0.0,0.0,0.0,0.0,0.0,0.0,0.0,0.0,0.0,0.0,0.0,0.0,0.0,0.0,0.0,0.0,0.0,0.0,0.0,0.0,5.4803,0.0,0.0,0.0,0.0,0.0,0.0,0.0,0.0,0.0,0.0,0.0,0.0,0.0,0.0,0.0,0.0,0.0,0.0,0.0,0.0,0.0,0.0,0.0,0.0,0.0,0.0,0.0,0.0,0.0,0.0,0.0,0.0,0.0,0.0,0.0,0.0,0.0,0.0,0.0,0.0,0.0,6.5288,6.5852,6.6256,6.6256,6.6806,6.743,6.8091,6.8114,6.8421,6.9045,0.0,0.0,0.0,0.0,0.0,0.0,0.0,0.0,0.0,0.0,0.0,0.0,0.0,0.0,0.0,0.0,0.0,0.0,0.0,0.0,0.0,0.0,0.0,0.0,0.0,0.0,0.0,0.0,0.0,0.0,0.0,0.0,0.0,0.0,0.0,0.0,0.0,0.0,0.0,0.0,0.0,0.0,0.0,0.0,0.0,0.0,0.0,0.0,0.0,0.0,0.0,0.0,0.0,0.0,0.0,0.0,0.0,0.0,0.0,0.0,0.0,5.5689,0.0,0.0,0.0,0.0,0.0,0.0,0.0,0.0,0.0,0.0,0.0,0.0,0.0,0.0,0.0,0.0,0.0,0.0,0.0,0.0,0.0,0.0,0.0,0.0,0.0,0.0,0.0,0.0,0.0,0.0,0.0,0.0,0.0,0.0,0.0,0.0,0.0,0.0,0.0,0.0,6.6976,6.7724,6.8238,6.8238,6.8605,6.9009,6.9449,6.9486,6.9633,7.0073,7.011,0.0,0.0,0.0,0.0,0.0,0.0,0.0,0.0,0.0,0.0,0.0,0.0,0.0,0.0,0.0,0.0,0.0,0.0,0.0,0.0,0.0,0.0,0.0,0.0,0.0,0.0,0.0,0.0,0.0,0.0,0.0,0.0,0.0,0.0,0.0,0.0,0.0,0.0,0.0,0.0,0.0,0.0,0.0,0.0,0.0,0.0,0.0,0.0,0.0,0.0,0.0,0.0,0.0,5.8248,5.8248,5.8248,5.8141,5.8506,5.9139,5.7703,5.7154,5.7274,0.0,0.0,0.0,0.0,0.0,0.0,0.0,0.0,0.0,0.0,0.0,0.0,0.0,0.0,0.0,0.0,0.0,0.0,0.0,0.0,0.0,0.0,0.0,0.0,0.0,6.6197,6.6208,0.0,0.0,0.0,0.0,0.0,0.0,0.0,0.0,0.0,0.0,0.0,0.0,6.9009,6.9706,7.011,7.011,7.011,7.0146,7.0293,7.0293,7.0367,7.0513,7.0513,7.0513,0.0,0.0,0.0,0.0,0.0,0.0,0.0,0.0,0.0,0.0,0.0,0.0,0.0,0.0,0.0,0.0,0.0,0.0,0.0,0.0,0.0,0.0,0.0,0.0,0.0,0.0,0.0,0.0,0.0,0.0,0.0,0.0,5.5438,5.6223,0.0,0.0,0.0,0.0,0.0,0.0,0.0,0.0,0.0,0.0,0.0,0.0,0.0,5.9111,5.9881,5.993,5.9967,6.0065,6.0065,6.0065,6.0065,6.0041,6.0078,6.02,5.9968,0.0,5.9713,5.981,0.0,0.0,0.0,0.0,0.0,0.0,0.0,0.0,0.0,0.0,0.0,0.0,0.0,0.0,0.0,0.0,0.0,0.0,0.0,0.0,0.0,0.0,6.6657,6.821,6.972,7.0606,0.0,6.7802,6.6,6.6287,0.0,0.0,0.0,0.0,0.0,0.0,0.0,0.0,6.9926,7.0036,7.011,7.011,7.011,7.0367,7.1087,7.1123,7.1417,7.2129,7.2165,7.2165,7.2165,7.149,0.0,0.0,0.0,0.0,0.0,0.0,0.0,0.0,0.0,0.0,0.0,0.0,0.0,0.0,0.0,0.0,0.0,0.0,0.0,0.0,0.0,0.0,0.0,0.0,0.0,0.0,0.0,0.0,0.0,5.5365,5.5732,5.6088,5.5805,5.5585,0.0,0.0,0.0,0.0,0.0,0.0,0.0,0.0,0.0,5.9857,5.9857,6.004,6.0419,6.0419,6.0419,6.0419,6.0419,6.0419,6.0419,6.0419,6.0639,6.1117,6.1557,6.1997,6.229,6.0885,6.0298,6.0298,0.0,0.0,0.0,0.0,6.1176,6.1176,6.1176,6.1176,0.0,0.0,0.0,0.0,0.0,0.0,0.0,0.0,0.0,0.0,0.0,0.0,0.0,7.0121,7.1061,7.1531,7.1303,7.0349,6.9427,0.0,6.9372,6.9793,6.996,0.0,0.0,0.0,0.0,0.0,7.179,7.201,7.2312,7.2753,7.2789,7.2936,7.3289,7.3325,7.3472,7.3839,7.3839,7.3839,7.3839,7.3509,7.3325,0.0,0.0,0.0,0.0,0.0,0.0,0.0,0.0,0.0,0.0,0.0,0.0,0.0,0.0,0.0,0.0,0.0,0.0,0.0,0.0,0.0,0.0,0.0,0.0,0.0,0.0,0.0,0.0,5.6209,5.6356,5.6796,5.6466,5.6393,0.0,0.0,0.0,0.0,0.0,0.0,5.9526,6.0077,6.0493,6.0713,6.0921,6.1117,6.1337,6.1557,6.1655,6.1655,6.1655,6.1655,6.1655,6.1655,6.1998,6.2585,6.316,6.3833,6.4273,6.2401,6.1655,6.1655,6.1655,6.1655,6.1741,6.2365,6.261,6.261,6.261,6.261,6.2733,6.3419,0.0,6.4177,6.5703,0.0,0.0,0.0,0.0,6.7519,6.8972,6.9851,7.0753,7.2191,7.2902,7.3193,7.3075,7.3336,7.3185,0.0,7.1712,7.1909,7.2199,0.0,0.0,0.0,0.0,7.292,7.3792,7.4085,7.4411,7.486,7.4903,7.4903,7.4903,7.4903,7.4903,7.4903,7.4903,7.4903,7.4903,7.4903,7.4903,7.4903,0.0,0.0,0.0,0.0,0.0,0.0,0.0,0.0,0.0,0.0,0.0,0.0,0.0,0.0,0.0,0.0,0.0,0.0,0.0,0.0,0.0,0.0,0.0,0.0,0.0,0.0,0.0,0.0,0.0,5.9979,5.8804,0.0,0.0,0.0,0.0,6.015,6.0309,6.0346,6.0346,6.0382,6.075,6.1533,6.2279,6.3086,6.3919,6.4677,6.5031,6.5031,6.5031,6.5031,6.5031,6.5031,6.5068,6.5105,6.5141,6.5178,6.5215,6.5105,6.5031,6.5031,6.5031,6.5031,6.5057,6.5222,6.5309,6.5309,6.5309,6.5309,6.5335,6.5423,6.5821,6.6429,6.74,6.7782,0.0,0.0,6.8621,6.9388,6.9632,7.1665,7.3906,7.4874,7.6415,7.756,7.709,7.7017,7.6408,0.0,7.4191,7.4859,7.6007,0.0,7.6225,7.6225,7.6239,7.6081,7.562,7.5601,7.5431,7.4941,7.4903,7.4903,7.4903,7.4903,7.4903,7.4903,7.4903,7.4903,7.4903,7.4903,7.4903,7.4903,7.4903,0.0,0.0,0.0,0.0,0.0,0.0,0.0,0.0,0.0,0.0,0.0,0.0,0.0,0.0,0.0,0.0,0.0,0.0,0.0,0.0,0.0,0.0,0.0,0.0,0.0,0.0,0.0,0.0,6.0272,5.9905,0.0,6.0346,6.015,6.0077,6.0382,6.0896,6.141,6.1912,6.2475,6.3135,6.398,6.4751,6.5338,6.5632,6.6439,6.6843,6.6843,6.6843,6.6843,6.6843,6.6843,6.6843,6.688,6.7393,6.76,6.7637,6.8164,6.7173,6.5288,6.5288,6.5288,6.5301,6.5353,6.5825,6.6395,6.6395,6.6914,6.7651,6.8291,6.8966,6.9674,7.0217,7.033,7.0319,7.0729,7.0959,7.1299,7.2128,7.3536,7.498,7.5902,7.7071,7.7939,7.7808,7.7732,7.7665,7.7462,7.6865,7.6531,7.6938,7.7019,7.7019,7.7019,7.6722,7.6759,7.7415,7.719,7.7091,7.7444,7.7153,7.6952,7.6952,7.6648,7.6445,7.6445,7.6445,7.6445,7.6445,7.6445,7.6445,7.6445,7.6445,7.6445,0.0,0.0,0.0,0.0,0.0,0.0,0.0,0.0,0.0,0.0,0.0,0.0,0.0,0.0,0.0,0.0,0.0,0.0,0.0,0.0,0.0,0.0,0.0,0.0,0.0,0.0,5.9893,6.0713,6.0566,6.075,6.1557,6.1361,6.1435,6.2022,6.2548,6.3209,6.4004,6.4604,6.5264,6.6072,6.688,6.732,6.732,6.8091,6.8508,6.8508,6.8508,6.8508,6.8508,6.8508,6.8535,6.8613,6.915,6.9398,6.9489,7.0004,6.9041,6.7167,6.6996,6.6943,6.6982,6.6982,6.7511,6.8272,6.8358,6.896,6.9824,7.0462,7.1104,7.1655,7.1939,7.2095,7.2267,7.2682,7.3088,7.3519,7.4035,7.5303,7.6532,7.6894,7.815,7.9283,7.9283,7.9513,7.9856,8.0439,7.9161,7.805,7.8316,7.8392,7.8392,7.8392,7.8078,7.8117,7.8815,7.861,7.8495,7.8878,7.8575,7.8376,7.8376,7.786,7.7636,7.784,7.7651,7.7636,7.7817,7.7651,7.757,7.757,7.7396,7.7289,7.7289,0.0,0.0,0.0,0.0,0.0,0.0,0.0,0.0,0.0,0.0,0.0,0.0,0.0,0.0,0.0,0.0,0.0,0.0,0.0,0.0,0.0,0.0,0.0,6.0444,6.0456,6.0786,6.1594,6.1006,6.152,6.3956,6.3429,6.36,6.5251,6.5362,6.5742,6.6512,6.6586,6.6953,6.7737,6.8568,6.8972,6.8972,6.9793,7.0197,7.0197,7.0197,7.0197,7.0197,7.0197,7.0243,7.038,7.038,7.0475,7.0584,7.0584,7.0767,7.0958,7.0347,7.0197,7.032,7.032,7.0613,7.0983,7.1313,7.1597,7.185,7.1896,7.2115,7.2404,7.2525,7.3113,7.371,7.371,7.4884,7.5956,7.5188,7.6954,7.8749,7.7959,7.9867,8.1843,8.1843,8.2455,8.2999,8.2999,8.105,7.9675,8.043,8.0582,8.0582,8.0582,8.0582,0.0,7.9859,7.9795,7.9592,7.9076,7.9003,7.9003,7.9003,7.853,7.8437,7.8941,7.8504,7.8451,7.8954,7.8491,7.8216,7.8202,7.7703,7.7408,7.7393,0.0,0.0,0.0,0.0,0.0,0.0,0.0,0.0,0.0,0.0,0.0,0.0,0.0,0.0,0.0,0.0,0.0,0.0,0.0,0.0,0.0,6.2291,6.2658,6.1447,6.1777,6.2475,6.3332,6.3723,6.4444,6.5705,6.5632,6.5925,6.6966,6.7026,6.7393,6.8201,6.8238,6.8646,6.9576,7.0262,7.0702,7.079,7.1586,7.1991,7.1991,7.2116,7.2208,7.2208,7.2208,7.2235,7.2276,7.2418,7.2486,7.2539,7.2744,7.3218,7.3591,7.1501,7.0833,7.1032,7.1032,7.16,7.2494,7.3424,7.4207,7.4773,7.488,7.5408,7.599,7.6021,7.6183,7.6373,7.6373,7.6676,7.6979,7.679,7.8283,7.9776,7.9548,8.1126,8.2684,8.2684,8.2846,8.2999,8.2999,8.2464,8.2044,8.2273,8.2311,8.2311,8.2311,8.2311,0.0,8.2118,8.2098,8.2058,8.1908,8.1523,8.1271,8.1271,8.0806,8.0566,0.0,8.0579,8.0566,8.0718,8.0579,8.0304,7.9939,8.0166,8.0097,0.0,0.0,0.0,0.0,0.0,0.0,0.0,0.0,0.0,0.0,0.0,0.0,0.0,0.0,0.0,0.0,0.0,0.0,0.0,0.0,0.0,0.0,6.398,6.4383,6.3723,6.3759,6.415,6.5007,6.5521,6.6256,6.7393,6.7504,6.7834,6.8655,6.8728,6.9073,6.9936,6.9986,7.0422,7.142,7.1816,7.2208,7.2637,7.3079,7.3521,7.3816,7.3951,7.3993,7.3993,7.4131,7.4175,0.0,7.4495,7.4611,7.4674,7.4872,7.5256,0.0,0.0,0.0,0.0,0.0,7.4067,7.4715,7.5539,7.6127,7.6554,7.6617,7.6979,7.7396,7.7396,7.7623,7.7889,7.7889,7.8419,7.8874,7.8533,7.984,8.1261,8.1233,8.269,8.4136,8.4518,8.4862,8.5139,8.5139,0.0,0.0,8.5139,8.426,8.3534,8.3534,8.383,8.4059,8.4059,8.4059,8.4059,8.4059,8.3773,8.3578,8.3578,8.313,0.0,0.0,0.0,8.2808,8.2808,8.2808,0.0,0.0,0.0,8.1604,0.0,0.0,0.0,0.0,7.8719,7.8369,0.0,0.0,0.0,0.0,0.0,0.0,0.0,0.0,0.0,0.0,0.0,0.0,0.0,0.0,0.0,0.0,6.5435,6.5815,6.6512,6.6195,6.6085,6.6696,6.6856,6.7517,6.9009,6.9169,6.9536,7.0293,7.0381,7.0744,7.1582,0.0,0.0,0.0,0.0,7.3638,7.4353,7.4353,7.4774,7.5592,7.5643,7.5708,7.5824,7.6061,7.6247,7.6364,7.6618,7.6827,7.6923,7.6959,7.7174,7.7323,7.5764,7.5731,7.6551,7.6904,7.7055,7.7088,7.7408,0.0,0.0,7.7775,7.7889,7.7965,7.7965,7.8457,7.9026,7.9026,8.0087,8.1084,8.0363,8.1501,8.28,8.2821,8.4271,8.5835,8.6589,8.7564,8.8234,8.8234,8.8301,8.8377,8.8377,8.6352,8.4709,8.4709,8.5358,8.5769,8.5769,8.5769,8.5769,8.5769,0.0,0.0,8.5769,8.5409,8.5355,8.5749,8.5399,8.5189,8.5189,8.5189,8.4542,8.3238,8.3251,8.29,8.2059,8.2059,8.2461,8.3163,8.1095,8.0161,0.0,0.0,0.0,0.0,0.0,0.0,0.0,0.0,0.0,0.0,0.0,0.0,0.0,0.0,0.0,6.5251,6.6402,6.7297,6.7444,6.8529,6.9094,6.8508,6.9117,6.9903,7.077,7.0919,7.1301,7.1982,7.2118,7.2276,7.2451,7.3254,7.3836,7.4121,7.464,7.5047,7.5343,7.5343,7.5888,7.6925,0.0,0.0,7.8379,7.8429,7.8466,7.8541,7.8784,7.8902,7.8937,7.9169,7.9685,8.0097,7.7803,7.7025,7.7209,7.7311,7.7333,7.7408,7.8106,7.8836,7.9519,8.0163,8.0845,8.1425,8.1425,8.1538,0.0,8.169,8.1918,8.2107,8.1955,8.2738,8.3596,8.3606,8.5033,8.6448,8.6601,8.7933,8.9065,8.9065,8.9638,9.0135,9.0135,8.8606,8.7384,8.7384,8.7498,8.7613,8.7613,8.7613,8.7613,8.7613,8.7613,8.7613,8.7613,8.7513,8.7493,8.7575,8.7503,8.7461,8.7461,8.7461,8.7095,8.6348,8.6805,8.6741,8.6059,8.6071,8.6159,8.6248,8.3449,8.2508,0.0,0.0,0.0,0.0,0.0,0.0,0.0,0.0,0.0,0.0,0.0,6.436,6.5167,0.0,6.6623,6.7063,6.8158,6.9131,6.9535,7.0431,7.0789,7.0271,7.0688,7.1296,7.2074,7.2203,7.2549,7.329,7.3536,7.3872,7.431,7.4946,7.5353,7.5519,7.5828,7.6424,7.7347,7.7347,7.8073,7.945,7.9514,7.9841,8.0355,8.0491,8.0552,8.0564,8.0813,8.0954,8.0954,8.1115,8.1387,8.1652,8.0401,7.9898,7.9898,7.9898,7.9898,7.9946,8.0352,8.0769,8.1235,8.1614,8.2069,8.241,8.241,8.241,8.2486,8.2903,8.3309,8.3726,8.4143,8.4954,8.5766,8.6184,8.7438,8.8629,8.9049,9.0241,9.1204,9.1204,9.1548,9.1843,9.1843,9.1166,9.044,9.002,9.0326,9.0593,9.0593,9.0593,9.0593,9.0593,9.0593,9.0593,9.0593,9.0593,9.0593,9.0593,9.0593,9.0593,9.0593,9.0593,9.0258,8.9504,8.98,8.9609,8.8911,8.8884,8.9113,8.9455,8.7957,8.6717,0.0,0.0,0.0,0.0,0.0,0.0,0.0,6.3417,6.3723,6.442,6.4787,6.5411,6.6733,6.764,6.8439,6.9086,6.9944,7.0813,7.1439,7.1783,7.2049,7.2146,7.2086,7.2348,7.3229,7.3381,7.3754,7.4586,7.4876,7.5331,7.6105,7.6656,7.7015,7.7099,7.7425,7.8239,7.9554,7.9592,8.0368,8.1921,8.1921,8.2097,8.2461,8.2707,8.2879,8.3079,8.3267,8.3358,8.3358,8.3358,8.3358,8.3358,8.3358,8.3358,8.3282,8.2638,8.241,8.241,8.2562,8.2752,8.2903,8.3055,8.3244,8.3358,8.3358,8.3358,8.351,8.4154,8.4825,8.5533,8.6178,8.6904,8.7718,8.8577,8.9596,9.059,9.1489,9.258,9.3344,9.3344,9.3497,9.3573,9.3573,9.3573,9.3229,9.2198,9.2656,9.3115,9.3115,9.3115,9.3115,9.3115,9.3115,9.3115,9.3115,9.3115,9.3115,9.3115,9.3115,9.3115,9.3115,9.3115,9.2771,9.2083,9.2045,9.1739,9.1079,9.1079,9.1434,9.2045,9.2236,9.102,6.1374,6.2071,6.2976,6.3759,6.4029,6.4237,0.0,6.5558,6.6109,6.6219,6.7357,6.8421,6.8591,6.9412,7.0045,7.0118,7.094,7.1552,7.1662,7.2449,7.3429,7.4486,7.367,7.3427,7.442,7.466,7.5172,7.6192,7.6385,7.6505,7.663,7.8121,7.8998,7.901,8.033,8.1132,8.1319,8.1319,8.1896,8.3022,8.3022,8.3936,8.5614,8.5638,8.6066,8.6798,8.6822,8.6834,8.6834,8.6834,8.6834,8.6834,8.6834,8.6834,8.6493,8.351,8.241,8.2486,8.3206,8.3953,8.4749,8.5458,8.6227,8.6834,8.6834,8.6834,8.6872,8.6947,8.7061,8.7137,8.7251,8.7338,8.7639,8.8591,8.9528,9.049,9.1478,9.3028,9.425,9.425,9.4834,9.5331,9.5331,9.5331,9.4796,9.3191,9.3038,9.3115,9.3115,9.3115,9.3115,9.3115,9.3115,9.3115,9.3115,9.3115,9.3115,9.3115,9.3115,9.3115,9.3115,9.3115,9.3038,9.2962,9.2962,9.2924,9.2809,9.2809,9.2886,9.2962,9.3764,9.3519,6.4301,6.4461,6.4682,6.5981,6.6312,6.6373,6.6649,6.74,6.7978,6.7921,6.8856,6.9719,6.9719,7.0436,7.102,7.1102,7.2076,7.2855,7.2855,7.3889,7.4854,7.5356,7.5426,7.5604,7.6011,7.6108,7.6517,7.7438,7.8123,7.8726,7.9244,8.0552,8.1273,8.1273,8.19,8.2676,8.3578,8.3578,8.4271,8.5631,8.5631,8.6057,8.6872,8.6872,8.7061,8.7402,8.7402,8.7402,8.7402,8.7402,8.7402,8.7402,8.7402,8.7402,8.7251,8.581,8.5318,8.5356,8.5697,8.6038,8.6417,8.6758,8.7099,8.7402,8.7402,8.7402,8.7516,8.7971,8.8084,8.8198,8.8691,8.8805,8.903,9.0034,9.0962,9.1914,9.2927,9.4184,9.5102,9.5102,9.5369,9.5598,9.5598,9.5598,9.5369,9.4643,9.4567,9.4567,9.4567,9.4567,9.4567,9.4567,9.4567,9.4567,9.4567,9.4567,9.4567,9.4567,9.4567,9.4567,9.4567,9.4567,9.4567,9.4567,9.4567,9.4567,9.4567,9.4567,9.4567,9.4567,9.4949,9.4911,6.6403,6.6427,6.6388,6.7605,6.806,6.8204,6.8058,6.8803,6.9449,6.9311,7.0031,7.0679,7.0679,7.1454,7.2143,7.2249,7.3367,7.4269,7.4269,7.5298,7.616,7.6485,7.73,7.7949,7.8301,7.7998,7.8214,7.9123,8.013,8.0974,8.1582,8.2773,8.3455,8.3455,8.3842,8.4616,8.5746,8.5746,8.6347,8.747,8.7435,8.7563,8.7791,8.7983,8.8047,8.8047,8.8047,8.8047,8.8047,8.8047,8.8047,8.8047,8.8047,8.8047,8.8047,8.8047,8.7781,8.7402,8.7402,8.7554,8.7743,8.7743,8.7895,8.8047,8.8047,8.8047,8.8198,8.8767,8.8918,8.907,8.9638,8.979,9.013,9.1411,9.219,9.303,9.4307,9.5123,9.5598,9.5598,9.5598,9.5598,9.5598,9.5598,9.5598,9.5598,9.5598,9.5598,9.5598,9.5598,9.5598,9.5598,9.5598,9.5598,9.5598,9.5598,9.5598,9.5598,9.5598,9.5598,9.5598,9.5598,9.5598,9.5598,9.5598,9.5598,9.5598,9.5828,9.5942,9.5942,9.6172,9.6286,6.6812,6.725,6.7667,6.785,6.8502,6.9014,6.8889,6.968,7.0407,7.0283,7.0991,7.1639,7.1639,7.2729,7.3641,7.3653,7.4769,7.5651,7.5651,7.6391,7.7354,7.848,7.9395,8.0355,0.0,8.0606,8.0393,8.1605,8.2435,8.2903,8.2942,8.4447,8.5311,8.5311,8.6769,8.759,8.7617,8.7617,8.7655,8.7693,8.757,8.7931,8.8793,8.9434,8.9714,8.9714,8.9714,8.9714,8.9714,8.9714,8.9714,8.9714,8.9714,8.9714,8.9714,8.9714,8.8729,8.7402,8.7402,8.7895,8.8577,8.8577,8.9108,8.9714,8.9714,8.9714,8.9714,8.9752,8.9752,8.979,8.979,8.979,9.0268,9.2202,9.2679,9.3206,9.5123,9.556,9.5598,9.5598,9.5598,9.5598,9.5598,9.5598,9.5598,9.5598,9.5598,9.5598,9.5598,9.5598,9.5598,9.5598,9.5598,9.5598,9.5598,9.5598,9.5598,9.5598,9.5598,9.5598,9.5598,9.5598,9.5598,9.5598,9.5598,9.5598,9.5598,9.6439,9.6859,9.6898,9.765,9.8032,6.6728,6.7492,6.8243,6.8812,6.9564,7.0117,7.0009,7.0756,7.144,7.128,7.2069,7.2807,7.2701,7.3329,7.3836,7.3836,7.5068,7.6032,7.6032,7.7944,7.9445,7.9858,8.1126,0.0,0.0,0.0,0.0,8.2569,8.3868,8.4671,8.4671,8.6284,8.718,8.718,8.7683,8.8193,8.8603,8.8641,8.8874,8.9379,8.9204,8.9298,8.9602,8.9737,8.9839,8.9923,8.9923,8.9923,8.9923,8.9923,8.9863,8.979,8.979,8.979,8.979,8.979,8.9449,8.8994,8.8994,8.9184,8.9411,8.9411,8.9563,8.979,8.979,8.979,8.979,8.979,8.979,8.979,8.979,8.979,9.013,9.1449,9.224,9.3068,9.4384,9.5172,9.5751,9.6363,9.6477,9.663,9.7165,9.728,9.728,9.728,9.6783,9.6477,9.6477,9.6936,9.728,9.728,9.728,9.728,9.728,9.728,9.728,9.728,9.728,9.728,9.728,9.728,9.728,9.728,9.728,9.728,9.728,9.7536,9.7689,9.7689,9.7956,9.8109,6.7704,6.8334,6.8927,6.9792,7.0621,7.1163,7.0967,7.1751,7.2449,7.2344,7.2923,7.3549,7.3807,7.4286,7.4691,7.5004,7.632,7.7398,7.7703,7.9581,8.1079,8.1356,8.2617,8.3572,0.0,0.0,0.0,8.3907,8.5167,8.6113,8.6428,8.7766,8.853,8.853,8.8835,8.9176,8.9636,8.9636,8.985,9.0273,9.0194,9.0137,9.009,8.997,8.997,9.009,9.0006,8.9982,8.9982,8.9935,8.9863,8.979,8.979,8.979,8.979,8.979,8.979,8.979,8.979,8.979,8.979,8.979,8.979,8.979,8.979,8.979,8.979,8.979,8.979,8.979,8.979,9.0017,9.0509,9.1515,9.2673,9.3868,9.4872,9.5826,9.6668,9.7241,9.7318,9.7498,9.7994,9.8109,9.8109,9.8109,9.7929,9.7662,9.7356,9.7765,9.8109,9.8109,9.8109,9.8109,9.8109,9.8109,9.8109,9.8109,9.8109,9.8109,9.8109,9.8109,9.8109,9.8109,9.8109,9.8109,9.8109,9.8414,9.8579,9.8579,9.8873,9.8988,6.9582,6.9793,6.9867,7.0772,7.1627,7.2182,7.187,7.2659,7.3411,7.3424,7.3564,7.3964,7.4786,7.5498,7.616,7.6933,7.8272,7.9522,8.0391,8.1308,8.2149,8.2961,8.3878,8.4747,8.5501,8.6342,0.0,8.5741,0.0,8.7297,8.811,8.895,8.937,8.937,9.0162,9.0583,9.0583,9.0583,9.054,9.0405,9.0433,9.0405,9.0293,9.0331,9.0331,9.0255,9.0128,9.0081,8.9994,8.9875,8.9814,8.9802,8.9802,8.9852,8.9878,8.9878,8.9916,8.9954,8.9942,8.9866,8.979,8.979,8.979,8.984,8.9878,8.9878,8.9878,8.9916,8.9954,8.9954,8.9954,9.056,9.1394,9.2275,9.389,9.5467,9.6424,9.7417,9.8109,9.8147,9.8185,9.8223,9.8223,9.8185,9.8185,9.8223,9.8884,9.9114,9.8262,9.8185,9.8223,9.8223,9.8223,9.8223,9.8223,9.8223,9.8223,9.8223,9.8223,9.8223,9.8223,9.8223,9.8223,9.8223,9.8223,9.8223,9.8223,9.9075,9.9458,9.9458,10.0183,10.0604,6.9804,7.0747,7.1727,7.2075,7.2783,7.3355,7.3292,7.3466,7.3728,7.3886,7.4528,7.4936,7.4404,7.5383,7.6278,7.6209,7.7397,7.8825,8.0315,8.1767,8.2999,8.3878,8.5282,8.6227,8.6456,8.7269,8.7918,0.0,8.853,8.8759,8.8988,8.9791,9.0277,9.0277,9.0468,9.0583,9.0583,9.0583,9.0572,9.0551,9.1114,9.1364,9.1331,9.185,9.1785,9.1331,9.127,9.0905,9.0295,9.0262,9.0194,9.0113,9.0113,9.0494,9.1052,9.0958,9.1301,9.1783,9.1685,9.0851,8.979,8.979,8.9851,9.0087,9.0732,9.0922,9.106,9.1763,9.1905,9.1819,9.1915,9.2057,9.2187,9.2439,9.389,9.5253,9.5517,9.6902,9.83,9.8923,9.9534,9.9954,9.9954,9.9458,9.9266,9.9878,9.9649,9.9305,9.9114,9.961,9.9954,9.9954,9.9954,9.9954,9.9954,9.9954,9.9954,9.9954,9.9954,9.9954,9.9954,9.9954,9.9954,9.9954,9.9954,9.9954,9.9954,10.0183,10.0298,10.0298,10.0489,10.0604,7.0844,7.1812,7.2693,7.3208,7.3693,7.4007,7.3947,7.3935,7.4108,7.4645,7.5119,7.5455,7.5487,7.6196,7.6868,7.7166,7.8284,7.9665,8.1356,8.2732,8.4021,8.5244,8.6227,8.7106,8.7832,8.8339,8.8988,8.9818,8.9523,8.9485,8.9857,9.0315,9.0583,9.0583,9.0583,9.0583,9.0583,9.0583,9.0583,9.0583,9.1026,9.1223,9.1223,9.1604,9.1577,9.1223,0.0,9.1081,9.0955,9.09,9.1035,9.1309,9.1309,9.1613,9.2032,9.195,9.2157,9.2477,9.2403,9.1772,9.0963,9.0902,9.0938,9.1113,9.1607,9.172,9.1859,9.2375,9.2465,9.2428,9.2501,9.2768,9.2973,9.2973,9.469,9.6181,9.5778,9.7529,9.9343,9.984,9.9992,10.0183,10.0489,9.9916,9.9649,10.0489,10.0183,9.9916,9.9916,10.0298,10.0604,10.0604,10.0604,10.0604,10.0604,10.0604,10.0604,10.0604,10.0604,10.0604,10.0604,10.0604,10.0604,10.0604,10.0604,10.0795,10.1215,10.1215,10.1406,10.1712,10.1712,10.1712,7.2147,7.2765,7.3192,7.412,7.4327,7.4294,7.4191,7.4232,7.4579,7.5491,7.5631,7.5944,7.7002,7.7373,7.7786,7.8615,7.9734,8.1079,8.277,8.3763,8.4938,8.6609,8.6915,8.7603,8.9141,8.9409,8.9791,9.0544,8.9895,8.978,9.0544,9.0583,9.0583,9.0583,9.0583,9.0583,9.0583,9.0583,9.0583,9.0583,9.0697,9.0774,9.0774,9.0888,9.0926,9.0926,0.0,0.0,9.1893,9.1743,9.2116,9.2764,9.2764,9.2802,9.2916,9.2904,9.2899,9.2879,9.2867,9.2855,9.2793,9.2417,9.2317,9.2379,9.2493,9.2531,9.2544,9.2695,9.2733,9.272,9.2745,9.3289,9.3795,9.3795,9.5704,9.7273,9.6477,9.8461,10.0504,10.0604,9.9992,9.9763,10.0489,9.9916,9.9725,10.0604,10.0718,10.0718,10.0909,10.0795,10.0795,10.0795,10.0909,10.0909,10.0909,10.0909,10.0909,10.0909,10.0909,10.0909,10.0909,10.0909,10.0909,10.0909,10.0909,10.1292,10.2094,10.2094,10.2514,10.3214,10.3214,10.3214,7.2343,7.3236,7.3916,7.4361,7.4487,7.4476,7.4454,7.4944,7.5538,7.5916,7.6987,7.7576,7.6728,7.7779,7.8589,7.8007,7.9391,8.1079,8.277,8.3763,8.4938,8.6609,8.746,8.8262,8.9218,8.9933,9.043,0.0,9.0468,9.043,9.0583,9.0583,9.0583,9.0583,9.0583,9.0583,9.0583,9.0583,9.0583,9.0621,9.1281,9.1586,9.1625,9.2351,9.2656,9.2656,0.0,0.0,9.2853,9.2831,9.2897,9.3011,9.3011,9.347,9.4108,9.3968,9.4342,9.4879,9.4772,9.4737,9.4472,9.2834,9.244,9.2773,9.3483,9.3724,9.3873,9.4769,9.4948,9.4879,9.4994,9.4981,9.4929,9.4929,9.5766,9.6515,9.6338,9.7968,9.9672,10.0389,10.0489,10.0413,10.0604,9.9916,9.9916,10.1394,10.11,10.11,10.2591,10.2094,10.17,10.17,10.2285,10.2705,10.2705,10.2705,10.2705,10.2705,10.2705,10.2705,10.2705,10.2705,10.2705,10.2705,10.2705,10.2782,10.3011,10.3011,10.3099,10.3214,10.3214,10.3214,7.2808,7.3564,7.4162,7.4365,7.4525,7.4735,7.507,7.5513,7.6198,7.7196,7.7489,7.7652,7.7875,7.8103,7.8331,7.8485,8.042,8.2177,8.2894,8.492,8.6613,8.7394,8.8224,8.9065,8.9895,9.0353,9.0583,9.0583,9.0583,9.0583,9.0583,9.0583,9.0583,9.0583,9.0583,9.0583,9.0583,9.0583,9.0583,9.0583,9.1003,9.1395,9.1816,9.2236,9.2656,9.3115,9.3115,0.0,9.3715,9.3754,9.4032,9.4414,9.4414,9.4643,9.5014,9.4959,9.512,9.5394,9.5336,9.5286,9.5136,9.412,9.3916,9.4087,9.4506,9.462,9.472,9.5257,9.5359,9.5324,9.5394,9.5227,9.5094,9.5094,9.53,9.5945,9.7476,9.8145,9.8852,10.0301,10.0298,10.0298,10.1089,10.0604,10.0604,10.2285,10.2209,10.2285,10.3099,10.3202,10.3011,10.2591,10.3023,10.3214,10.3214,10.3214,10.3214,10.3214,10.3214,10.3214,10.3214,10.3214,10.3214,10.3214,10.3214,10.3393,10.3813,10.3813,10.4081,10.4501,10.4501,10.4501,7.3188,7.3728,7.4151,7.426,7.4547,7.4878,7.5356,7.588,7.6672,7.8019,7.7643,7.7492,7.8981,7.8475,7.812,7.9132,8.1459,8.3123,8.3009,8.5819,8.7943,8.8081,8.8797,8.9627,9.0506,9.0583,9.0583,9.0583,9.0583,9.0583,9.0583,9.0583,9.0583,9.0583,9.0583,9.0583,9.0583,9.0583,9.0697,9.085,9.085,9.1281,9.2083,9.2083,9.2542,9.3382,9.3382,0.0,0.0,9.4643,9.5025,9.5598,9.5598,9.5598,9.5598,9.5576,9.5498,9.5406,9.5406,9.5406,9.5394,9.5286,9.5251,9.5227,9.5227,9.5227,9.5227,9.5263,9.5312,9.5312,9.5312,9.5155,9.5021,9.4971,9.4883,9.5553,9.8284,9.8246,9.8322,10.0519,10.0413,10.0413,10.1903,10.1597,10.1712,10.3202,10.352,10.3508,10.3699,10.431,10.4386,10.3813,10.3699,10.3699,10.3699,10.3699,10.3699,10.3699,10.3699,10.3699,10.3699,10.3699,10.3699,10.3699,10.3699,10.4004,10.4692,10.4692,10.4986,10.5711,10.5711,10.5711,7.3162,7.359,7.3887,7.4226,7.4455,7.4632,7.4617,7.5842,7.7063,7.7284,7.7651,7.8138,7.896,7.8942,7.8884,7.9217,8.1404,8.3009,8.2999,8.5254,8.7241,8.8005,8.8797,8.9627,9.0506,9.0583,9.0583,9.0583,9.0583,9.0583,9.0583,9.0583,9.0583,9.0583,9.0583,9.0583,9.0583,9.0583,9.0975,9.1701,9.1701,9.2121,9.2962,9.2962,9.3459,9.4288,0.0,0.0,0.0,9.5484,9.5522,9.5598,9.5598,9.5598,9.5587,9.5463,9.5417,9.5406,9.5406,9.5406,9.5429,9.5531,9.5486,9.5394,9.5394,9.5394,9.5417,9.5531,9.5565,9.5565,9.5565,9.5356,9.5107,9.4883,9.4806,9.5376,9.7412,9.7766,9.8512,10.1194,10.17,10.2018,10.2896,10.3011,10.3278,10.4195,10.431,10.4616,10.5418,10.5482,10.5609,10.5495,10.5495,10.5495,10.5495,10.5495,10.5495,10.5495,10.5495,10.5495,10.5495,10.5495,10.5495,10.5495,10.5495,10.5495,10.5609,10.5609,10.5597,10.5711,10.5711,10.5711,7.3101,7.3487,7.3827,7.3875,7.4214,7.4633,7.4853,7.6007,7.7152,7.7792,7.7979,7.838,7.9546,7.9273,7.9141,7.9868,8.2139,8.3649,8.3085,8.6144,8.8333,8.812,8.9256,9.0201,9.0583,9.0583,9.0583,9.0583,9.0583,0.0,9.0583,9.0583,9.0583,9.0583,9.0583,9.0583,9.0583,9.109,9.1472,9.1816,9.2312,9.3038,9.3879,9.383,9.4299,9.5102,0.0,0.0,0.0,9.5598,9.5598,9.5598,9.5598,9.5598,9.5587,9.5452,9.5452,9.5509,9.544,9.5463,9.5531,9.5587,9.5565,9.5509,9.5429,9.5463,9.552,9.5498,9.5543,9.5598,9.5598,9.5417,9.5119,9.487,9.521,9.6122,9.8072,9.8857,9.9884,10.2199,10.2705,10.2896,10.3813,10.389,10.4195,10.5112,10.5189,10.5303,10.5686,10.5711,10.5711,10.5711,10.5711,10.5711,10.5711,10.5711,10.5711,10.5711,10.5711,10.5711,10.5711,10.5711,10.5711,10.5711,10.5711,10.5711,10.5711,10.5711,10.5711,10.5711,10.6182,10.6412,7.3077,7.3344,7.3678,7.359,7.4007,7.4493,7.4828,7.5871,7.7055,7.7883,7.7983,7.8398,7.9941,7.9472,7.9255,8.0268,8.2445,8.3773,8.3085,8.6498,8.8851,8.8158,8.96,9.0583,9.0583,9.0583,9.0583,9.0583,9.0583,0.0,9.0583,9.0583,9.0583,9.0583,9.0583,9.0583,9.0583,9.1395,9.193,9.2198,9.3077,9.3917,9.4758,9.4709,9.5025,9.5598,0.0,0.0,0.0,9.5598,9.5598,9.5598,9.5598,9.5598,9.5587,9.5452,9.5463,9.5531,9.544,9.5463,9.5554,9.5587,9.5598,9.5576,9.5452,9.5498,9.5587,9.5498,9.5531,9.5587,9.5509,9.5512,9.5499,9.5237,9.5854,9.6994,9.8947,9.9809,10.0912,10.3077,10.3596,10.3813,10.4616,10.4807,10.4998,10.5597,10.5711,10.5711,10.5711,10.5711,10.5597,10.5291,10.5303,10.5303,10.5303,10.5303,10.5303,10.5303,10.5609,10.5711,10.5711,10.5711,10.5788,10.6106,10.6106,10.622,10.6399,10.6399,10.6399,10.6488,10.6985,10.729,7.3077,7.3212,7.3424,7.3589,7.3838,7.4111,7.4186,7.5462,7.6707,7.7132,7.7537,7.8281,7.9882,7.9472,7.9237,8.0325,8.1929,8.2999,8.2999,8.5942,8.812,8.812,8.96,9.0583,9.0583,9.0583,9.0583,9.0583,9.0583,0.0,9.0583,9.0583,9.0583,9.0583,9.0583,9.0583,9.0583,9.1395,9.2236,9.3115,9.3994,9.4796,9.5598,9.5598,9.5598,0.0,0.0,0.0,0.0,9.5598,9.5598,9.5598,9.5598,9.5598,9.5587,9.5452,9.5406,9.5406,9.5406,9.5406,9.5429,9.5565,9.5598,9.5576,9.5452,9.5498,9.5598,9.5598,9.5598,9.5543,9.5263,9.5838,9.6412,9.6147,9.6713,9.7816,9.9784,10.019,10.0989,10.3803,10.4386,10.4692,10.5482,10.5711,10.5711,10.5711,10.5711,10.5711,10.5711,10.5711,10.5418,10.4501,10.4386,10.4386,10.4386,10.4386,10.4386,10.4386,10.5189,10.5711,10.5711,10.5711,10.6106,10.6908,10.6908,10.729,10.8207,10.8207,10.8207,10.8207,10.8207,10.8207,7.3318,7.3385,7.3589,7.3715,7.3935,7.4251,7.4672,7.579,7.6916,7.7609,7.8389,7.9195,7.9923,7.9916,7.9941,8.0344,8.1881,8.2999,8.2999,8.5962,8.8154,8.8154,8.9636,9.0666,9.0593,9.0583,9.0583,9.0583,9.0583,0.0,9.0583,9.0583,9.0583,9.0583,9.0583,9.085,9.1395,9.2274,9.3115,9.3983,9.4834,9.5331,9.5598,9.5598,0.0,0.0,0.0,0.0,0.0,9.5598,9.5598,9.5598,9.5598,9.5598,9.5576,9.5359,9.5394,9.552,9.5348,9.5394,9.5554,9.5587,9.5598,9.5598,9.5554,9.5576,9.5598,9.5598,9.5598,9.5657,9.6012,9.6295,9.6564,9.6854,9.7547,9.8739,10.0697,10.1598,10.2589,10.4911,10.5303,10.5418,10.5686,10.5711,10.5711,10.5711,10.5711,10.5711,10.5711,10.5189,10.4692,10.4386,10.3393,10.3202,10.431,10.4386,10.4386,10.4386,10.4692,10.5112,10.5686,10.5711,10.6412,10.7787,10.7787,10.7902,10.8207,10.8207,10.8513,10.8997,10.8997,10.9315,7.3385,7.3513,7.364,7.3715,7.4112,7.4596,7.4923,7.6105,7.7323,7.7965,7.885,7.9626,7.9982,8.0154,8.0245,8.0392,8.1881,8.3123,8.3477,8.6212,8.8432,8.9073,9.0059,9.0669,9.0593,9.0583,9.0583,9.0583,9.0583,0.0,9.0583,9.0583,9.0583,9.0583,9.0583,9.0975,9.1778,9.2656,9.3535,9.4403,9.5216,9.5598,9.5598,9.5598,0.0,0.0,0.0,0.0,0.0,9.5598,9.5598,9.5598,9.5598,9.5598,9.5587,9.5429,9.5475,9.5576,9.5429,9.5475,9.5598,9.5598,9.5598,9.5598,9.5598,9.5598,9.5598,9.5598,9.5828,9.6165,9.6503,9.7053,9.7589,9.7818,9.8512,9.964,10.1585,10.2398,10.3389,10.528,10.5711,10.5711,10.5711,10.5711,10.5711,10.5711,10.5711,10.5609,10.5303,10.4692,10.4195,10.3508,10.2502,10.2311,10.3393,10.3508,10.3584,10.389,10.4501,10.5303,10.6106,10.6488,10.729,10.8589,10.8704,10.8819,10.9086,10.9086,10.9392,10.9889,10.9889,11.0194,0.0,7.3526,7.3578,7.359,7.4312,7.4997,7.4997,7.6381,0.0,7.8113,7.8847,7.9573,8.0113,8.0157,8.0189,8.0478,8.1929,8.3343,8.4289,8.6643,8.8892,9.0518,9.0709,9.0669,9.0593,9.0583,9.0583,9.0583,0.0,0.0,9.0583,9.0583,9.0583,9.0583,9.0583,9.1013,9.1892,9.2733,9.3612,9.4479,9.5255,9.5598,9.5598,9.5598,0.0,0.0,0.0,0.0,0.0,9.5598,9.5598,9.5598,9.5598,9.5598,9.5598,9.5587,9.5598,9.5598,9.5587,9.5598,9.5598,9.5598,9.5598,9.5598,9.5598,9.5598,9.5598,9.5598,9.621,9.6875,9.6825,9.7973,9.9171,9.8934,9.944,10.0505,10.2308,10.2676,10.33,10.5191,10.5585,10.5597,10.5711,10.5711,10.5711,10.5711,10.5711,10.5418,10.4501,10.4386,10.3699,10.2094,10.1891,10.1891,10.1891,10.2006,10.2323,10.3087,10.4807,10.6106,10.6921,10.7711,10.8589,10.9494,10.9494,10.9889,11.0691,11.0691,11.0691,11.0691,11.0691,11.0691,7.3551,0.0,7.364,7.374,7.4375,7.496,0.0,7.6318,7.7742,7.7938,7.8267,7.8855,7.9999,7.9662,7.9503,8.0363,8.1929,8.3343,8.4289,8.7198,8.9621,9.0605,9.0709,9.0669,9.0593,9.0583,9.0583,9.0583,0.0,9.0583,9.0583,9.0583,9.0583,9.0583,9.0583,9.1308,9.2771,9.3601,9.4452,9.5331,9.5522,9.5598,9.5598,9.5598,0.0,0.0,0.0,0.0,9.5598,9.5598,9.5598,9.5598,9.5598,9.5598,9.5587,9.5486,9.552,9.5587,9.5486,9.552,9.5598,9.5598,9.5598,9.5598,9.5598,9.5598,9.5598,9.5598,9.621,9.7016,9.7474,9.8392,9.9273,9.9619,9.9858,10.0289,10.1379,10.1696,10.2193,10.4189,10.4621,10.4798,10.5585,10.5711,10.5711,10.5711,10.5711,10.5418,10.4501,10.389,10.3087,10.2006,10.1891,10.1891,10.1891,10.2514,10.3011,10.3214,10.4807,10.6106,10.6921,10.7711,10.8895,11.0385,11.0385,11.05,11.0691,11.0691,11.0691,11.0691,11.0691,11.0691,7.3401,7.354,7.3628,7.3703,7.4312,7.4871,7.4742,7.6203,7.7641,7.7853,7.8382,7.9082,8.0037,7.9814,7.9846,8.0936,8.254,8.4366,8.6499,8.8395,8.988,9.0605,9.0709,9.0669,9.0593,9.0583,9.0583,9.0583,0.0,9.0583,9.0583,9.0583,9.0583,9.0583,9.0975,9.1778,9.3077,9.3524,9.4376,9.5598,9.5598,9.5598,9.5598,9.5598,0.0,0.0,0.0,0.0,9.5598,9.5598,9.5598,9.5598,9.5598,9.5598,9.5598,9.552,9.5543,9.5587,9.552,9.5543,9.5598,9.5598,9.5598,9.5598,9.5598,9.5598,9.5598,9.5598,9.6477,9.7524,9.7876,9.8895,9.9865,10.0101,10.0113,10.0316,10.1086,10.1301,10.1887,10.3795,10.4189,10.4494,10.5508,10.5711,10.5711,10.5711,10.5418,10.4807,10.4004,10.3087,10.24,10.2006,10.1891,10.2094,10.2514,10.3278,10.389,10.431,10.5495,10.6794,10.8016,10.8895,10.9812,11.0691,11.0691,11.0691,11.0691,11.0691,11.0691,11.0691,11.0691,11.0691,7.3162,7.3562,7.3713,7.3577,7.4285,7.4956,7.4703,7.6152,7.7616,7.7889,7.858,7.9369,8.0086,8.0101,8.0399,8.1624,8.3391,8.5704,8.8912,8.9506,8.9851,9.0584,9.0689,9.0648,9.0593,9.0583,9.0583,9.0583,0.0,9.0583,9.0583,9.0583,9.0583,9.0583,9.1281,9.2045,9.2886,9.3191,9.3994,9.5407,9.5522,9.5598,9.5598,9.5598,9.5598,0.0,0.0,0.0,9.5598,9.5598,9.5598,9.5598,9.5598,9.5598,9.5598,9.5598,9.5598,9.5598,9.5598,9.5598,9.5598,9.5598,9.5598,9.5598,9.5598,9.5598,9.5598,9.5598,9.6821,9.8109,9.8109,9.9331,10.0507,10.0303,10.0202,10.0418,10.0999,10.1098,10.1582,10.3617,10.4011,10.4405,10.5496,10.5711,10.5711,10.5711,10.4998,10.4119,10.3278,10.2591,10.2006,10.1891,10.2082,10.2591,10.3278,10.4119,10.4998,10.5788,10.6603,10.7902,10.9494,11.0309,11.0691,11.0691,11.0691,11.0691,11.0691,11.0691,11.0691,11.0691,11.0691,11.0691,7.3162,7.3827,7.4145,7.3571,7.4708,7.5794,7.5109,7.6381,7.7839,7.8113,7.7783,7.802,7.9868,7.9704,7.9801,8.1519,8.3888,8.6145,8.8066,8.9005,8.9781,9.0548,9.0614,9.0604,9.0583,9.0583,9.0583,0.0,0.0,9.0583,9.0583,9.0583,9.0583,9.0583,9.0735,9.1166,9.1969,9.3459,9.4327,9.4605,9.5255,9.5598,9.5598,9.5598,9.5598,0.0,0.0,9.5598,9.5598,9.5598,9.5598,9.5598,9.5598,9.5598,9.5598,9.5598,9.5598,9.5598,9.5598,9.5598,9.5598,9.5598,9.5598,9.5598,9.5598,9.5598,9.5598,9.5598,9.6821,9.8109,9.8109,9.9331,10.0607,10.0413,10.0303,10.019,10.0201,10.0107,10.06,10.26,10.2994,10.3605,10.5407,10.5711,10.5711,10.5711,10.4998,10.4119,10.3278,10.3099,10.2705,10.2006,10.3202,10.4119,10.4195,10.4998,10.5788,10.6679,10.7481,10.878,11.0385,11.0614,11.0691,11.0691,11.0691,11.0691,11.0691,11.0691,11.0691,11.0691,11.0691,11.0691,7.3051,7.363,7.3927,7.4185,7.5233,7.6182,7.61,7.7069,7.8064,7.8259,7.8457,7.8912,7.9992,7.998,8.0564,8.2827,8.4557,8.6355,8.8545,8.8802,8.9203,9.044,9.0583,9.0583,9.0583,9.0583,9.0583,0.0,0.0,0.0,9.0583,9.0583,9.0583,9.0583,9.0583,9.0774,9.1166,9.2847,9.3917,9.4403,9.5216,9.5598,9.5598,9.5598,9.5598,9.5598,0.0,9.5598,9.5598,9.5598,9.5598,9.5598,9.5598,9.5598,9.5598,9.5598,9.5598,9.5598,9.5598,9.5598,9.5598,9.5598,9.5598,9.5598,9.5598,9.5598,9.5598,9.5598,9.6821,9.8109,9.8109,9.9331,10.0607,10.0399,10.0315,10.019,9.9998,9.9904,10.0408,10.2409,10.2816,10.3389,10.5407,10.5711,10.5482,10.5112,10.431,10.3584,10.3202,10.2782,10.2705,10.3202,10.389,10.4616,10.5112,10.5495,10.622,10.7481,10.8398,10.9392,11.0614,11.0691,11.0691,11.0691,11.0691,11.0691,11.0691,11.0691,11.0691,11.0691,11.0691,11.0691,7.2939,7.3508,7.3857,7.4761,7.5521,7.618,7.6866,7.739,7.7883,7.8398,7.9117,7.9758,8.0167,8.0667,8.1671,8.3744,8.5073,8.6611,8.8832,8.8744,8.8912,9.043,9.0583,9.0583,9.0583,9.0583,9.0583,0.0,0.0,0.0,9.0583,9.0583,9.0583,9.0583,9.0774,9.0774,9.0583,9.2455,9.365,9.4108,9.5102,9.5598,9.5598,9.5598,9.5598,9.5598,9.5598,9.5598,9.5598,9.5598,9.5598,9.5598,9.5598,9.5598,9.5598,9.5598,9.5598,9.5598,9.5598,9.5598,9.5598,9.5598,9.5598,9.5598,9.5598,9.5598,9.5598,9.5598,9.6668,9.7841,9.8032,9.9331,10.0619,10.0512,10.0314,10.019,10.0088,9.9944,10.041,10.2117,10.26,10.33,10.5103,10.5508,10.5418,10.4501,10.3699,10.3214,10.3214,10.2591,10.282,10.4195,10.4616,10.4998,10.5597,10.5711,10.6297,10.7787,10.8806,10.9812,11.0704,11.0691,11.0691,11.0691,11.0691,11.0691,11.0691,11.0691,11.0691,11.0691,11.0691,11.0691,7.2939,7.3837,7.4431,7.491,7.5219,7.5709,7.6776,7.6705,7.6885,7.8453,7.9008,7.9486,8.0249,8.1728,8.2875,8.3085,8.5129,8.7078,8.8043,8.8797,8.9561,9.0468,9.0583,9.0583,9.0583,9.0583,0.0,0.0,0.0,0.0,9.0583,9.0583,9.0583,9.0583,9.1319,9.1357,9.0621,9.3066,9.3917,9.3229,9.4834,9.5598,9.5598,9.5598,9.5598,9.5598,9.5598,9.5598,9.5598,9.5598,9.5598,9.5598,9.5598,9.5598,9.5598,9.5598,9.5598,9.5598,9.5598,9.5598,9.5598,9.5598,9.5598,9.5598,9.5598,9.5598,9.5598,9.5598,9.6286,9.7165,9.7918,9.9331,10.0604,10.0592,10.0486,10.0314,10.019,10.01,10.0313,10.12,10.2193,10.3083,10.41,10.5103,10.5418,10.4501,10.3699,10.3214,10.3214,10.3087,10.3393,10.431,10.51,10.5597,10.5711,10.5711,10.6106,10.6908,10.8513,10.9812,11.0704,11.0691,11.0691,11.0691,11.0691,11.0691,11.0691,11.0691,11.0691,11.0691,11.0691,11.0691,7.2939,7.4135,7.4897,7.4973,7.5361,7.5964,7.6857,7.7159,7.756,7.8633,7.9085,7.9665,8.1032,8.2712,8.3869,8.3811,8.5511,8.7106,8.7957,8.8797,8.9638,9.0506,9.0583,9.0583,9.0583,9.0583,0.0,0.0,0.0,0.0,9.0583,9.0583,9.0583,9.0583,9.0888,9.1166,9.1357,9.2847,9.3688,9.3917,9.5064,9.5598,9.5598,9.5598,9.5598,9.5598,9.5598,9.5598,9.5598,9.5598,9.5598,9.5598,9.5598,9.5598,9.5598,9.5598,9.5598,9.5598,9.5598,9.5598,9.5598,9.5598,9.5598,9.5598,9.5598,9.5598,9.5598,9.5598,9.621,9.7089,9.788,9.8961,9.9992,10.0489,10.0498,10.0389,10.0302,10.0203,10.0302,10.1191,10.2207,10.3083,10.4011,10.4606,10.4616,10.3813,10.3393,10.3214,10.3214,10.3584,10.431,10.51,10.5495,10.5711,10.5711,10.5711,10.5991,10.6794,10.8016,10.901,10.9889,11.0385,11.0691,11.0691,11.0691,11.0691,11.0691,11.0691,11.0691,11.0691,11.0691,11.0691,7.3055,7.4126,7.4822,7.5034,7.5241,7.5637,7.6468,7.684,7.7284,7.8351,7.9362,8.0525,8.1967,8.341,8.4328,8.4298,8.5932,8.7422,8.8033,8.9027,8.9933,9.0544,9.0583,9.0583,9.0583,0.0,0.0,0.0,0.0,0.0,0.0,9.0583,9.0583,0.0,9.085,9.1128,9.1434,9.2809,9.3688,9.3983,9.5064,9.5598,9.5598,9.5598,9.5598,9.5598,9.5598,9.5598,9.5598,9.5598,9.5598,9.5598,9.5598,9.5598,9.5598,9.5598,9.5598,9.5598,9.5598,9.5598,9.5598,9.5598,9.5598,9.5598,9.5598,9.5598,9.5598,9.5598,9.6019,9.6668,9.7509,9.8579,9.961,10.0413,10.0495,10.05,10.0413,10.019,10.0291,10.0913,10.1711,10.26,10.3605,10.3896,10.3803,10.3317,10.3214,10.3214,10.3214,10.389,10.4692,10.5597,10.5711,10.5711,10.5711,10.5711,10.5903,10.6488,10.729,10.8207,10.8997,10.9812,11.0309,11.0309,11.0576,11.0691,11.0691,11.0691,11.0691,11.0691,11.0691,11.0691,7.3354,7.3802,7.4063,7.5051,7.479,7.456,7.5594,7.5479,7.5694,7.7446,7.9944,8.2101,8.3045,8.3831,8.4289,8.4289,8.6428,8.812,8.812,8.9561,9.0583,9.0583,9.0583,9.0583,9.0583,0.0,0.0,0.0,0.0,0.0,0.0,9.0583,9.0583,0.0,9.1357,9.1395,9.0621,9.3104,9.3945,9.3115,9.4796,9.5598,9.5598,9.5598,9.5598,9.5598,9.5598,9.5598,9.5598,9.5598,9.5598,9.5598,9.5598,9.5598,9.5598,9.5598,9.5598,9.5598,9.5598,9.5598,9.5598,9.5598,9.5598,9.5598,9.5598,9.5598,9.5598,9.5598,9.5598,9.5789,9.6668,9.812,9.9572,10.0413,10.0604,10.0607,10.0399,10.0315,10.019,9.9998,10.0693,10.162,10.26,10.2881,10.298,10.319,10.3214,10.3214,10.3202,10.389,10.4692,10.5597,10.5711,10.5711,10.5711,10.5711,10.5711,10.5711,10.6412,10.729,10.8207,10.901,10.9379,10.9379,11.0194,11.0691,11.0691,11.0691,11.0691,11.0691,11.0691,11.0691,7.3055,7.4262,7.4873,7.4429,7.5048,7.5668,7.5307,7.5256,7.5797,7.7577,8.0505,8.2855,8.3009,8.4261,8.5255,8.5177,8.681,8.812,8.812,8.9561,9.0583,9.0583,9.0583,9.0583,9.0583,0.0,0.0,0.0,0.0,0.0,0.0,9.0583,0.0,0.0,9.0812,9.1128,9.1434,9.2809,9.365,9.4032,9.5102,9.5598,9.5598,9.5598,9.5598,9.5598,9.5598,9.5598,9.5598,9.5598,9.5598,9.5598,9.5598,9.5598,9.5598,9.5598,9.5598,9.5598,9.5598,9.5598,9.5598,9.5598,9.5598,9.5598,9.5598,9.5598,9.5598,9.5598,9.5598,9.5789,9.6668,9.77,9.8693,9.9534,10.0183,10.0592,10.0507,10.0399,10.0315,10.019,10.0811,10.1699,10.2613,10.2398,10.2484,10.3789,10.3596,10.3584,10.4807,10.5189,10.5418,10.5686,10.5711,10.5711,10.5711,10.5711,10.5711,10.5711,10.5903,10.6412,10.729,10.8093,10.8806,10.9379,10.9697,11.0118,11.0691,11.0691,11.0691,11.0691,11.0691,11.0691,7.334,7.4509,7.5128,7.4939,7.5384,7.5818,7.5685,7.6055,7.6766,7.8204,8.0982,8.3113,8.3009,8.4423,8.559,8.5521,8.6963,8.812,8.812,8.9561,9.0583,9.0583,9.0583,9.0583,9.0583,0.0,0.0,0.0,0.0,0.0,0.0,9.0583,0.0,0.0,9.0583,9.0812,9.1319,9.2504,9.3344,9.3917,9.5064,9.5598,9.5598,9.5598,9.5598,9.5598,9.5598,9.5598,9.5598,9.5598,9.5598,9.5598,9.5598,9.5598,9.5598,9.5598,9.5598,9.5598,9.5598,9.5598,9.5598,9.5598,9.5598,9.5598,9.5598,9.5598,9.5598,9.5598,9.5598,9.5713,9.6248,9.7012,9.7929,9.9114,9.9992,10.0604,10.0604,10.0498,10.0403,10.0202,10.0596,10.1204,10.2079,10.1497,10.1699,10.3602,10.3701,10.4195,10.5482,10.5711,10.5711,10.5711,10.5711,10.5711,10.5711,10.5711,10.5711,10.5711,10.5711,10.5903,10.6412,10.7214,10.7902,10.8398,10.8691,10.9315,11.0194,11.0194,11.0385,11.0691,11.0691,11.0691,7.3957,7.4574,7.4964,7.5997,7.5646,7.5361,7.6546,7.7449,7.8252,7.9216,8.1318,8.3037,8.3114,8.4403,8.5501,8.5501,8.6963,8.812,8.812,8.9561,9.0583,9.0583,9.0583,9.0583,0.0,0.0,0.0,0.0,0.0,0.0,0.0,9.0583,0.0,9.0583,9.0583,9.0583,9.0583,9.2274,9.3115,0.0,9.4796,9.5598,9.5598,9.5598,9.5598,9.5598,9.5598,9.5598,9.5598,9.5598,9.5598,9.5598,9.5598,9.5598,9.5598,9.5598,9.5598,9.5598,9.5598,9.5598,9.5598,9.5598,9.5598,9.5598,9.5598,9.5598,9.5598,9.5598,9.5598,9.5598,9.5598,9.6248,9.728,9.8808,9.984,10.0489,10.0604,10.051,10.0389,10.0202,10.0088,10.0289,10.12,10.0579,10.0722,10.2702,10.3881,10.4807,10.5597,10.5711,10.5711,10.5711,10.5711,10.5711,10.5711,10.5711,10.5711,10.5711,10.5711,10.5711,10.5711,10.6412,10.6794,10.6908,10.7711,10.8513,10.9303,10.9303,10.9697,11.0513,11.0513,11.0513,7.3717,7.4361,7.4792,7.5187,7.5332,7.5812,7.7355,7.787,7.8443,7.9933,8.17,8.3228,8.3868,8.4824,8.5501,8.5501,8.6963,8.812,8.812,8.9561,9.0583,9.0583,9.0583,9.0583,0.0,0.0,0.0,0.0,0.0,0.0,9.0583,9.0583,0.0,9.0583,9.0583,9.0583,9.0583,9.2274,9.3115,0.0,9.4796,9.5598,9.5598,9.5598,9.5598,9.5598,9.5598,9.5598,9.5598,9.5598,9.5598,9.5598,9.5598,9.5598,9.5598,9.5598,9.5598,9.5598,9.5598,9.5598,9.5598,9.5598,9.5598,9.5598,9.5598,9.5598,9.5598,9.5598,9.5598,9.5598,9.5598,9.6248,9.6974,9.7356,9.8579,9.984,10.0489,10.0619,10.0498,10.0189,10.0203,10.0405,10.1213,10.0579,10.0722,10.2702,10.4377,10.5495,10.5686,10.5711,10.5711,10.5711,10.5711,10.5711,10.5711,10.5711,10.5711,10.5711,10.5711,10.5711,10.5711,10.5915,10.6297,10.6908,10.7099,10.7596,10.8513,10.8513,10.8589,10.8704,10.8704,10.8704,7.3966,7.4514,7.4846,7.5171,7.5356,7.593,7.764,7.8022,7.8596,8.0697,8.212,8.3267,8.4146,8.4976,8.5501,8.5501,8.6619,8.7613,8.8033,8.9179,9.0124,9.0544,9.0583,0.0,0.0,0.0,0.0,0.0,0.0,9.0583,9.0583,9.0583,9.0583,9.0583,9.0583,9.0583,9.0583,9.2274,9.3115,9.3115,9.4796,9.5598,9.5598,9.5598,9.5598,9.5598,9.5598,9.5598,9.5598,9.5598,9.5598,9.5598,9.5598,9.5598,9.5598,9.5598,9.5598,9.5598,9.5598,9.5598,9.5598,9.5598,9.5598,9.5598,9.5598,9.5598,9.5598,9.5598,9.5598,9.5598,9.5598,9.5942,9.6363,9.6783,9.8197,9.9496,9.9916,10.0298,10.0483,10.0316,10.019,10.0304,10.0513,10.0616,10.1114,10.2703,10.41,10.5191,10.5597,10.5711,10.5711,10.5711,10.5711,10.5711,10.5711,10.5711,10.5711,10.5711,10.5711,10.5711,10.5711,10.5711,10.5915,10.6297,10.6297,10.6717,10.7596,10.7596,10.7787,10.8207,10.8207,10.8207,7.4217,7.4685,7.4939,7.5383,7.5509,7.593,7.764,7.8022,7.871,8.127,8.2455,8.3267,8.4146,8.4976,8.5501,8.5501,8.6227,8.7106,8.7957,8.8797,8.9638,9.0506,9.0583,0.0,0.0,0.0,0.0,0.0,0.0,9.0583,9.0583,9.0583,9.0583,9.0583,9.0583,9.0583,9.0583,9.2121,9.2962,9.3115,9.4796,9.5598,9.5598,9.5598,9.5598,9.5598,9.5598,9.5598,9.5598,9.5598,9.5598,9.5598,9.5598,9.5598,9.5598,9.5598,9.5598,9.5598,9.5598,9.5598,9.5598,9.5598,9.5598,9.5598,9.5598,9.5598,9.5598,9.5598,9.5598,9.5598,9.5598,9.5598,9.5789,9.6515,9.7853,9.9037,9.9343,9.9992,10.0483,10.0316,10.019,10.0113,9.9837,10.06,10.1582,10.26,10.3605,10.4582,10.5585,10.5711,10.5711,10.5711,10.5711,10.5711,10.5711,10.5711,10.5711,10.5711,10.5711,10.5711,10.5711,10.5711,10.5711,10.5711,10.5711,10.5991,10.6679,10.6679,10.7099,10.7787,10.7787,10.7787,7.3944,7.4466,7.5075,7.5401,7.5509,7.593,7.764,7.8022,7.871,8.127,8.2455,8.3267,8.4146,8.4976,8.5501,8.5501,8.6227,8.7106,8.7957,8.8797,8.9638,9.0506,9.0583,0.0,0.0,0.0,0.0,0.0,9.0583,9.0583,9.0583,9.0583,9.0583,9.0583,9.0583,9.0583,9.0583,9.151,9.2351,9.3115,9.4796,9.5598,9.5598,9.5598,9.5598,9.5598,9.5598,9.5598,9.5598,9.5598,9.5598,9.5598,9.5598,9.5598,9.5598,9.5598,9.5598,9.5598,9.5598,9.5598,9.5598,9.5598,9.5598,9.5598,9.5598,9.5598,9.5598,9.5598,9.5598,9.5598,9.5598,9.5598,9.5637,9.5751,9.6515,9.7623,9.9075,9.9992,10.0483,10.0316,9.9985,9.9837,9.9796,10.06,10.1582,10.26,10.3605,10.4582,10.5585,10.5711,10.5711,10.5711,10.5711,10.5711,10.5711,10.5711,10.5711,10.5711,10.5711,10.5711,10.5711,10.5711,10.5711,10.5711,10.5711,10.58,10.5915,10.5915,10.5903,10.5979,10.5979,10.5979,7.4085,7.4503,7.495,7.5392,7.5509,7.5815,7.6991,7.764,7.8481,8.0047,8.1776,8.3267,8.4146,8.4976,8.5501,8.5501,8.5807,8.6543,8.7918,8.8415,8.9103,9.043,9.0583,0.0,0.0,0.0,0.0,0.0,9.0583,9.0583,9.0583,9.0583,9.0583,9.0583,9.0583,9.0583,9.0583,9.1395,9.2465,9.3792,9.5025,9.5598,9.5598,9.5598,9.5598,9.5598,9.5598,9.5598,9.5598,9.5598,9.5598,9.5598,9.5598,9.5598,9.5598,9.5598,9.5598,9.5598,9.5598,9.5598,9.5598,9.5598,9.5598,9.5598,9.5598,9.5598,9.5598,9.5598,9.5598,9.5598,9.5598,9.5598,9.5598,9.5598,9.6286,9.7089,9.7853,9.9037,9.9999,10.0202,9.9996,9.9796,9.9796,10.0192,10.0995,10.2587,10.3211,10.3998,10.5496,10.5711,10.5711,10.5711,10.5711,10.5711,10.5711,10.5711,10.5711,10.5711,10.5711,10.5711,10.5711,10.5711,10.5711,10.5711,10.5711,10.5711,10.5711,10.5711,10.5711,10.5711,10.5711,10.5711,7.4368,7.4752,7.5074,7.5826,7.5906,7.6018,7.6865,7.7544,7.8252,7.9101,8.1127,8.2961,8.3802,8.4824,8.5501,8.5501,8.5501,8.6046,8.7575,8.7957,8.8644,9.0086,0.0,0.0,0.0,0.0,0.0,0.0,9.0583,9.0583,9.0583,9.0583,9.0583,9.0583,9.0583,9.0583,9.0583,9.1625,9.2771,9.4021,9.5102,9.5598,9.5598,9.5598,9.5598,9.5598,9.5598,9.5598,9.5598,9.5598,9.5598,9.5598,9.5598,9.5598,9.5598,9.5598,9.5598,9.5598,9.5598,9.5598,9.5598,9.5598,9.5598,9.5598,9.5598,9.5598,9.5598,9.5598,9.5598,9.5598,9.5598,9.5598,9.5598,9.5598,9.6095,9.6745,9.7394,9.8456,9.9458,10.0113,9.9996,9.9796,9.9796,9.9796,10.0408,10.2193,10.26,10.3389,10.5103,10.5508,10.5711,10.5711,10.5711,10.5711,10.5711,10.5711,10.5711,10.5711,10.5711,10.5711,10.5711,10.5711,10.5711,10.5711,10.5711,10.5711,10.5711,10.5711,10.5711,10.5711,10.5711,10.5711,7.4748,7.5272,7.5802,7.7136,7.6999,7.6786,7.7806,7.8009,7.8252,7.9101,8.0659,8.2111,8.2923,8.4403,8.5501,8.5501,8.5501,8.5807,8.6724,8.7575,8.8415,8.9256,0.0,0.0,0.0,0.0,0.0,0.0,9.0583,9.0583,9.0583,9.0583,9.0583,9.0583,9.0583,9.0583,9.0583,9.2236,9.3077,9.3191,9.4834,9.5598,9.5598,9.5598,9.5598,9.5598,9.5598,9.5598,9.5598,9.5598,9.5598,9.5598,9.5598,9.5598,9.5598,9.5598,9.5598,9.5598,9.5598,9.5598,9.5598,9.5598,9.5598,9.5598,9.5598,9.5598,9.5598,9.5598,9.5598,9.5598,9.5598,9.5598,9.5598,9.5598,9.5637,9.6324,9.8743,9.9155,9.9238,9.9987,9.9996,9.9796,9.9796,9.9796,10.0192,10.1212,10.2193,10.3211,10.4189,10.5103,10.5711,10.5711,10.5711,10.5711,10.5711,10.5711,10.5711,10.5711,10.5711,10.5711,10.5711,10.5711,10.5711,10.5711,10.5711,10.5711,10.5711,10.5711,10.5711,10.5711,10.5711,10.5711,7.5446,7.5605,7.5579,7.7051,7.7377,7.7312,7.7157,7.7629,7.8132,7.8414,7.9818,8.1385,8.277,8.3954,8.49,8.5435,8.5501,8.5807,8.6686,8.7536,8.8377,8.9218,0.0,0.0,0.0,0.0,0.0,0.0,0.0,9.0583,9.0583,9.0583,9.0583,9.0583,9.0583,9.0583,9.0583,9.1701,9.2542,9.3115,9.4299,9.5102,9.5598,9.5598,9.5598,9.5598,9.5598,9.5598,9.5598,9.5598,9.5598,9.5598,9.5598,9.5598,9.5598,9.5598,9.5598,9.5598,9.5598,9.5598,9.5598,9.5598,9.5598,9.5598,9.5598,9.5598,9.5598,9.5598,9.5598,9.5598,9.5598,9.5598,9.5598,9.5598,9.5598,9.5981,9.7471,9.8418,9.9251,9.9987,9.9996,9.9796,9.9796,9.9796,10.0408,10.2014,10.2587,10.3389,10.5014,10.5496,10.571,10.5807,10.5811,10.571,10.5807,10.5696,10.5711,10.5711,10.5711,10.5711,10.5711,10.5711,10.5711,10.5711,10.5711,10.5711,10.5711,10.5711,10.5711,10.5711,10.5711,10.5711,7.6103,7.6269,7.6217,7.7598,7.7969,7.7882,7.7494,7.771,7.8097,7.8375,7.9321,8.063,8.2302,8.3305,8.4212,8.531,8.5501,8.5692,8.6265,8.7116,8.7957,8.8797,0.0,0.0,0.0,0.0,0.0,0.0,0.0,0.0,9.0583,9.0583,9.0583,9.0583,9.0583,9.0583,9.0583,9.1395,9.2083,9.2695,9.3841,9.4681,9.5216,9.5484,9.5598,9.5598,9.5598,9.5598,9.5598,9.5598,9.5598,9.5598,9.5598,9.5598,9.5598,9.5598,9.5598,9.5598,9.5598,9.5598,9.5598,9.5598,9.5598,9.5598,9.5598,9.5598,9.5598,9.5598,9.5598,9.5598,9.5598,9.5598,9.5598,9.5598,9.5598,9.5828,9.6706,9.7806,9.8857,9.9657,9.9846,9.985,9.9796,9.9796,10.0319,10.162,10.2409,10.33,10.4621,10.528,10.5811,10.5916,10.5807,10.5783,10.5916,10.5807,10.5684,10.5686,10.5711,10.5711,10.5711,10.5711,10.5711,10.5711,10.5711,10.5711,10.5711,10.5711,10.5711,10.5711,10.5711,10.5711,0.0,0.0,0.0,7.8889,7.8798,7.8507,7.8912,7.839,7.8113,7.9074,7.9292,7.978,8.1461,8.2416,8.3524,8.5206,8.5463,8.5501,8.5501,8.6265,8.7106,8.7957,0.0,0.0,0.0,0.0,0.0,0.0,9.0583,9.0583,9.0583,9.0583,9.0583,9.0583,9.0583,9.0583,9.0583,9.1357,9.1778,9.1816,9.3497,9.4365,9.4441,9.5216,9.556,9.5598,9.5598,9.5598,9.5598,9.5598,9.5598,9.5598,9.5598,9.5598,9.5598,9.5598,9.5598,9.5598,9.5598,9.5598,9.5598,9.5598,9.5598,9.5598,9.5598,9.5598,9.5598,9.5598,9.5598,9.5598,9.5598,9.5598,9.5598,9.5598,9.5598,9.5828,9.6668,9.7379,9.8089,9.8857,9.953,9.9932,9.9823,9.9796,9.9796,9.9834,10.1493,10.2816,10.2816,10.4494,10.5811,10.5916,10.5889,10.5889,10.5901,10.5889,10.5792,10.5698,10.5686,10.5711,10.5711,10.5711,10.5711,10.5711,10.5711,10.5711,10.5711,10.5711,10.5711,10.5711,10.5711,10.5711,7.751,0.0,0.0,0.0,0.0,0.0,7.8631,7.8518,7.8424,7.8256,7.8723,7.9514,8.0649,8.1576,8.2684,8.4365,8.5129,8.5501,8.5501,8.6265,8.6877,8.7144,0.0,0.0,0.0,0.0,0.0,0.0,9.0583,9.0583,9.0583,9.0583,9.0583,9.0583,9.0583,9.0583,9.0583,9.0812,9.1204,9.1816,9.2274,9.3191,9.4403,9.4643,9.5064,9.5598,9.5598,9.5598,9.5598,9.5598,9.5598,9.5598,9.5598,9.5598,9.5598,9.5598,9.5598,9.5598,9.5598,9.5598,9.5598,9.5598,9.5598,9.5598,9.5598,9.5598,9.5598,9.5598,9.5598,9.5598,9.5598,9.5598,9.5598,9.5598,9.5598,9.5675,9.5904,9.6608,9.7547,9.8768,9.9074,9.9287,9.971,9.9796,10.0013,10.0817,10.2014,10.2994,10.3706,10.4887,10.5809,10.5993,10.5898,10.5997,10.609,10.5982,10.5904,10.5792,10.5811,10.5711,10.5711,10.5711,10.5711,10.5711,10.5711,10.5711,10.5711,10.5711,10.5711,10.5711,10.5711,10.5711,0.0,7.8011,7.7845,7.8477,0.0,0.0,7.8901,7.8723,7.8535,7.838,7.8752,7.9257,7.9734,8.0869,8.2034,8.2949,8.4123,8.5041,8.5425,8.5922,8.638,8.6762,0.0,0.0,0.0,9.0086,9.0583,9.0583,9.0583,9.0583,9.0583,9.0583,9.0583,9.0583,9.0583,9.0583,9.0583,9.0583,9.085,9.1319,9.1625,9.2504,9.3868,9.4212,9.4834,9.5598,9.5598,9.5598,9.5598,9.5598,9.5598,9.5598,9.5598,9.5598,9.5598,9.5598,9.5598,9.5598,9.5598,9.5598,9.5598,9.5598,9.5598,9.5598,9.5598,9.5598,9.5598,9.5598,9.5598,9.5598,9.5598,9.5598,9.5598,9.5598,9.5598,9.5598,9.5598,9.5981,9.6688,9.7813,9.8553,9.9074,9.9427,9.9689,10.0107,10.068,10.1608,10.2409,10.2905,10.3909,10.4707,10.5315,10.5318,10.5491,10.6112,10.5993,10.5889,10.5889,10.5797,10.5711,10.5711,10.5711,10.5711,10.5711,10.5711,10.5711,10.5711,10.5711,10.5711,10.5711,10.5711,10.5711,0.0,0.0,0.0,0.0,7.8427,0.0,7.9329,7.8939,7.8544,7.8939,7.9104,7.9094,7.8911,8.0275,8.1486,8.1537,8.28,8.4159,8.5204,8.5425,8.5769,8.6571,0.0,0.0,8.9103,8.9933,9.0506,9.0583,9.0583,9.0583,9.0583,9.0583,9.0583,9.0583,9.0583,9.0583,9.0583,9.0583,9.0583,9.0621,9.1319,9.216,9.3115,9.3906,9.4758,9.5598,9.5598,9.5598,9.5598,9.5598,9.5598,9.5598,9.5598,9.5598,9.5598,9.5598,9.5598,9.5598,9.5598,9.5598,9.5598,9.5598,9.5598,9.5598,9.5598,9.5598,9.5598,9.5598,9.5598,9.5598,9.5598,9.5598,9.5598,9.5598,9.5598,9.5598,9.5598,9.5598,9.5794,9.6444,9.7846,9.8904,9.8833,9.939,9.9831,9.9831,10.0693,10.1301,10.1301,10.2193,10.3185,10.4298,10.4411,10.4812,10.5886,10.5921,10.5889,10.5889,10.5797,10.5711,10.5711,10.5711,10.5711,10.5711,10.5711,10.5711,10.5711,10.5711,10.5711,10.5711,10.5711,10.5711,0.0,0.0,0.0,0.0,0.0,0.0,7.8638,7.8753,7.8629,7.8559,7.9058,7.9372,7.8975,7.9758,8.0911,8.2212,8.2157,8.2513,8.4149,8.5031,8.555,0.0,0.0,0.0,8.8262,8.9065,8.9818,9.0544,9.0583,9.0583,9.0583,9.0583,9.0583,9.0583,9.0583,9.0583,9.0583,9.0583,9.0583,9.0583,9.0774,9.1625,9.3115,9.3268,9.4185,9.5598,9.5598,9.5598,9.5598,9.5598,9.5598,9.5598,9.5598,9.5598,9.5598,9.5598,9.5598,9.5598,9.5598,9.5598,9.5598,9.5598,9.5598,9.5598,9.5598,9.5598,9.5598,9.5598,9.5598,9.5598,9.5598,9.5598,9.5598,9.5598,9.5598,9.5598,9.5598,9.5598,9.5637,9.5794,9.6474,9.7196,9.7718,9.8374,9.8889,9.8889,10.0285,10.1301,10.1301,10.2193,10.3185,10.4298,10.4411,10.4812,10.5886,10.5921,10.5889,10.5889,10.5797,10.5711,10.5711,10.5711,10.5711,10.5711,10.5711,10.5711,10.5711,10.5711,10.5711,10.5711,10.5711,10.5711,0.0,0.0,0.0,7.7696,0.0,0.0,0.0,7.871,7.8589,7.8252,7.895,7.9376,7.8701,7.9391,8.0369,8.1181,8.1337,8.1655,8.2593,8.3877,8.476,0.0,0.0,0.0,8.7267,8.803,8.889,8.9783,9.0322,9.0583,9.0583,9.0583,9.0583,9.0583,9.0583,9.0583,9.0583,9.0583,9.0583,9.0583,9.0583,9.1243,9.2465,9.2886,9.3803,9.5025,9.5446,9.5598,9.5598,9.5598,9.5598,9.5598,9.5598,9.5598,9.5598,9.5598,9.5598,9.5598,9.5598,9.5598,9.5598,9.5598,9.5598,9.5587,9.552,9.5509,9.5509,9.5509,9.5554,9.5598,9.5598,9.5598,9.5598,9.5598,9.5598,9.5598,9.5598,9.5598,9.5598,9.5598,9.5795,9.6227,9.7077,9.7655,9.8071,9.8135,9.8805,9.9449,9.9904,10.0388,10.1279,10.2703,10.3287,10.4008,10.51,10.5601,10.5807,10.5878,10.5797,10.5711,10.5711,10.5711,10.5711,10.5711,10.5711,10.5711,10.5711,10.5711,10.5711,10.5711,10.5711,10.5711,0.0,0.0,0.0,0.0,0.0,7.8081,0.0,0.0,0.0,7.8203,7.8867,7.9294,7.8594,7.9291,0.0,0.0,0.0,0.0,0.0,8.2678,0.0,0.0,0.0,0.0,8.6448,8.7362,8.8292,8.9049,9.0012,9.0561,9.0583,9.0583,9.0583,9.0583,9.0583,9.0583,9.0583,9.0583,9.0583,9.0583,9.0583,9.1013,9.1816,9.2695,9.3573,9.4441,9.5255,9.5598,9.5598,9.5598,9.5598,9.5598,9.5598,9.5598,9.5598,9.5598,9.5598,9.5598,9.5598,9.5598,9.5598,9.5598,9.5587,9.5543,9.544,9.5406,9.5406,9.544,9.552,9.5598,9.5598,9.5598,9.5598,9.5598,9.5598,9.5598,9.5598,9.5598,9.5598,9.5598,9.5498,9.5669,9.6459,9.7003,9.7338,9.7413,9.7414,9.7613,9.828,9.8396,9.9031,10.0604,10.1914,10.2982,10.4006,10.51,10.5684,10.5919,10.5785,10.5711,10.5711,10.5711,10.5711,10.5711,10.5711,10.5711,10.5711,10.5711,10.5711,10.5711,10.5711,10.5711,0.0,0.0,0.0,0.0,7.6869,0.0,0.0,0.0,7.8174,7.8533,0.0,0.0,0.0,0.0,0.0,0.0,0.0,0.0,8.1197,8.2044,0.0,0.0,0.0,0.0,0.0,8.7933,8.8929,8.9087,8.9909,9.0487,9.0583,9.0583,9.0583,9.0583,9.0583,9.0583,9.0583,9.0583,9.0583,9.0583,9.0583,9.1013,9.1816,9.2695,9.3573,9.4441,9.5255,9.5598,9.5598,9.5598,9.5598,9.5598,9.5598,9.5598,9.5598,9.5598,9.5598,9.5598,9.5598,9.5598,9.5598,9.5598,9.552,9.5429,9.5406,9.5406,9.5429,9.5554,9.5587,9.5598,9.5598,9.5598,9.5598,9.5598,9.5598,9.5598,9.5598,9.5598,9.5598,9.5598,9.5498,9.5444,9.5543,9.6139,9.6576,9.6477,9.7148,9.7604,9.7473,9.7655,9.8149,9.8997,10.071,10.2206,10.3108,10.4707,10.5686,10.5698,10.5686,10.5711,10.5711,10.5711,10.5711,10.5711,10.5711,10.5711,10.5711,10.5711,10.5711,10.5711,10.5711,10.5711,0.0,0.0,0.0,0.0,0.0,0.0,0.0,0.0,7.7928,0.0,0.0,0.0,0.0,0.0,0.0,0.0,8.0125,0.0,0.0,0.0,0.0,0.0,0.0,0.0,0.0,0.0,0.0,0.0,8.9381,8.9811,9.0351,9.0351,9.0383,9.0497,9.0497,9.0519,9.0583,9.0583,9.0583,9.0583,9.0583,9.0742,9.1043,9.2433,9.3262,9.3627,9.4992,9.5598,9.5598,9.5598,9.5598,9.5598,9.5598,9.5598,9.5598,9.5598,9.5598,9.5587,9.552,9.5486,9.5475,9.5406,9.5263,9.5155,9.5155,9.5203,9.5312,9.5333,9.5498,9.5598,9.5598,9.5598,9.5598,9.5598,9.5598,9.5598,9.5598,9.5598,9.5598,9.5598,9.5565,9.552,9.552,9.5626,9.5762,9.5786,9.6041,9.6398,9.6781,9.6944,9.7298,9.8073,9.9746,10.0988,10.1519,10.3514,10.4912,10.4909,10.5406,10.5711,10.5711,10.5711,10.5711,10.5711,10.5711,10.5711,10.5711,10.5711,10.5711,10.5711,10.5711,10.5711,7.7205,0.0,0.0,0.0,0.0,0.0,0.0,0.0,0.0,0.0,0.0,0.0,0.0,0.0,0.0,0.0,0.0,0.0,0.0,0.0,0.0,0.0,0.0,0.0,0.0,0.0,0.0,0.0,0.0,8.9307,9.0167,9.0205,9.0273,9.0383,9.0394,9.0438,9.0583,9.0583,9.0583,9.0583,9.0583,9.054,9.0514,9.228,9.3071,9.3071,9.4839,9.5598,9.5598,9.5598,9.5598,9.5598,9.5598,9.5576,9.5554,9.5554,9.5554,9.5531,9.5406,9.5359,9.5336,9.5179,9.507,9.4996,9.4996,9.5058,9.5155,9.5215,9.5406,9.5554,9.5598,9.5598,9.5598,9.5598,9.5598,9.5598,9.5598,9.5598,9.5598,9.5598,9.5598,9.5598,9.5598,9.5452,9.5348,9.5394,9.5359,9.5491,9.6067,9.6203,9.6443,9.6942,9.8768,9.9972,10.0096,10.2396,10.4022,10.4413,10.4998,10.5495,10.5711,10.5711,10.5711,10.5711,10.5711,10.5711,10.5711,10.5711,10.5711,10.5711,10.5711,10.5711,0.0,0.0,0.0,7.6508,0.0,0.0,0.0,0.0,7.7908,0.0,0.0,0.0,0.0,0.0,0.0,0.0,0.0,0.0,0.0,0.0,0.0,0.0,0.0,0.0,0.0,0.0,0.0,0.0,0.0,0.0,9.0167,9.0205,9.0273,9.0383,9.0394,9.0438,9.0583,9.0583,9.0583,9.0583,9.0583,9.0583,9.0659,9.2351,9.3115,9.318,9.4872,9.5598,9.5598,9.5598,9.5598,9.5598,9.5598,9.552,9.5417,9.5417,9.5417,9.5394,9.5239,9.5191,9.5167,9.5045,9.4996,9.4996,9.4996,9.4996,9.5058,9.5336,9.5406,9.544,9.5576,9.5598,9.5598,9.5598,9.5598,9.5598,9.5598,9.5598,9.5598,9.5598,9.5598,9.5598,9.5598,9.5598,9.5554,9.5429,9.5509,9.5509,9.5253,9.5479,9.5536,9.5329,9.766,9.9219,9.9231,10.1596,10.3412,10.4298,10.4386,10.4807,10.5686,10.5711,10.5711,10.5711,10.5711,10.5711,10.5711,10.5711,10.5711,10.5711,10.5711,10.5711,0.0,0.0,7.8304,7.6959,0.0,0.0,0.0,0.0,0.0,0.0,0.0,0.0,0.0,0.0,0.0,0.0,0.0,0.0,0.0,0.0,0.0,0.0,0.0,0.0,0.0,0.0,0.0,0.0,8.9273,0.0,0.0,9.0622,9.0672,9.0148,9.0228,9.0328,9.0487,9.0551,9.0551,9.0487,9.0551,9.0508,9.0405,9.2248,9.3033,9.3082,9.4839,9.5598,9.5598,9.5509,9.5475,9.5463,9.5383,9.5324,9.5301,9.5383,9.5359,9.5265,9.5107,9.5008,9.4933,9.4883,9.487,9.487,9.487,9.4933,9.5033,9.5203,9.5348,9.544,9.5565,9.5598,9.5598,9.5598,9.5598,9.5598,9.5598,9.5598,9.5598,9.5598,9.5598,9.5598,9.5598,9.5598,9.5587,9.5543,9.5576,9.5576,9.5486,9.5554,9.5794,9.6288,9.7456,9.8523,9.9273,10.1106,10.2696,10.3508,10.4119,10.4501,10.4807,10.5418,10.5711,10.5711,10.5711,10.5711,10.5711,10.5711,10.5711,10.5711,10.5711,10.5711,7.7379,7.7847,0.0,7.6856,7.7211,0.0,7.7324,0.0,0.0,0.0,0.0,0.0,0.0,0.0,0.0,0.0,0.0,0.0,0.0,0.0,0.0,0.0,0.0,0.0,0.0,0.0,0.0,8.798,8.8779,0.0,0.0,0.0,9.0727,9.0546,9.0277,9.0228,9.0394,9.0454,9.0454,9.0394,9.0454,9.0373,9.0322,9.2182,9.2989,9.3082,9.4839,9.5598,9.5587,9.5463,9.5406,9.5394,9.5239,9.5155,9.5131,9.5253,9.5155,9.5045,9.4958,9.487,9.4806,9.4806,9.4806,9.4806,9.4806,9.4857,9.5085,9.5866,9.5708,9.5497,9.6279,9.6057,9.5598,9.5598,9.5598,9.5598,9.5598,9.5598,9.5598,9.5598,9.5565,9.5531,9.5531,9.5531,9.5554,9.5598,9.5598,9.5587,9.5543,9.5576,9.5909,9.6658,9.7305,9.8221,9.9584,10.0786,10.1788,10.2705,10.3508,10.4119,10.4386,10.5189,10.5991,10.6603,10.5991,10.5991,10.6603,10.5991,10.5711,10.5711,10.5711,10.5711]}]]